[[{"header":{"parameterUnit":"m.s-1","parameterCategory":1,"la1":30.6,"la2":29.2853,"lo1":-89.7004,"lo2":-87.6739,"dy":0.0162,"dx":0.0183,"nx":112,"ny":82,"refTime":"2024-07-28T12:00:00:Z","depth":0,"parameterNumber":2,"parameterNumberName":"U-component_of_WINDS"},"data":[0.0,0.0,0.0,0.0,0.0,0.0,0.0,0.0,0.0,0.0,0.0,0.0,0.0,0.0,0.0,0.0,0.0,0.0,0.0,0.0,0.0,0.0,0.0,0.0,0.0,0.0,0.0,0.0,0.0,0.0,0.0,0.0,0.0,0.0,0.0,0.0,0.0,0.0,0.0,0.0,0.0,0.0,0.0,0.0,0.0,0.0,0.0,0.0,0.0,0.0,0.0,0.0,0.0,0.0,0.0,0.0,0.0,0.0,0.0,0.0,0.0,0.0,0.0,0.0,0.0,0.0,0.0,0.0,0.0,0.0,0.0,0.0,0.0,0.0,0.0,0.0,0.0,0.0,0.0,0.0,0.0,0.0,0.0,0.0,0.0,0.0,0.0,0.0,0.0,0.0,-0.2955,-0.3113,-0.3394,-0.3796,-0.422,-0.4799,-0.4734,-0.3917,0.0,0.0,0.0,0.0,0.0,0.0,0.0,0.0,0.0,0.0,0.0,0.0,0.0,0.0,0.0,0.0,0.0,0.0,0.0,0.0,0.0,0.0,0.0,0.0,0.0,0.0,0.0,0.0,0.0,0.0,0.0,0.0,0.0,0.0,0.0,0.0,0.0,0.0,0.0,0.0,0.0,0.0,0.0,0.0,0.0,0.0,0.0,0.0,0.0,0.0,0.0,0.0,0.0,0.0,0.0,0.0,0.0,0.0,0.0,0.0,0.0,0.0,0.0,0.0,0.0,0.0,0.0,0.0,0.0,0.0,0.0,0.0,0.0,0.0,0.0,0.0,0.0,0.0,0.0,0.0,0.0,0.0,0.0,0.0,0.0,0.0,0.0,0.0,0.0,0.0,0.0,0.0,0.0,0.0,0.0,0.0,0.0,0.0,0.0,0.0,0.0,0.0,0.0,0.0,-0.2338,-0.3191,-0.3449,-0.3622,-0.3711,-0.4003,-0.384,-0.2978,0.0,0.0,0.0,0.0,0.0,0.0,0.0,0.0,0.0,0.0,0.0,0.0,0.0,0.0,0.0,0.0,0.0,0.0,0.0,0.0,0.0,0.0,0.0,0.0,0.0,0.0,0.0,0.0,0.0,0.0,0.0,0.0,0.0,0.0,0.0,0.0,0.0,0.0,0.0,0.0,0.0,0.0,0.0,0.0,0.0,0.0,0.0,0.0,0.0,0.0,0.0,0.0,0.0,0.0,0.0,0.0,0.0,0.0,0.0,0.0,0.0,0.0,0.0,0.0,0.0,0.0,0.0,0.0,0.0,0.0,0.0,0.0,0.0,0.0,0.0,0.0,0.0,0.0,0.0,0.0,0.0,0.0,0.0,0.0,0.0,0.0,0.0,0.0,0.0,0.0,0.0,0.0,0.0,0.0,0.0,0.0,0.0,0.0,0.0,0.0,0.0,0.0,0.0,-0.2172,-0.2675,-0.3252,-0.3487,-0.3711,-0.4008,-0.4148,-0.3989,-0.3444,-0.3453,0.0,0.0,0.0,0.0,0.0,0.0,0.0,0.0,0.0,0.0,0.0,0.0,0.0,0.0,0.0,0.0,0.0,0.0,0.0,0.0,0.0,0.0,0.0,0.0,0.0,0.0,0.0,0.0,0.0,0.0,0.0,0.0,0.0,0.0,0.0,0.0,0.0,0.0,0.0,0.0,0.0,0.0,0.0,0.0,0.0,0.0,0.0,0.0,0.0,0.0,0.0,0.0,0.0,0.0,0.0,0.0,0.0,0.0,0.0,0.0,0.0,0.0,0.0,0.0,0.0,0.0,0.0,0.0,0.0,0.0,0.0,0.0,0.0,0.0,0.0,0.0,0.0,0.0,0.0,0.0,0.0,0.0,0.0,0.0,0.0,0.0,0.0,0.0,0.0,0.0,0.0,0.0,0.0,0.0,0.0,0.0,0.0,0.0,0.0,0.0,0.0,0.0,-0.2645,-0.3137,-0.3361,-0.351,-0.3751,-0.4176,-0.4191,-0.4077,-0.378,-0.3447,0.0,0.0,0.0,0.0,0.0,0.0,0.0,0.0,0.0,0.0,0.0,0.0,0.0,0.0,0.0,0.0,0.0,0.0,0.0,0.0,0.0,0.0,0.0,0.0,0.0,0.0,0.0,0.0,0.0,0.0,0.0,0.0,0.0,0.0,0.0,0.0,0.0,0.0,0.0,0.0,0.0,0.0,0.0,0.0,0.0,0.0,0.0,0.0,0.0,0.0,0.0,0.0,0.0,0.0,0.0,0.0,0.0,0.0,0.0,0.0,0.0,0.0,0.0,0.0,0.0,0.0,0.0,0.0,0.0,0.0,0.0,0.0,0.0,0.0,0.0,0.0,0.0,0.0,0.0,0.0,0.0,0.0,0.0,0.0,0.0,0.0,0.0,0.0,0.0,0.0,0.0,0.0,0.0,0.0,0.0,0.0,0.0,0.0,0.0,0.0,0.0,0.0,-0.3013,-0.3349,-0.3574,-0.3571,-0.3622,-0.3667,-0.3663,-0.3493,-0.3078,-0.2698,0.0,0.0,0.0,0.0,0.0,0.0,0.0,0.0,0.0,0.0,0.0,0.0,0.0,0.0,0.0,0.0,0.0,0.0,0.0,0.0,0.0,0.0,0.0,0.0,0.0,0.0,0.0,0.0,0.0,0.0,0.0,0.0,0.0,0.0,0.0,0.0,0.0,0.0,0.0,0.0,0.0,0.0,0.0,0.0,0.0,0.0,0.0,0.0,0.0,0.0,0.0,0.0,0.0,0.0,0.0,0.0,0.0,0.0,0.0,0.0,0.0,0.0,0.0,0.0,0.0,0.0,0.0,0.0,0.0,0.0,0.0,0.0,0.0,0.0,0.0,0.0,0.0,0.0,0.0,0.0,0.0,0.0,0.0,0.0,0.0,0.0,0.0,0.0,0.0,0.0,0.0,0.0,0.0,0.0,0.0,0.0,0.0,0.0,0.0,0.0,0.0,0.0,-0.3018,-0.3186,-0.3581,-0.3581,-0.3581,-0.3581,-0.3475,-0.326,-0.2844,0.0,0.0,0.0,0.0,0.0,0.0,0.0,0.0,0.0,0.0,0.0,0.0,0.0,0.0,0.0,0.0,0.0,0.0,0.0,0.0,0.0,0.0,0.0,0.0,0.0,0.0,0.0,0.0,0.0,0.0,0.0,0.0,0.0,0.0,0.0,0.0,0.0,0.0,0.0,0.0,0.0,0.0,0.0,0.0,0.0,0.0,0.0,0.0,0.0,0.0,0.0,0.0,0.0,0.0,0.0,0.0,0.0,0.0,0.0,0.0,0.0,0.0,0.0,0.0,0.0,0.0,0.0,0.0,0.0,0.0,0.0,0.0,0.0,0.0,0.0,0.0,0.0,0.0,0.0,0.0,0.0,0.0,0.0,0.0,0.0,0.0,0.0,0.0,0.0,0.0,0.0,0.0,0.0,0.0,0.0,0.0,0.0,0.0,0.0,0.0,0.0,0.0,-0.2951,-0.3008,-0.313,-0.3537,-0.3581,-0.3581,-0.3581,-0.3396,-0.3176,-0.2904,0.0,0.0,0.0,0.0,0.0,0.0,0.0,0.0,0.0,0.0,0.0,0.0,0.0,0.0,0.0,0.0,0.0,0.0,0.0,0.0,0.0,0.0,0.0,0.0,0.0,0.0,0.0,0.0,0.0,0.0,0.0,0.0,0.0,0.0,0.0,0.0,0.0,0.0,0.0,0.0,0.0,0.0,0.0,0.0,0.0,0.0,0.0,0.0,0.0,0.0,0.0,0.0,0.0,0.0,0.0,0.0,0.0,0.0,0.0,0.0,0.0,0.0,0.0,0.0,0.0,0.0,0.0,0.0,0.0,0.0,0.0,0.0,0.0,0.0,0.0,0.0,0.0,0.0,0.0,0.0,0.0,0.0,0.0,0.0,0.0,0.0,0.0,0.0,0.0,0.0,0.0,0.0,0.0,0.0,0.0,0.0,0.0,0.0,0.0,0.0,0.0,0.0,-0.2929,-0.3097,-0.3239,-0.3548,-0.3581,-0.3581,-0.3581,-0.3414,-0.3314,0.0,0.0,0.0,0.0,0.0,0.0,0.0,0.0,0.0,0.0,0.0,0.0,0.0,0.0,0.0,0.0,0.0,0.0,0.0,0.0,0.0,0.0,0.0,0.0,0.0,0.0,0.0,0.0,0.0,0.0,0.0,0.0,0.0,0.0,0.0,0.0,0.0,0.0,0.0,0.0,0.0,0.0,0.0,0.0,0.0,0.0,0.0,0.0,0.0,0.0,0.0,0.0,0.0,0.0,0.0,0.0,0.0,0.0,0.0,0.0,0.0,0.0,0.0,0.0,0.0,0.0,0.0,0.0,0.0,0.0,0.0,0.0,0.0,0.0,0.0,0.0,0.0,0.0,0.0,0.0,0.0,0.0,0.0,0.0,0.0,0.0,0.0,0.0,0.0,0.0,0.0,0.0,0.0,0.0,0.0,0.0,0.0,0.0,0.0,0.0,0.0,0.0,0.0,-0.2951,-0.3053,-0.3239,-0.3548,-0.3581,-0.3581,-0.3581,-0.3625,-0.3605,-0.3442,0.0,0.0,0.0,0.0,0.0,0.0,0.0,0.0,0.0,0.0,0.0,0.0,0.0,0.0,0.0,0.0,0.0,0.0,0.0,0.0,0.0,0.0,0.0,0.0,0.0,0.0,0.0,0.0,0.0,0.0,0.0,0.0,0.0,0.0,0.0,0.0,0.0,0.0,0.0,0.0,0.0,0.0,0.0,0.0,0.0,0.0,0.0,0.0,0.0,0.0,0.0,0.0,0.0,0.0,0.0,0.0,0.0,0.0,0.0,0.0,0.0,0.0,0.0,0.0,0.0,0.0,0.0,0.0,0.0,0.0,0.0,0.0,0.0,0.0,0.0,0.0,0.0,0.0,0.0,0.0,0.0,0.0,0.0,0.0,0.0,0.0,0.0,0.0,0.0,0.0,0.0,0.0,0.0,0.0,0.0,0.0,0.0,0.0,0.0,0.0,0.0,0.0,-0.2955,-0.3106,-0.3307,-0.3554,-0.3581,-0.3667,-0.388,-0.393,-0.3989,-0.4058,0.0,0.0,0.0,0.0,0.0,0.0,0.0,0.0,0.0,0.0,0.0,0.0,0.0,0.0,0.0,0.0,0.0,0.0,0.0,0.0,0.0,0.0,0.0,0.0,0.0,0.0,0.0,0.0,0.0,0.0,0.0,0.0,0.0,0.0,0.0,0.0,0.0,0.0,0.0,0.0,0.0,0.0,0.0,0.0,0.0,0.0,0.0,0.0,0.0,0.0,0.0,0.0,0.0,0.0,0.0,0.0,0.0,0.0,0.0,0.0,0.0,0.0,0.0,0.0,0.0,0.0,0.0,0.0,0.0,0.0,0.0,0.0,0.0,0.0,0.0,0.0,0.0,0.0,0.0,0.0,0.0,0.0,0.0,0.0,0.0,0.0,0.0,0.0,0.0,0.0,0.0,0.0,0.0,0.0,0.0,0.0,0.0,0.0,0.0,0.0,0.0,0.0,-0.2937,-0.3163,-0.3386,-0.3585,-0.3687,-0.3902,-0.4372,-0.4367,-0.4475,-0.4859,0.0,0.0,0.0,0.0,0.0,0.0,0.0,0.0,0.0,0.0,0.0,0.0,0.0,0.0,0.0,0.0,0.0,0.0,0.0,0.0,0.0,0.0,0.0,0.0,0.0,0.0,0.0,0.0,0.0,0.0,0.0,0.0,0.0,0.0,0.0,0.0,0.0,0.0,0.0,0.0,0.0,0.0,0.0,0.0,0.0,0.0,0.0,0.0,0.0,0.0,0.0,0.0,0.0,0.0,0.0,0.0,0.0,0.0,0.0,0.0,-0.5671,-0.5469,0.0,0.0,0.0,0.0,0.0,0.0,0.0,0.0,0.0,0.0,0.0,0.0,0.0,0.0,0.0,0.0,0.0,0.0,0.0,0.0,0.0,0.0,0.0,0.0,0.0,0.0,0.0,0.0,0.0,0.0,0.0,0.0,0.0,0.0,0.0,0.0,0.0,0.0,0.0,0.0,-0.2728,-0.3217,-0.3588,-0.3731,-0.416,-0.4525,-0.4613,-0.5079,-0.5176,-0.4702,-0.4756,0.0,0.0,0.0,0.0,0.0,0.0,0.0,0.0,0.0,0.0,0.0,0.0,0.0,0.0,0.0,0.0,0.0,0.0,0.0,0.0,0.0,0.0,0.0,0.0,0.0,0.0,0.0,0.0,0.0,0.0,0.0,0.0,0.0,0.0,0.0,0.0,0.0,0.0,0.0,0.0,0.0,0.0,0.0,0.0,0.0,0.0,0.0,0.0,0.0,0.0,0.0,0.0,0.0,0.0,0.0,0.0,0.0,0.0,0.0,-0.7061,-0.6418,0.0,0.0,0.0,0.0,0.0,0.0,0.0,0.0,0.0,0.0,0.0,0.0,0.0,0.0,0.0,0.0,0.0,0.0,0.0,0.0,0.0,0.0,0.0,0.0,0.0,0.0,0.0,0.0,0.0,0.0,0.0,0.0,0.0,0.0,0.0,0.0,0.0,0.0,0.0,0.0,-0.2862,-0.3682,-0.4283,-0.4403,-0.5039,-0.5471,-0.5606,-0.5914,-0.585,-0.5179,-0.509,0.0,0.0,0.0,0.0,0.0,0.0,0.0,0.0,0.0,0.0,0.0,0.0,0.0,0.0,0.0,0.0,0.0,0.0,0.0,0.0,0.0,0.0,0.0,0.0,0.0,0.0,0.0,0.0,0.0,0.0,0.0,0.0,0.0,0.0,0.0,0.0,0.0,0.0,0.0,0.0,0.0,0.0,0.0,0.0,0.0,0.0,0.0,0.0,0.0,0.0,0.0,0.0,0.0,-0.6796,-0.728,-0.8124,-0.8767,-0.9447,-0.998,-0.8873,-0.7867,-0.6948,-0.6667,0.0,0.0,0.0,0.0,0.0,0.0,0.0,0.0,0.0,0.0,0.0,0.0,0.0,0.0,0.0,0.0,0.0,0.0,0.0,0.0,0.0,0.0,-0.7419,-0.6629,-0.7043,-0.7311,-0.6111,0.0,0.0,0.0,0.0,0.0,0.0,0.0,0.0,0.0,0.0,0.0,-0.3278,-0.4399,-0.5205,-0.5323,-0.5977,-0.6486,-0.6713,-0.675,-0.6493,-0.5844,-0.5454,-0.4638,0.0,0.0,0.0,0.0,0.0,0.0,0.0,0.0,0.0,0.0,0.0,0.0,0.0,0.0,0.0,0.0,0.0,0.0,0.0,0.0,0.0,0.0,0.0,0.0,0.0,0.0,0.0,0.0,0.0,0.0,0.0,0.0,-0.5771,-0.665,0.0,0.0,0.0,0.0,0.0,0.0,0.0,0.0,0.0,0.0,0.0,0.0,0.0,-0.7036,-0.755,-0.8055,-0.8501,-0.8784,-0.9097,-0.9688,-1.0464,-1.0574,-1.1013,-1.1759,-1.1585,0.0,-1.0007,-0.9955,0.0,0.0,0.0,0.0,0.0,0.0,0.0,0.0,0.0,0.0,0.0,0.0,0.0,0.0,0.0,0.0,0.0,0.0,0.0,0.0,0.0,0.0,-0.7629,-0.7381,-0.7839,-0.821,-0.8056,-0.7121,-0.6135,-0.5277,-0.5123,-0.4689,0.0,0.0,0.0,0.0,0.0,0.0,-0.4213,-0.5404,-0.6228,-0.6207,-0.6777,-0.717,-0.7191,-0.7295,-0.7057,-0.6355,-0.5968,-0.5161,-0.3782,-0.421,0.0,0.0,0.0,0.0,0.0,0.0,0.0,0.0,0.0,0.0,0.0,0.0,0.0,0.0,0.0,0.0,0.0,0.0,0.0,0.0,0.0,0.0,0.0,0.0,0.0,0.0,0.0,0.0,0.0,-0.5576,-0.666,-0.7051,-0.7129,-0.7005,0.0,0.0,0.0,0.0,0.0,0.0,0.0,0.0,0.0,-0.7575,-0.8029,-0.8477,-0.8911,-0.9172,-0.9446,-0.974,-1.0552,-1.1269,-1.1752,-1.2972,-1.3674,-1.4056,-1.4496,-1.4301,-1.3561,-1.1904,-1.0687,-0.9755,0.0,0.0,0.0,0.0,-0.6984,-0.6775,-0.7532,-0.7643,-0.7459,-0.7147,0.0,0.0,0.0,0.0,0.0,0.0,0.0,-0.6854,-0.7473,-0.8081,-0.8517,-0.8451,-0.8639,-0.8818,-0.8651,-0.8203,-0.7516,-0.6467,-0.6422,-0.6041,-0.4424,-0.4432,0.0,0.0,0.0,-0.5136,-0.5395,-0.6374,-0.7172,-0.7656,-0.8307,-0.8816,-0.9025,-0.8558,-0.793,-0.7131,-0.635,-0.5491,-0.4567,-0.4459,-0.4102,0.0,0.0,0.0,0.0,0.0,0.0,0.0,0.0,0.0,0.0,0.0,0.0,0.0,0.0,0.0,0.0,0.0,0.0,0.0,0.0,0.0,0.0,0.0,0.0,0.0,0.0,0.0,0.0,-0.6592,-0.751,-0.7725,-0.8238,-0.8363,0.0,0.0,0.0,0.0,0.0,0.0,-0.7177,-0.7642,-0.8196,-0.8804,-0.9312,-0.9719,-1.0013,-1.0094,-1.0356,-1.0822,-1.1788,-1.26,-1.3244,-1.4801,-1.5588,-1.5854,-1.6465,-1.6543,-1.6062,-1.3791,-1.252,-1.1922,-1.1137,-1.0407,-0.9771,-0.9788,-0.9461,-0.9116,-0.9798,-0.9868,-0.9549,-0.8957,-0.851,-0.8094,-0.7468,0.0,0.0,0.0,0.0,-0.7833,-0.8605,-0.9213,-0.9674,-0.9896,-0.9785,-0.9535,-0.9293,-0.9071,-0.8611,-0.7569,-0.7548,-0.7207,-0.5602,-0.5695,0.0,-0.5308,-0.5861,-0.6513,-0.6996,-0.7791,-0.8561,-0.9179,-0.974,-1.0167,-1.049,-0.9763,-0.8944,-0.8178,-0.7272,-0.6463,-0.5815,-0.5281,-0.4885,-0.4591,0.0,0.0,0.0,0.0,0.0,0.0,0.0,0.0,0.0,0.0,0.0,0.0,0.0,0.0,0.0,0.0,0.0,0.0,0.0,0.0,0.0,0.0,0.0,0.0,0.0,0.0,0.0,0.0,0.0,-0.9369,-0.9903,0.0,0.0,0.0,0.0,-0.8041,-0.7905,-0.809,-0.8664,-0.8985,-0.9362,-1.0013,-1.0334,-1.0635,-1.0922,-1.1202,-1.1817,-1.2773,-1.2788,-1.3711,-1.5359,-1.5441,-1.5927,-1.6665,-1.6665,-1.6719,-1.666,-1.6082,-1.5248,-1.4205,-1.4187,-1.3747,-1.3101,-1.2739,-1.2555,-1.2373,-1.1226,-1.0835,-1.0706,-0.9907,-0.9412,-0.911,-0.9064,-0.8606,0.0,0.0,-0.8777,-0.8881,-1.0386,-1.0805,-1.0989,-1.1783,-1.1391,-1.0729,-1.0461,-0.9748,-0.9038,-0.8424,-0.8317,-0.8019,-0.6871,0.0,-0.6791,-0.6843,-0.7615,-0.8457,-0.9227,-1.0087,-1.0637,-1.0712,-1.0712,-1.0754,-1.0788,-1.0515,-1.0103,-0.9641,-0.9316,-0.8677,-0.7699,-0.7405,-0.6716,-0.5637,-0.5016,0.0,0.0,0.0,0.0,0.0,0.0,0.0,0.0,0.0,0.0,0.0,0.0,0.0,0.0,0.0,0.0,0.0,0.0,0.0,0.0,0.0,0.0,0.0,0.0,0.0,0.0,0.0,0.0,-1.042,-1.1344,0.0,-1.1185,-1.0919,-1.0611,-1.0164,-0.9895,-0.9707,-0.9626,-0.9927,-1.0274,-1.0668,-1.0962,-1.1169,-1.1269,-1.1376,-1.1998,-1.3156,-1.3758,-1.4816,-1.6211,-1.6844,-1.7273,-1.7559,-1.7559,-1.7559,-1.7539,-1.7383,-1.6767,-1.5818,-1.5293,-1.4962,-1.4701,-1.3996,-1.3386,-1.2805,-1.2363,-1.1752,-1.1141,-1.0708,-1.0327,-1.0053,-0.986,-0.9623,-0.9446,-0.9682,-1.0037,-1.0495,-1.1301,-1.184,-1.226,-1.239,-1.1747,-1.1068,-1.0801,-1.0509,-1.0059,-0.9363,-0.8911,-0.8558,-0.8217,-0.8475,-0.874,-0.8868,-0.947,-1.0024,-1.0284,-1.0622,-1.0965,-1.1416,-1.1466,-1.1625,-1.2107,-1.1472,-1.088,-1.0445,-0.9717,-0.9038,-0.8423,-0.7756,-0.713,-0.6548,-0.5605,-0.4655,0.0,0.0,0.0,0.0,0.0,0.0,0.0,0.0,0.0,0.0,0.0,0.0,0.0,0.0,0.0,0.0,0.0,0.0,0.0,0.0,0.0,0.0,0.0,0.0,0.0,-1.062,-1.1459,-1.1341,-1.251,-1.3135,-1.2705,-1.2573,-1.2377,-1.1847,-1.1341,-1.0905,-1.0534,-1.0748,-1.0989,-1.1276,-1.1476,-1.1756,-1.22,-1.2207,-1.2921,-1.4391,-1.5076,-1.6033,-1.7274,-1.7927,-1.8301,-1.8437,-1.8437,-1.8437,-1.8437,-1.8437,-1.8105,-1.7502,-1.6647,-1.6131,-1.5764,-1.5103,-1.4263,-1.339,-1.2946,-1.2173,-1.1396,-1.1202,-1.1009,-1.088,-1.0995,-1.1059,-1.1122,-1.1421,-1.1903,-1.2436,-1.2915,-1.3327,-1.3683,-1.3731,-1.3017,-1.2118,-1.1603,-1.1475,-1.1214,-1.0264,-0.9799,-0.9457,-0.9375,-0.9694,-1.01,-1.0471,-1.0899,-1.1216,-1.1484,-1.1484,-1.1683,-1.2138,-1.2187,-1.2344,-1.2881,-1.212,-1.1565,-1.1294,-1.0353,-0.9646,-0.9195,-0.8221,-0.7454,-0.7006,-0.5765,-0.4796,-0.414,0.0,0.0,0.0,0.0,0.0,0.0,0.0,0.0,0.0,0.0,0.0,0.0,0.0,0.0,0.0,0.0,0.0,0.0,0.0,0.0,0.0,0.0,0.0,-1.0609,-1.1675,-1.2461,-1.2283,-1.3348,-1.3951,-1.3603,-1.3299,-1.3072,-1.2931,-1.2236,-1.171,-1.1471,-1.1436,-1.1583,-1.1891,-1.1968,-1.2527,-1.3702,-1.3775,-1.476,-1.6673,-1.6673,-1.7311,-1.8652,-1.8652,-1.8887,-1.9287,-1.9287,-1.9287,-1.9287,-1.9287,-1.9287,-1.9209,-1.8379,-1.7461,-1.6609,-1.6143,-1.5384,-1.438,-1.3187,-1.2201,-1.1518,-1.1518,-1.1518,-1.1724,-1.2661,-1.2931,-1.3124,-1.4024,-1.4345,-1.4541,-1.5321,-1.5232,-1.5136,-1.5943,-1.5125,-1.3945,-1.2865,-1.2672,-1.2323,-1.1168,-1.0994,-1.088,-1.0436,-1.0376,-1.0737,-1.1696,-1.1832,0.0,-1.2832,-1.2881,-1.2881,-1.2881,-1.2881,-1.2881,-1.2881,-1.249,-1.219,-1.2161,-1.1353,-1.0669,-1.0107,-0.8875,-0.7816,-0.7029,-0.5582,-0.4694,-0.4469,0.0,0.0,0.0,0.0,0.0,0.0,0.0,0.0,0.0,0.0,0.0,0.0,0.0,0.0,0.0,0.0,0.0,0.0,0.0,0.0,0.0,-1.259,-1.3518,-1.2864,-1.3082,-1.3385,-1.3576,-1.365,-1.4054,-1.4807,-1.4019,-1.3838,-1.4709,-1.3404,-1.2617,-1.2757,-1.2158,-1.1984,-1.2567,-1.3312,-1.3977,-1.4524,-1.5265,-1.6311,-1.7524,-1.7524,-1.8098,-1.9111,-1.9111,-1.918,-1.9287,-1.9287,-1.9287,-1.9287,-1.9287,-1.9287,-1.9268,-1.9023,-1.8598,-1.8008,-1.7884,-1.7084,-1.5904,-1.4829,-1.4377,-1.4167,-1.4167,-1.4167,-1.419,-1.4211,-1.4198,-1.4217,-1.4288,-1.4737,-1.5192,-1.545,-1.5843,-1.6206,-1.6143,-1.5411,-1.4529,-1.3895,-1.3756,-1.3483,-1.2609,-1.2873,-1.3079,-1.2431,-1.2318,-1.2511,-1.2963,-1.3008,-1.3003,-1.292,-1.2881,-1.2881,-1.2881,-1.2881,-1.2881,-1.2881,-1.2773,-1.2281,-1.123,-1.0978,-1.0406,-0.9435,-0.8486,-0.7763,-0.7296,-0.6082,-0.5619,0.0,0.0,0.0,0.0,0.0,0.0,0.0,0.0,0.0,0.0,0.0,0.0,0.0,0.0,0.0,0.0,0.0,0.0,0.0,0.0,0.0,0.0,-1.2971,-1.3747,-1.4007,-1.3992,-1.3955,-1.3891,-1.3665,-1.3965,-1.5109,-1.4684,-1.4684,-1.5593,-1.4371,-1.3531,-1.3446,-1.2739,-1.2466,-1.2808,-1.3918,-1.4828,-1.5396,-1.6464,-1.7534,-1.8461,-1.8461,-1.8851,-1.9551,-1.9551,-1.9648,-1.9824,-1.9824,-1.9824,-1.9824,-1.9824,-1.9824,-1.9785,0.0,0.0,0.0,0.0,-1.6938,-1.6147,-1.5426,-1.5234,-1.5234,-1.5234,-1.5234,-1.5263,-1.5463,-1.5532,-1.5557,-1.5753,-1.6166,-1.6572,-1.6572,-1.6795,-1.6934,-1.668,-1.6153,-1.5461,-1.4669,-1.4768,-1.4713,-1.37,-1.4145,0.0,-1.412,-1.3616,-1.3424,-1.3723,-1.3623,-1.3418,-1.3174,-1.2988,-1.2881,-1.2881,-1.2881,-1.2881,-1.2881,-1.2455,0.0,0.0,0.0,-0.9739,-0.8632,-0.8135,0.0,0.0,0.0,0.0,0.0,-0.7297,0.0,0.0,-0.5581,-0.5411,0.0,0.0,0.0,0.0,0.0,0.0,0.0,0.0,0.0,0.0,0.0,0.0,0.0,0.0,0.0,0.0,-1.2662,-1.2921,-1.4128,-1.4279,-1.409,-1.3638,-1.3437,-1.3747,-1.4747,-1.5058,-1.5432,-1.586,-1.5078,-1.4409,-1.3835,-1.3318,0.0,0.0,0.0,-1.5628,-1.6496,-1.7667,-1.8592,-1.9434,-1.9434,-1.9629,-1.999,-1.999,-2.0195,-2.0566,-2.0566,-2.0566,-2.0566,-2.0566,-2.0566,-2.0488,-1.9678,-1.8832,-1.7952,-1.6638,-1.6198,-1.6147,-1.5753,0.0,0.0,-1.5644,-1.5644,-1.5777,-1.6578,-1.6848,-1.6978,-1.7803,-1.8008,-1.8008,-1.8008,-1.7734,-1.7441,-1.7393,-1.709,-1.649,-1.5346,-1.5657,-1.5756,-1.4648,-1.4961,-1.541,-1.541,-1.4514,-1.3904,-1.416,-1.3896,-1.3613,-1.3516,-1.3184,-1.293,-1.2774,-1.2774,0.0,-1.2676,-1.1766,-1.1234,-1.1527,-1.0153,-0.8927,-0.7928,-0.802,-0.8002,-0.7858,-0.8312,-0.8907,-0.9658,-0.9486,-0.9139,-0.8511,-0.6824,-0.6294,0.0,0.0,0.0,0.0,0.0,0.0,0.0,0.0,0.0,0.0,0.0,0.0,0.0,0.0,0.0,-1.2459,-1.2837,-1.3111,-1.3101,-1.287,-1.2869,-1.3393,-1.3081,-1.331,-1.4446,-1.474,-1.5059,-1.5652,-1.5485,-1.5136,-1.4439,-1.4443,-1.4521,-1.4786,-1.6727,-1.8002,-1.8478,-1.9521,-2.0159,-2.0312,-2.0312,0.0,-2.0439,-2.0439,-2.0488,-2.0566,-2.0566,-2.0566,-2.0566,-2.0566,-2.0566,-2.0518,-2.0,-1.9635,-1.9428,-1.8858,-1.8632,-1.8623,-1.8537,-1.8518,-1.8518,-1.8518,-1.8518,-1.8451,-1.8251,-1.8216,0.0,-1.8037,-1.8008,-1.8008,-1.8008,-1.7949,-1.7803,-1.7461,-1.7314,-1.7074,-1.65,-1.6195,-1.6035,-1.5766,-1.5526,-1.541,-1.541,-1.5226,-1.4965,-1.4717,-1.459,-1.4287,-1.3594,-1.3437,-1.3032,-1.2107,-1.2021,-1.1774,-1.1275,-1.1006,-1.0573,-0.9919,-0.9067,-0.8414,-0.7915,-0.8681,-0.9167,-0.9302,-0.9514,-0.9934,-1.0543,-0.9505,-0.8967,-0.8822,-0.8431,-0.7938,0.0,0.0,0.0,0.0,0.0,0.0,0.0,0.0,0.0,0.0,0.0,-1.1762,-1.1889,0.0,-1.2664,-1.244,-1.2444,-1.2458,-1.2469,-1.2248,-1.2296,-1.3003,-1.2616,-1.2742,-1.3785,-1.4088,-1.4617,-1.5512,-1.5184,-1.4818,-1.4624,-1.4881,-1.5125,-1.529,-1.7525,-1.8837,-1.9036,-2.0079,-2.0566,-2.0566,-2.0566,-2.0566,-2.0566,-2.0566,-2.0566,-2.0566,-2.0566,-2.0566,-2.0566,-2.0566,-2.0566,-2.0547,-2.0322,-2.0244,-2.0185,-1.9756,-1.96,-1.957,-1.9365,-1.9287,-1.9287,-1.9287,-1.9287,-1.9248,-1.9023,-1.8809,-1.8594,-1.8379,-1.8174,-1.8008,-1.8008,-1.8008,-1.7959,-1.7744,-1.7695,-1.7578,-1.7148,-1.6875,-1.6592,-1.6213,-1.5889,-1.5664,-1.5449,-1.541,-1.5342,-1.5127,-1.4922,-1.4518,-1.365,-1.3237,-1.2623,-1.1627,-1.1378,-1.1166,-1.0813,-1.0517,-0.9944,-0.914,-0.8789,-0.8602,-0.8629,-0.9392,-1.0059,-1.0525,-1.0857,-1.114,-1.1284,-1.066,-0.9987,-0.9377,-0.9377,-0.8866,0.0,0.0,0.0,0.0,0.0,0.0,0.0,-1.0023,-1.0794,-1.1449,-1.2404,-1.3003,-1.2597,-1.2698,-1.2735,-1.2289,-1.1844,-1.1631,-1.2073,-1.1971,-1.2086,-1.2586,-1.2227,-1.2237,-1.3004,-1.3452,-1.4122,-1.5032,-1.4629,-1.4355,-1.451,-1.5245,-1.571,-1.571,-1.8065,-1.9274,-1.9274,-2.0167,-2.0566,-2.0566,-2.0566,-2.0566,-2.0566,-2.0566,-2.0566,-2.0566,-2.0566,-2.0566,-2.0566,-2.0566,-2.0566,-2.0566,-2.0566,-2.0566,-2.0518,-2.0166,-2.0039,-1.999,-1.9648,-1.9541,-1.9541,-1.9541,-1.9541,-1.9521,-1.9434,-1.916,-1.8848,-1.8682,-1.8389,-1.8115,-1.8037,-1.8008,-1.8008,-1.8008,-1.8008,-1.792,-1.7578,-1.7441,-1.7168,-1.6455,-1.6243,-1.5947,-1.5596,-1.5469,-1.541,-1.541,-1.5117,-1.4591,-1.3702,-1.3077,-1.2299,-1.1223,-1.0842,-1.064,-1.0423,-0.9917,-0.9361,-0.8857,-0.891,-0.9151,-0.949,-1.0148,-1.0819,-1.1497,-1.2053,-1.2168,-1.1814,-1.1665,-1.0965,-0.9814,-0.9666,-0.9174,-0.8127,-0.8503,-0.9008,-0.9761,-0.9703,-1.0041,0.0,-1.2422,-1.2312,-1.3508,-1.3873,-1.3753,-1.2986,-1.2655,-1.2297,-1.1783,-1.1312,-1.1269,-1.183,-1.1895,-1.2022,-1.2324,-1.2304,-1.2325,-1.2398,-1.3222,-1.3644,-1.3498,-1.4144,-1.4403,-1.4198,-1.6039,-1.7114,-1.7114,-1.9246,-2.0401,-2.0401,-2.0566,-2.0566,-2.0566,-2.0566,-2.0566,-2.0566,-2.0566,-2.0566,-2.0566,-2.0566,-2.0566,-2.0566,-2.0566,-2.0566,-2.0566,-2.0566,-2.0566,-2.0557,-2.0508,-2.0498,-2.0488,-2.0439,-2.042,-2.042,-2.042,-2.042,-2.0352,-1.9961,-1.9814,-1.9609,-1.8848,-1.8603,-1.8486,-1.8105,-1.8008,-1.8008,-1.8008,-1.8008,-1.7998,-1.7949,-1.7646,-1.7353,-1.7256,-1.6602,-1.6105,-1.6056,-1.5664,-1.541,-1.541,-1.5371,-1.4907,-1.3729,-1.3555,-1.272,-1.0639,-1.0385,-0.9982,-0.9081,-0.8956,-0.8857,-0.8811,-0.9361,-0.9695,-0.9761,-1.0956,-1.1653,-1.1751,-1.2434,-1.2463,-1.1814,-1.1216,-1.0517,-0.9762,-0.9211,-0.8844,-0.9795,-0.9551,-0.9408,-1.0809,-1.1222,-1.1696,-1.3161,-1.3418,-1.3435,-1.397,-1.4336,-1.4117,-1.2811,-1.2722,-1.2417,-1.1383,-1.1247,-1.139,-1.181,-1.187,-1.1911,-1.2037,-1.2051,-1.2118,-1.2285,-1.2666,-1.2995,-1.3166,-1.3588,-1.4163,-1.5025,-1.6445,-1.7585,-1.831,-1.9756,-2.0566,-2.0566,-2.0566,-2.0566,-2.0566,-2.0566,-2.0566,-2.0566,-2.0566,-2.0713,-2.0957,-2.0957,-2.0957,-2.0937,-2.0674,-2.0566,-2.0566,-2.0566,-2.0566,-2.0566,-2.0566,-2.0566,-2.0566,-2.0566,-2.0566,-2.0566,-2.0566,-2.0566,-2.0527,-2.0352,-2.0117,-1.9785,-1.918,-1.8828,-1.8545,-1.8115,-1.8008,-1.8008,-1.8008,-1.8008,-1.8008,-1.8008,-1.7871,-1.7676,-1.7432,-1.6875,-1.6367,-1.6164,-1.5703,-1.541,-1.541,-1.541,-1.4866,-1.3457,-1.3132,-1.2217,-1.0151,-1.0159,-1.0154,-0.9699,-0.9874,-0.9969,-0.9969,-1.0218,-1.0568,-1.0965,-1.1516,-1.1972,-1.2452,-1.2725,-1.2353,-1.1216,-1.0965,-1.0261,-0.9211,-0.8903,-0.8804,-1.077,-1.0436,-1.026,-1.1713,-1.2536,-1.3128,-1.3723,-1.4092,-1.4346,-1.4463,-1.4736,-1.4487,-1.2856,-1.2775,-1.2601,-1.1306,-1.1289,-1.1557,-1.1937,-1.1917,-1.1897,-1.1977,-1.1917,-1.1984,-1.2271,-1.2305,-1.2559,-1.316,-1.3437,-1.4236,-1.5666,-1.7009,-1.8149,-1.8957,-2.0001,-2.0566,-2.0566,-2.0566,-2.0566,-2.0566,-2.0566,-2.0566,-2.0566,-2.0566,-2.0879,-2.1396,-2.1152,-2.1123,-2.1201,-2.0752,-2.0566,-2.0566,-2.0566,-2.0566,-2.0566,-2.0566,-2.0566,-2.0566,-2.0566,-2.0566,-2.0566,-2.0566,-2.0566,-2.0566,-2.0566,-2.0342,-2.001,-1.958,-1.915,-1.8721,-1.8291,-1.8096,-1.8008,-1.8008,-1.8008,-1.8008,-1.8008,-1.8008,-1.792,-1.7617,-1.7207,-1.6768,-1.6328,-1.5879,-1.5547,-1.543,-1.541,-1.4874,-1.3494,-1.2873,-1.2083,-1.0625,-1.0699,-1.0732,-1.0632,-1.0866,-1.092,-1.0821,-1.0965,-1.1316,-1.1765,-1.1972,-1.2344,-1.2881,-1.2881,-1.2206,-1.0813,-1.0813,-1.0115,-0.8804,-0.8804,-0.8804,-1.0427,-1.1095,-1.2061,-1.2715,-1.3455,-1.4175,-1.4648,-1.4756,-1.4883,-1.5293,-1.5381,-1.4914,-1.3295,-1.3,-1.268,-1.158,-1.1416,-1.1623,-1.2204,-1.2044,-1.1977,-1.2258,-1.2037,-1.1984,-1.2271,-1.2305,-1.2559,-1.316,-1.4194,-1.5008,-1.5666,-1.7738,-1.8957,-1.9036,-2.0001,-2.0566,-2.0566,-2.0566,-2.0566,-2.0566,-2.0566,-2.0566,-2.0566,-2.0566,-2.1045,-2.1816,-2.0957,-2.083,-2.1201,-2.0752,-2.0566,-2.0566,-2.0566,-2.0566,-2.0566,-2.0566,-2.0566,-2.0566,-2.0566,-2.0566,-2.0566,-2.0566,-2.0566,-2.0566,-2.0566,-2.0557,-2.0449,-2.0019,-1.959,-1.917,-1.873,-1.832,-1.8008,-1.8008,-1.8008,-1.8008,-1.8008,-1.8008,-1.8008,-1.7988,-1.7656,-1.7227,-1.6787,-1.6338,-1.5898,-1.5478,-1.541,-1.5108,-1.4264,-1.3227,-1.2589,-1.2522,-1.2247,-1.1872,-1.1497,-1.1456,-1.1297,-1.0838,-1.1408,-1.1765,-1.1814,-1.2501,-1.2881,-1.2881,-1.2881,-1.2206,-1.0813,-1.0813,-1.0115,-0.8804,-0.8804,-0.8804,-1.2039,-1.2243,-1.2351,-1.382,-1.4355,-1.4678,-1.5107,-1.5205,-1.5156,-1.5029,-1.5,-1.444,-1.2603,-1.2422,-1.2287,-1.13,-1.1296,-1.163,-1.2218,-1.2051,-1.1904,-1.2004,-1.1924,-1.2189,-1.292,-1.2549,-1.2559,-1.316,-1.4194,-1.5395,-1.6724,-1.8149,-1.9362,-2.0001,-2.0401,-2.0566,-2.0566,-2.0566,-2.0566,-2.0566,-2.0566,-2.0723,-2.1016,-2.1016,-2.1484,-2.2256,-2.1387,-2.126,-2.1611,-2.0869,-2.0566,-2.0566,-2.0566,-2.0566,-2.0566,-2.0566,-2.0566,-2.0566,-2.0566,-2.0566,-2.0566,-2.0566,-2.0566,-2.0566,-2.0566,-2.0566,-2.0478,-2.0039,-1.9609,-1.9189,-1.875,-1.832,-1.8008,-1.8008,-1.8008,-1.8008,-1.8008,-1.8008,-1.8008,-1.8008,-1.7666,-1.7334,-1.7187,-1.6553,-1.5918,-1.5478,-1.4932,-1.451,-1.4204,-1.3442,-1.2895,-1.2895,-1.3029,-1.3028,-1.2896,-1.285,-1.2753,-1.2605,-1.2553,-1.255,-1.255,-1.2774,-1.2881,-1.2881,-1.2881,-1.2206,-1.0813,-1.0813,-1.0115,-0.8804,-0.8804,-0.8804,-1.2821,-1.2878,-1.2865,-1.4431,-1.4902,-1.5078,-1.5352,-1.5293,-1.5107,-1.4844,-1.4658,-1.4005,-1.2214,-1.227,-1.2279,-1.1425,-1.1723,-1.2344,-1.2971,-1.2962,-1.2989,-1.3287,-1.3214,-1.3513,-1.4322,-1.4028,-1.3885,-1.4236,-1.5444,-1.662,-1.7874,-1.8957,-1.9923,-2.0566,-2.0566,-2.0566,-2.0566,-2.0723,-2.0879,-2.1035,-2.1035,-2.1269,-2.1689,-2.1533,-2.1934,-2.2685,-2.167,-2.1484,-2.1816,-2.0928,-2.0566,-2.0566,-2.0566,-2.0566,-2.0566,-2.0566,-2.0566,-2.0566,-2.0566,-2.0566,-2.0566,-2.0566,-2.0566,-2.0566,-2.0566,-2.0566,-2.0508,-2.0225,-1.9834,-1.9443,-1.917,-1.8662,-1.8232,-1.8232,-1.8115,-1.8008,-1.8008,-1.8008,-1.8008,-1.8008,-1.7793,-1.7559,-1.7412,-1.665,-1.6027,-1.5684,-1.5086,-1.4628,-1.4628,-1.4213,-1.3846,-1.3846,-1.4329,-1.4573,-1.441,-1.4399,-1.4294,-1.4133,-1.3481,-1.3105,-1.3105,-1.2959,-1.2881,-1.2881,-1.2881,-1.2304,-1.1166,-1.0914,-1.021,-0.9159,-0.891,-0.8804,-1.2802,-1.3195,-1.3606,-1.4596,-1.5117,-1.54,-1.5381,-1.5068,-1.4766,-1.4753,-1.4355,-1.3607,-1.2125,-1.2396,-1.2625,-1.192,-1.2727,-1.368,-1.4443,-1.4712,-1.5055,-1.5746,-1.569,-1.5766,-1.6388,-1.6464,-1.6472,-1.6405,-1.767,-1.8611,-1.9018,-2.0001,-2.0566,-2.0566,-2.0566,-2.0576,-2.0596,-2.1045,-2.1475,-2.1885,-2.1885,-2.2109,-2.25,-2.208,-2.2344,-2.3066,-2.1787,-2.1484,-2.1816,-2.0928,-2.0566,-2.0566,-2.0566,-2.0566,-2.0566,-2.0566,-2.0566,-2.0566,-2.0566,-2.0566,-2.0566,-2.0566,-2.0566,-2.0566,-2.0566,-2.0566,-2.0566,-2.0566,-2.0254,-1.9912,-1.9912,-1.9277,-1.8562,-1.8562,-1.832,-1.8008,-1.8008,-1.8008,-1.8008,-1.8008,-1.8008,-1.7881,-1.7461,-1.6689,-1.6174,-1.6135,-1.5703,-1.5439,-1.541,-1.541,-1.541,-1.5468,-1.6093,-1.636,-1.6018,-1.5954,-1.569,-1.5247,-1.4164,-1.3545,-1.3545,-1.3154,-1.293,-1.291,-1.291,-1.2578,-1.1814,-1.1116,-1.0466,-0.9762,-0.9106,-0.8804,-1.4043,-1.4344,-1.455,-1.5089,-1.5332,-1.5438,-1.5563,-1.5189,-1.4666,-1.4174,-1.3601,-1.2742,-1.122,-1.1793,-1.2269,-1.1817,-1.2989,-1.4279,-1.5286,-1.612,-1.6696,-1.6759,-1.709,-1.7313,-1.7516,-1.7801,-1.8276,-1.8892,-1.8681,-1.8611,-1.9018,-2.0001,-2.0566,-2.0566,-2.0566,-2.0723,-2.1064,-2.1504,-2.1777,-2.1885,-2.1885,-2.2109,-2.25,-2.208,-2.2344,-2.3066,-2.1787,-2.1484,-2.1816,-2.0928,-2.0566,-2.0566,-2.0566,-2.0566,-2.0566,-2.0566,-2.0566,-2.0566,-2.0566,-2.0566,-2.0566,-2.0566,-2.0566,-2.0566,-2.0566,-2.0566,-2.0566,-2.0566,-2.0254,-1.9912,-1.9912,-1.9277,-1.8562,-1.8562,-1.832,-1.8008,-1.8008,-1.8008,-1.8008,-1.8008,-1.8008,-1.7881,-1.7461,-1.7197,-1.6826,-1.6223,-1.6027,-1.5781,-1.5449,-1.541,-1.5584,-1.6151,-1.6379,-1.6655,-1.7126,-1.6407,-1.5827,-1.5711,-1.4616,-1.3975,-1.3975,-1.3877,-1.3662,-1.335,-1.335,-1.2864,-1.1814,-1.1116,-1.0466,-0.9762,-0.9106,-0.8804,-1.4541,-1.4922,-1.5117,-1.5352,-1.5273,-1.5189,-1.5344,-1.4775,-1.4124,-1.3549,-1.317,-1.2408,-1.0563,-1.1555,-1.2532,-1.2287,-1.3905,-1.5694,-1.709,-1.8348,-1.8974,-1.8679,-1.9078,-1.9374,-1.9118,-1.9277,-1.9649,-2.0195,-1.9726,-1.9512,-1.9668,-2.0245,-2.0566,-2.0566,-2.0752,-2.1382,-2.2493,-2.3216,-2.369,-2.3898,-2.3898,-2.4023,-2.4263,-2.3512,-2.3422,-2.375,-2.2335,-2.1836,-2.1836,-2.1143,-2.0742,-2.0566,-2.0566,-2.0566,-2.0566,-2.0566,-2.0566,-2.0566,-2.0566,-2.0566,-2.0566,-2.0566,-2.0566,-2.0566,-2.0566,-2.0566,-2.0566,-2.0566,-2.0391,-2.0195,-2.0195,-1.9561,-1.8926,-1.8926,-1.8457,-1.8008,-1.8008,-1.8008,-1.8008,-1.8008,-1.8008,-1.7939,-1.7695,-1.75,-1.7217,-1.6719,-1.637,-1.5977,-1.5732,-1.5527,-1.569,-1.6436,-1.6821,-1.7146,-1.7578,-1.6687,-1.5977,-1.5644,-1.4499,-1.3857,-1.3857,-1.4013,-1.397,-1.3789,-1.3603,-1.3176,-1.2557,-1.1352,-1.0618,-1.0218,-0.9263,-0.8878,-1.4736,-1.5127,-1.541,-1.541,-1.5098,-1.4814,-1.4945,-1.4179,-1.3376,-1.2951,-1.2759,-1.212,-1.0293,-1.1561,-1.2941,-1.3104,-1.5123,-1.7272,-1.9025,-2.0579,-2.1364,-2.0822,-2.1341,-2.1385,-2.0672,-2.0566,-2.0566,-2.0566,-2.0566,-2.0566,-2.0566,-2.0566,-2.0664,-2.0878,-2.1313,-2.2484,-2.4352,-2.5396,-2.6127,-2.6483,-2.6483,-2.6483,-2.6483,-2.5294,-2.4787,-2.4681,-2.3178,-2.2275,-2.1846,-2.1416,-2.0967,-2.0566,-2.0566,-2.0566,-2.0566,-2.0566,-2.0566,-2.0566,-2.0566,-2.0566,-2.0566,-2.0566,-2.0566,-2.0566,-2.0566,-2.0566,-2.0566,-2.0566,-2.0566,-2.0566,-2.0566,-1.9932,-1.9287,-1.9287,-1.8633,-1.8008,-1.8008,-1.8008,-1.8008,-1.8008,-1.8008,-1.8008,-1.8008,-1.7705,-1.7451,-1.7393,-1.668,-1.6133,-1.6135,-1.5684,-1.569,-1.6436,-1.6968,-1.7335,-1.7446,-1.6613,-1.58,-1.5177,-1.4209,-1.3651,-1.3651,-1.4052,-1.4223,-1.4165,-1.3867,-1.3591,-1.343,-1.1739,-1.0886,-1.0683,-0.9468,-0.9038,-1.5088,-1.5352,-1.541,-1.541,-1.5098,-1.4845,-1.5078,-1.4026,0.0,-1.2617,-1.1782,-1.1006,-1.0772,-1.1594,-1.2791,-1.4156,-1.5636,-1.7444,-1.9865,-2.1478,-2.2252,-2.1716,-2.2557,-2.2467,-2.0779,-2.0566,-2.0566,-2.0566,-2.0566,-2.0566,-2.0566,-2.0566,-2.1181,-2.246,-2.2918,-2.3881,-2.548,-2.6065,-2.6393,-2.6483,-2.6483,-2.6483,-2.6483,-2.5294,-2.4787,-2.4681,-2.3178,-2.2275,-2.1846,-2.1416,-2.0967,-2.0566,-2.0566,-2.0566,-2.0566,-2.0566,-2.0566,-2.0566,-2.0566,-2.0566,-2.0566,-2.0566,-2.0566,-2.0566,-2.0566,-2.0566,-2.0566,-2.0566,-2.0566,-2.0566,-2.0566,-1.9932,-1.9287,-1.9287,-1.8633,-1.8008,-1.8008,-1.8008,-1.8008,-1.8008,-1.8008,-1.8008,-1.8008,-1.7949,-1.7783,-1.7432,-1.6943,-1.6484,-1.6113,-1.5684,-1.569,-1.6436,-1.6032,-1.5934,-1.6557,-1.5321,-1.4458,-1.4341,-1.4164,-1.4114,-1.4114,-1.4811,-1.5029,-1.4678,-1.46,-1.4048,-1.2987,-1.2129,-1.1231,-1.0386,-0.9799,-0.9426,-1.4912,-1.5244,-1.541,-1.541,-1.4922,-1.4477,-1.4693,0.0,0.0,-1.2089,-1.1583,-1.097,-1.0248,-1.1297,-1.2643,-1.3883,-1.5453,-1.7459,-2.0153,-2.126,-2.1841,-2.1866,-2.2199,-2.1924,-2.0692,-2.0566,-2.0566,-2.0566,-2.1078,-2.1298,-2.1298,-2.1821,-2.2668,-2.3928,-2.4704,-2.5734,-2.6989,-2.7829,-2.8211,-2.8211,-2.8211,-2.8211,-2.8131,-2.6461,-2.5953,-2.6416,-2.4242,-2.3392,-2.3482,-2.294,-2.2468,-2.2048,-2.1517,-2.1298,-2.1298,-2.0789,-2.0566,-2.0566,-2.0566,-2.0566,-2.0566,-2.0566,-2.0566,-2.0566,-2.0566,-2.0566,-2.0566,-2.0566,-2.0566,-2.0566,-2.0566,-1.9932,-1.9287,-1.9287,-1.8633,-1.8008,-1.8008,-1.8008,-1.8008,-1.8008,-1.8008,-1.8008,-1.8008,-1.8008,-1.7939,-1.7744,-1.7148,-1.665,-1.6436,-1.583,-1.569,-1.6436,-1.5793,-1.5408,-1.581,-1.439,-1.3279,-1.2943,-1.3347,-1.3606,-1.3606,-1.4746,-1.5312,-1.5117,-1.4487,-1.3876,-1.3282,-1.1945,-1.0984,-1.0513,-1.0393,-1.0301,-1.5089,-1.5522,-1.5833,-1.5743,-1.5119,-1.4532,-1.4395,-1.3251,-1.2116,-1.1703,-1.1399,-1.0912,-0.987,-1.0941,-1.2364,0.0,-1.5066,-1.7117,-2.0072,-2.0718,-2.1043,-2.1643,-2.151,-2.1174,-2.0672,-2.0566,-2.0566,-2.0566,-2.1669,-2.2328,-2.2328,-2.3073,-2.3992,-2.5111,-2.6077,-2.7131,-2.8246,-2.9303,-2.9792,-2.9792,-2.9792,-2.9792,-2.9714,-2.7718,-2.7221,-2.7814,-2.5414,-2.453,-2.4814,-2.4346,-2.3899,-2.3441,-2.2627,-2.2178,-2.1876,-2.1155,-2.0789,-2.0566,-2.0566,-2.0566,-2.0566,-2.0566,-2.0566,-2.0566,-2.0566,-2.0566,-2.0566,-2.0566,-2.0566,-2.0566,-2.0566,-1.9932,-1.9238,-1.9053,-1.8496,-1.8008,-1.8008,-1.8008,-1.8008,-1.8008,-1.8008,-1.8008,-1.8008,-1.8008,-1.8008,-1.8008,-1.7363,-1.6875,-1.6875,-1.6182,-1.589,-1.6362,-1.5449,-1.4789,-1.4789,-1.3348,-1.2219,-1.1826,-1.2573,-1.307,-1.3252,-1.4628,-1.541,-1.541,-1.4322,-1.3638,-1.3464,-1.1945,-1.108,-1.084,-1.1195,-1.1449,-1.6339,-1.6982,-1.7302,-1.6806,-1.6362,-1.5758,-1.4806,0.0,-1.2177,-1.169,-1.0772,-1.0155,-1.0516,-1.0725,-1.1696,-1.4337,0.0,-1.6166,-1.9434,-2.0103,-2.0447,-2.1052,-2.1295,-2.1174,-2.0672,-2.0566,-2.0566,-2.0566,-2.2339,-2.3368,-2.3368,-2.3441,-2.4203,-2.5642,-2.6265,-2.7354,-2.8837,-2.9451,-2.9792,-2.9792,-2.9792,-2.9792,-2.9792,-2.8518,-2.7755,-2.7304,-2.5972,-2.5026,-2.4256,-2.4212,-2.3899,-2.3514,-2.3368,-2.2776,-2.1952,-2.1886,-2.1298,-2.0566,-2.0566,-2.0566,-2.0566,-2.0566,-2.0566,-2.0566,-2.0566,-2.0566,-2.0566,-2.0566,-2.0566,-2.0566,-2.0566,-1.9932,-1.9092,-1.8311,-1.8066,-1.8008,-1.8008,-1.8008,-1.8008,-1.8008,-1.8008,-1.8008,-1.8008,-1.8008,-1.8008,-1.8008,-1.7617,-1.7324,-1.7324,-1.6904,-1.6455,-1.6166,-1.436,-1.3235,-1.3235,-1.1717,-1.1101,-1.1772,-1.2573,-1.3312,-1.4085,-1.4932,-1.541,-1.541,-1.4591,-1.3802,-1.308,-1.2866,-1.2258,-1.1293,-1.2326,-1.2693,-1.6142,-1.6774,-1.7087,-1.6844,-1.6484,-1.5943,-1.4836,-1.342,-1.2164,-1.1709,-1.0684,-0.9968,-1.0194,-1.0468,-1.1181,-1.2738,-1.3252,-1.4341,-1.6955,-1.6985,-1.7533,-1.9716,-1.9624,-1.9663,-2.0526,-2.0566,-2.1088,-2.2264,-2.3073,-2.4036,-2.5205,-2.5288,-2.5742,-2.6648,-2.6881,-2.7482,-2.8423,-2.8988,-2.9277,-2.9277,-2.9277,-2.9277,-2.9188,-2.7811,-2.738,-2.7704,-2.6212,-2.5773,-2.6045,-2.5733,-2.5468,-2.5205,-2.3952,-2.3294,-2.2776,-2.1593,-2.0934,-2.0566,-2.0566,-2.0566,-2.0566,-2.0566,-2.0566,-2.0566,-2.0566,-2.0566,-2.0566,-2.0566,-2.0566,-2.0508,-2.0244,-1.9531,-1.8809,-1.8467,-1.8193,-1.8008,-1.8008,-1.8008,-1.8008,-1.8008,-1.8008,-1.8008,-1.8008,-1.8008,-1.8008,-1.8008,-1.7656,-1.7383,-1.7383,-1.7002,-1.6562,-1.6113,-1.4909,-1.404,-1.3752,-1.2696,-1.2151,-1.2512,-1.3304,-1.3855,-1.4213,-1.4991,-1.541,-1.541,-1.4628,-1.4025,-1.3726,-1.3252,-1.2744,-1.2366,-1.3296,-1.3647,-1.642,-1.7071,-1.7393,-1.724,-1.686,-1.6173,-1.4767,-1.3476,-1.2335,-1.1497,-1.0571,-0.9867,-0.9764,-1.0059,-1.0582,0.0,-1.1849,-1.2872,-1.5131,-1.4844,-1.5394,-1.8165,-1.7976,-1.8252,-1.9844,-2.0639,-2.1669,-2.3368,-2.3745,-2.4696,-2.6383,-2.6533,-2.664,-2.703,-2.7205,-2.7469,-2.7858,-2.8574,-2.8925,-2.8925,-2.8925,-2.8925,-2.8838,-2.758,-2.7336,-2.7761,-2.6615,-2.6431,-2.7005,-2.6684,-2.6533,-2.6314,-2.4624,-2.3745,-2.3294,-2.1593,-2.0867,-2.0566,-2.0566,-2.0566,-2.0566,-2.0566,-2.0566,-2.0566,-2.0566,-2.0566,-2.0566,-2.0566,-2.0566,-2.0469,-2.0029,-1.9375,-1.8799,-1.8592,-1.832,-1.8008,-1.8008,-1.8008,-1.8008,-1.8008,-1.8008,-1.8008,-1.8008,-1.8008,-1.8008,-1.8008,-1.7764,-1.7568,-1.7568,-1.7305,-1.6943,-1.6504,-1.5823,-1.509,-1.4249,-1.3485,-1.313,-1.3373,-1.3914,-1.4332,-1.4569,-1.5108,-1.541,-1.541,-1.4628,-1.4213,-1.4213,-1.3606,-1.3364,-1.3364,-1.4213,-1.4451,-1.7625,-1.8454,-1.8858,-1.8337,-1.7766,-1.6798,-1.4614,-1.3634,-1.2722,-1.1044,-1.0295,-0.979,-0.9461,-0.9408,-0.9779,-1.0922,-1.1103,-1.2008,-1.4563,-1.4601,-1.4924,-1.6346,-1.6628,-1.7256,-1.8535,-2.0655,-2.2403,-2.3441,-2.4409,-2.5441,-2.6465,-2.6533,-2.6533,-2.6533,-2.6992,-2.7281,-2.7293,-2.8386,-2.8925,-2.8925,-2.8925,-2.8925,-2.8913,-2.8348,-2.7808,-2.7293,-2.7281,-2.6967,-2.6533,-2.6533,-2.6533,-2.6383,-2.537,-2.442,-2.3368,-2.2328,-2.1375,-2.0566,-2.0566,-2.0566,-2.0566,-2.0566,-2.0566,-2.0566,-2.0566,-2.0566,-2.0566,-2.0566,-2.0566,-2.0469,-2.0029,-1.96,-1.917,-1.874,-1.832,-1.8008,-1.8008,-1.8008,-1.8008,-1.8008,-1.8008,-1.8008,-1.8008,-1.8008,-1.8008,-1.8008,-1.8008,-1.8008,-1.8008,-1.7998,-1.7832,-1.7412,-1.6982,-1.5985,-1.4336,-1.3485,-1.3373,-1.4145,-1.4213,-1.4569,-1.5352,-1.541,-1.541,-1.541,-1.4628,-1.4213,-1.4213,-1.4204,-1.4213,-1.4213,-1.4991,-1.4932,-1.5459,-1.6111,-1.6402,-1.5608,-1.5539,-1.523,-1.3345,-1.2793,-1.2271,-1.0969,-1.0255,-0.979,-0.9449,-0.9408,-0.973,-1.072,-1.0899,0.0,-1.3294,-1.3922,-1.4785,-1.6417,-1.8242,-1.9796,-2.0841,-2.1551,-2.2702,-2.4409,-2.4791,-2.5441,-2.6465,-2.6533,-2.6533,-2.6533,-2.6628,-2.6716,-2.6716,-2.7444,-2.7808,-2.7808,-2.7808,-2.7808,-2.7783,-2.7231,-2.6879,-2.6716,-2.6716,-2.6697,-2.6533,-2.6533,-2.6533,-2.6314,-2.4624,-2.3818,-2.3294,-2.1669,-2.0867,-2.0566,-2.0566,-2.0566,-2.0566,-2.0566,-2.0566,-2.0566,-2.0566,-2.0566,-2.0566,-2.0566,-2.0352,-2.0156,-2.0312,-1.9609,-1.8887,-1.9043,-1.8535,-1.8008,-1.8008,-1.8008,-1.8008,-1.8008,-1.8008,-1.8008,-1.8008,-1.8008,-1.8008,-1.8008,-1.8008,-1.8008,-1.8008,-1.8008,-1.7852,-1.7432,-1.7256,-1.6689,-1.5616,-1.4974,-1.4756,-1.4991,-1.4991,-1.5108,-1.541,-1.541,-1.541,-1.541,-1.5177,-1.4991,-1.4991,-1.4991,-1.4991,-1.505,-1.5294,-1.4991,-1.3825,-1.4473,-1.4761,-1.4188,-1.4082,-1.3715,-1.2397,-1.2102,-1.1745,-1.0479,-1.0026,-0.9738,-0.9262,-0.9317,-0.9645,-1.0249,-1.0491,-1.1095,-1.2459,-1.3359,-1.4609,-1.6441,-1.8574,-2.0257,-2.1439,-2.22,-2.322,-2.4862,-2.537,-2.5873,-2.6452,-2.6533,-2.6533,-2.6533,-2.6533,-2.6533,-2.6533,-2.7005,-2.7281,-2.7281,-2.7281,-2.7281,-2.7268,-2.6716,-2.6533,-2.6533,-2.6533,-2.6533,0.0,-2.6533,-2.6533,-2.6314,-2.4325,-2.3514,-2.3294,-2.1308,-2.0566,-2.0566,-2.0566,-2.0566,-2.0566,-2.0566,-2.0566,-2.0566,-2.0566,-2.0566,-2.0566,-2.0566,-2.0371,-2.0225,-2.0498,-1.9844,-1.915,-1.9268,-1.876,-1.8203,-1.8047,-1.8008,-1.8008,-1.8008,-1.8008,-1.8008,-1.8008,-1.8008,-1.8008,-1.8008,-1.8008,-1.8008,-1.8008,-1.8008,-1.791,-1.7646,-1.748,-1.709,-1.6377,-1.5908,-1.5586,-1.542,-1.541,-1.541,-1.541,-1.541,-1.541,-1.541,-1.541,-1.541,-1.541,-1.541,-1.541,-1.541,-1.5108,-1.451,0.0,-1.3274,-1.3621,-1.3603,-1.3078,-1.2329,-1.1609,-1.15,0.0,-0.9719,-0.9686,-0.971,-0.9072,-0.9236,-0.9565,-0.9801,-1.016,-1.084,-1.2132,-1.3184,-1.4561,-1.667,-1.8008,-1.9414,-2.0878,-2.2556,-2.4036,-2.5004,-2.5955,-2.6533,-2.6533,-2.6533,-2.6533,-2.6533,-2.6533,-2.6533,-2.6533,-2.6967,-2.7218,-2.7218,-2.7218,-2.7218,-2.7205,-2.676,-2.6533,-2.6533,-2.6533,-2.6533,-2.6452,-2.6383,-2.6383,-2.6164,-2.4181,-2.3368,-2.3147,-2.1308,-2.0566,-2.0566,-2.0566,-2.0566,-2.0566,-2.0566,-2.0566,-2.0566,-2.0566,-2.0566,-2.0566,-2.0566,-2.0566,-2.0566,-2.0566,-2.0244,-1.9805,-1.9394,-1.8955,-1.8525,-1.8105,-1.8008,-1.8008,-1.8008,-1.8008,-1.8008,-1.8008,-1.8008,-1.8008,-1.8008,-1.8008,-1.8008,-1.8008,-1.8008,-1.8008,-1.8008,-1.7666,-1.7246,-1.6816,-1.6338,-1.5879,-1.5439,-1.541,-1.541,-1.541,-1.541,-1.541,-1.541,-1.541,-1.541,-1.541,-1.541,-1.541,-1.5352,-1.4628,-1.3846,-0.9245,0.0,-1.0725,-0.9974,-1.0282,-1.0624,0.0,-1.0427,-1.0706,-0.9939,0.0,-1.0024,-1.0416,-0.9946,-1.0113,-1.1992,-1.1711,-1.1826,-1.3457,-1.5293,-1.7021,-1.8506,-2.0161,-2.166,-2.2732,-2.3982,-2.5075,-2.6094,-2.6383,-2.6533,-2.6533,-2.6533,-2.6533,-2.6533,-2.6533,-2.6533,-2.6533,-2.6659,-2.6653,-2.6653,-2.6653,-2.6653,-2.6653,-2.6584,-2.6533,-2.6533,-2.6533,-2.6533,-2.6452,-2.5664,-2.537,-2.5146,-2.3147,-2.2328,-2.2178,-2.1001,-2.0566,-2.0566,-2.0566,-2.0566,-2.0566,-2.0566,-2.0566,-2.0566,-2.0566,-2.0566,-2.0566,-2.0566,-2.0566,-2.0566,-2.0566,-2.0244,-1.9805,-1.9394,-1.8955,-1.8525,-1.8105,-1.8008,-1.8008,-1.8008,-1.8008,-1.8008,-1.8008,-1.8008,-1.8008,-1.8008,-1.8008,-1.8008,-1.8008,-1.8008,-1.8008,-1.8008,-1.792,-1.7686,-1.7266,-1.6514,-1.5879,-1.5439,-1.541,-1.541,-1.541,-1.541,-1.541,-1.541,-1.541,-1.541,-1.541,-1.541,-1.541,-1.541,-1.5235,-1.4392,-0.7737,-0.8969,-1.0183,-0.9647,-1.0044,-1.0528,-1.0424,0.0,0.0,0.0,0.0,-1.0051,-1.0546,-1.0313,-1.0584,-1.2171,-1.2307,-1.2832,-1.4746,-1.6727,-1.8425,-1.9829,-2.1365,-2.2831,-2.4097,-2.4707,-2.5441,-2.6383,-2.6533,-2.6533,-2.6533,-2.6533,-2.6533,-2.6533,-2.6533,-2.6533,-2.6533,-2.6533,-2.6533,-2.6533,-2.6533,-2.6533,-2.6533,-2.6533,-2.6533,-2.6533,-2.6533,-2.6533,-2.6383,-2.5441,-2.5004,-2.4791,-2.2776,-2.2027,-2.1886,-2.0934,-2.0566,-2.0566,-2.0566,-2.0566,-2.0566,-2.0566,-2.0566,-2.0566,-2.0566,-2.0566,-2.0566,-2.0566,-2.0566,-2.0566,-2.0566,-2.0244,-1.9805,-1.9394,-1.8955,-1.8525,-1.8105,-1.8008,-1.8008,-1.8008,-1.8008,-1.8008,-1.8008,-1.8008,-1.8008,-1.8008,-1.8008,-1.8008,-1.8008,-1.8008,-1.8008,-1.8008,-1.8008,-1.7842,-1.7422,-1.6943,-1.6396,-1.5752,-1.5703,-1.5615,-1.542,-1.541,-1.541,-1.541,-1.541,-1.541,-1.541,-1.541,-1.541,-1.541,-1.4991,-1.4213,-0.7508,-0.9108,-1.0634,-1.0328,-1.0635,-1.1065,-1.1253,0.0,0.0,0.0,0.0,0.0,-1.057,-1.0741,-1.1086,-1.1921,-1.283,-1.4146,-1.6118,-1.7822,-1.9369,-2.07,-2.2099,-2.3429,-2.4649,-2.5063,-2.5545,-2.6327,-2.6483,-2.6533,-2.6533,-2.6533,-2.6533,-2.6533,-2.6533,-2.6533,-2.6533,-2.6533,-2.6533,-2.6533,-2.6533,-2.6533,-2.6533,-2.6533,-2.6533,-2.6533,-2.6533,-2.6533,-2.6383,-2.5229,-2.4779,-2.4564,-2.2553,-2.1811,-2.1659,-2.0857,-2.0566,-2.0566,-2.0566,-2.0566,-2.0566,-2.0566,-2.0566,-2.0566,-2.0566,-2.0566,-2.0566,-2.0566,-2.0566,-2.0566,-2.0566,-2.0244,-1.9805,-1.9394,-1.8955,-1.8525,-1.8105,-1.8008,-1.8008,-1.8008,-1.8008,-1.8008,-1.8008,-1.8008,-1.8008,-1.8008,-1.8008,-1.8008,-1.8008,-1.8008,-1.8008,-1.8008,-1.8008,-1.7871,-1.751,-1.748,-1.7129,-1.638,-1.6194,-1.5869,-1.543,-1.541,-1.541,-1.541,-1.541,-1.541,-1.541,-1.541,-1.541,-1.5352,-1.4569,-1.3846,-0.8921,-0.9981,-1.0284,-0.8657,-0.9672,-1.0878,-1.0103,0.0,0.0,0.0,0.0,0.0,0.0,-1.2002,-1.1997,-1.3683,-1.5195,-1.6507,-1.754,-1.9176,-2.052,-2.1085,-2.2788,-2.3859,-2.3561,-2.5184,-2.6115,-2.5762,-2.6189,-2.6533,-2.6533,-2.6533,-2.6533,-2.6533,-2.6533,-2.6533,-2.6533,-2.6533,-2.6533,-2.6533,-2.6533,-2.6533,-2.6533,-2.6533,-2.6533,-2.6533,-2.6533,-2.6533,-2.6383,-2.448,-2.3745,-2.3526,-2.1603,-2.0789,-2.0789,-2.0634,-2.0566,-2.0566,-2.0566,-2.0566,-2.0566,-2.0566,-2.0566,-2.0566,-2.0566,-2.0566,-2.0566,-2.0566,-2.0566,-2.0566,-2.0566,-2.0244,-1.9805,-1.9394,-1.8955,-1.8525,-1.8105,-1.8008,-1.8008,-1.8008,-1.8008,-1.8008,-1.8008,-1.8008,-1.8008,-1.8008,-1.8008,-1.8008,-1.8008,-1.8008,-1.8008,-1.8008,-1.8008,-1.7978,-1.792,-1.791,-1.7705,-1.7207,-1.6537,-1.5869,-1.543,-1.541,-1.541,-1.541,-1.541,-1.541,-1.541,-1.541,-1.541,-1.5352,-1.4569,-1.4145,-0.7877,-0.8996,-0.9718,-0.8578,-1.0222,-1.1992,-1.1545,0.0,0.0,0.0,0.0,0.0,0.0,-1.2429,-1.2985,-1.5289,-1.6263,-1.7216,-1.879,-2.0154,-2.1174,-2.1885,-2.3221,-2.4083,-2.412,-2.5244,-2.5887,-2.5611,-2.6138,-2.6533,-2.6533,-2.6533,-2.6533,-2.6533,-2.6533,-2.6533,-2.6533,-2.6533,-2.6533,-2.6533,-2.6533,-2.6533,-2.6533,-2.6533,-2.6533,-2.6533,-2.6533,-2.6164,-2.5581,-2.4108,-2.3147,-2.2553,-2.1155,-2.0566,-2.0566,-2.0566,-2.0566,-2.0566,-2.0566,-2.0566,-2.0566,-2.0566,-2.0566,-2.0566,-2.0566,-2.0566,-2.0566,-2.0566,-2.0566,-2.0566,-2.0566,-2.0078,-1.9531,-1.9336,-1.8779,-1.8242,-1.8047,-1.8008,-1.8008,-1.8008,-1.8008,-1.8008,-1.8008,-1.8008,-1.8008,-1.8008,-1.8008,-1.8008,-1.8008,-1.8008,-1.8008,-1.8008,-1.8008,-1.8008,-1.8008,-1.8008,-1.7734,-1.707,-1.6416,-1.5869,-1.543,-1.541,-1.541,-1.541,-1.541,-1.541,-1.541,-1.541,-1.541,-1.541,-1.4991,-1.4628,-0.7158,-0.8106,-0.9107,-0.914,0.0,-1.2473,-1.2634,-1.1943,0.0,0.0,0.0,0.0,0.0,-1.2994,-1.4174,-1.6729,-1.7396,-1.822,-2.0075,-2.1077,-2.1946,-2.2706,-2.3516,-2.4117,-2.4406,-2.5021,-2.541,-2.541,-2.5937,-2.6382,-2.6521,-2.6533,-2.6533,-2.6533,-2.6533,-2.6533,-2.6533,-2.6533,-2.6533,-2.6533,-2.6533,-2.6533,-2.6533,-2.6533,-2.6533,-2.6533,-2.6533,-2.5955,-2.4933,-2.3891,-2.2925,-2.1886,-2.0934,-2.0566,-2.0566,-2.0566,-2.0566,-2.0566,-2.0566,-2.0566,-2.0566,-2.0566,-2.0566,-2.0566,-2.0566,-2.0566,-2.0566,-2.0566,-2.0566,-2.0566,-2.0566,-1.9932,-1.9287,-1.9287,-1.8633,-1.8008,-1.8008,-1.8008,-1.8008,-1.8008,-1.8008,-1.8008,-1.8008,-1.8008,-1.8008,-1.8008,-1.8008,-1.8008,-1.8008,-1.8008,-1.8008,-1.8008,-1.8008,-1.8008,-1.8008,-1.8008,-1.7686,-1.6934,-1.6562,-1.6123,-1.5586,-1.5566,-1.5518,-1.541,-1.541,-1.541,-1.541,-1.541,-1.541,-1.541,-1.5235,-1.4874,-0.848,-0.8516,-0.8565,-1.0086,-1.0626,0.0,-1.1576,-1.1318,0.0,-1.2629,0.0,0.0,-1.3502,-1.4328,-1.5774,-1.8025,-1.9356,-2.0511,-2.1602,-2.2445,-2.298,-2.3055,-2.3603,-2.3803,-2.324,-2.4243,-2.487,-2.487,-2.536,-2.5887,-2.6496,-2.6533,-2.6533,-2.6533,-2.6533,-2.6533,-2.6533,-2.6533,-2.6533,-2.6533,-2.6533,-2.6533,-2.6533,-2.6533,-2.6533,-2.6533,-2.6533,-2.5955,-2.4933,-2.3891,-2.2925,-2.1886,-2.0934,-2.0566,-2.0566,-2.0566,-2.0566,-2.0566,-2.0566,-2.0566,-2.0566,-2.0566,-2.0566,-2.0566,-2.0566,-2.0566,-2.0566,-2.0566,-2.0566,-2.0566,-2.0566,-1.9932,-1.9287,-1.9287,-1.8633,-1.8008,-1.8008,-1.8008,-1.8008,-1.8008,-1.8008,-1.8008,-1.8008,-1.8008,-1.8008,-1.8008,-1.8008,-1.8008,-1.8008,-1.8008,-1.8008,-1.8008,-1.8008,-1.8008,-1.8008,-1.8008,-1.7812,-1.7363,-1.7305,-1.6904,-1.6105,-1.6076,-1.582,-1.542,-1.541,-1.541,-1.541,-1.541,-1.541,-1.5352,-1.4628,-1.4688,-0.7003,-0.7837,-0.8793,-0.9455,-1.0287,0.0,0.0,-1.2061,-1.2665,-1.3183,-1.3979,-1.4813,-1.5578,-1.6071,-1.7053,-1.9297,-2.0062,-2.1073,-2.3115,-2.3636,-2.3826,-2.3826,-2.4033,-2.3893,-2.315,-2.3853,-2.4305,-2.4305,-2.4808,-2.5209,-2.5423,-2.5435,-2.5586,-2.5912,-2.5925,-2.6101,-2.6533,-2.6533,-2.6533,-2.6533,-2.6533,-2.6533,-2.6533,-2.6533,-2.6533,-2.6533,-2.6533,-2.5955,-2.4933,-2.3891,-2.2925,-2.1886,-2.0934,-2.0566,-2.0566,-2.0566,-2.0566,-2.0566,-2.0566,-2.0566,-2.0566,-2.0566,-2.0566,-2.0566,-2.0566,-2.0566,-2.0566,-2.0566,-2.0566,-2.0566,-2.0566,-1.9932,-1.9287,-1.9287,-1.8633,-1.8008,-1.8008,-1.8008,-1.8008,-1.8008,-1.8008,-1.8008,-1.8008,-1.8008,-1.8008,-1.8008,-1.8008,-1.8008,-1.8008,-1.8008,-1.8008,-1.8008,-1.8008,-1.8008,-1.8008,-1.8008,-1.7939,-1.7783,-1.7529,-1.7109,-1.6504,-1.6211,-1.6047,-1.582,-1.5547,-1.541,-1.541,-1.541,-1.541,-1.541,-1.5108,-1.5108,-0.6595,-0.7661,-0.8886,-0.9139,0.0,0.0,-1.1703,-1.2568,-1.3429,-1.3941,-1.4831,-1.5946,-1.7281,-1.7438,-1.8095,-2.0399,-2.0867,-2.1745,-2.3974,-2.4292,-2.4408,-2.4624,-2.4624,-2.4452,-2.3872,-2.4022,-2.4147,-2.4325,-2.4457,-2.4644,-2.4808,-2.482,-2.4983,-2.5335,-2.536,-2.5548,-2.5937,-2.6101,-2.6189,-2.6189,-2.6445,-2.6533,-2.6533,-2.6533,-2.6533,-2.6533,-2.6533,-2.5955,-2.4933,-2.3891,-2.2702,-2.1517,-2.0857,-2.0566,-2.0566,-2.0566,-2.0566,-2.0566,-2.0566,-2.0566,-2.0566,-2.0566,-2.0566,-2.0566,-2.0566,-2.0566,-2.0566,-2.0566,-2.0566,-2.0537,-2.0391,-1.9824,-1.9287,-1.9287,-1.8633,-1.8008,-1.8008,-1.8008,-1.8008,-1.8008,-1.8008,-1.8008,-1.8008,-1.8008,-1.8008,-1.8008,-1.8008,-1.8008,-1.8008,-1.8008,-1.8008,-1.8008,-1.8008,-1.8008,-1.8008,-1.8008,-1.8008,-1.8008,-1.7744,-1.7393,-1.6953,-1.6641,-1.6416,-1.6279,-1.584,-1.5615,-1.5615,-1.5478,-1.541,-1.541,-1.541,-1.541,-0.7822,-0.8155,-0.8646,0.0,0.0,0.0,-1.2041,-1.2578,-1.3362,-1.4913,-1.5771,-1.6746,-1.8419,-1.8414,-1.8867,-2.1162,-2.1958,-2.2789,-2.4097,-2.435,-2.4567,-2.5342,-2.5398,-2.5398,-2.5398,-2.4738,-2.453,-2.5037,-2.4387,-2.423,-2.4782,-2.4808,-2.4808,-2.4808,-2.4808,-2.4808,-2.482,-2.5335,-2.5586,-2.5598,-2.6163,-2.6521,-2.6533,-2.6533,-2.6533,-2.6533,-2.6533,-2.5943,-2.4933,-2.3891,-2.2339,-2.0566,-2.0566,-2.0566,-2.0566,-2.0566,-2.0566,-2.0566,-2.0566,-2.0566,-2.0566,-2.0566,-2.0566,-2.0566,-2.0566,-2.0566,-2.0566,-2.0557,-2.0557,-2.0459,-2.0019,-1.96,-1.9277,-1.9277,-1.8633,-1.8008,-1.8008,-1.8008,-1.8008,-1.8008,-1.8008,-1.8008,-1.8008,-1.8008,-1.8008,-1.8008,-1.8008,-1.8008,-1.8008,-1.8008,-1.8008,-1.8008,-1.8008,-1.8008,-1.8008,-1.8008,-1.8008,-1.8008,-1.8008,-1.7822,-1.7402,-1.7383,-1.7178,-1.6748,-1.6299,-1.6125,-1.6125,-1.5625,-1.542,-1.541,-1.541,-1.541,-0.7577,-0.8828,0.0,-1.0142,0.0,0.0,0.0,-1.3457,0.0,0.0,-1.7463,-1.8412,-1.9826,-1.9998,-2.0416,-2.18,-2.2629,-2.3537,-2.4869,-2.5508,-2.596,-2.6176,-2.6176,-2.596,-2.5453,-2.4738,-2.4358,-2.453,-2.3799,-2.3464,-2.3627,-2.3566,-2.3828,-2.423,-2.4243,-2.4431,-2.482,-2.4971,-2.5059,-2.5059,-2.5222,-2.5711,-2.6533,-2.6533,-2.6533,-2.6533,-2.6533,-2.6314,-2.5943,-2.4181,-2.2339,-2.0566,-2.0566,-2.0566,-2.0566,-2.0566,-2.0566,-2.0566,-2.0566,-2.0566,-2.0566,-2.0566,-2.0566,-2.0566,-2.0566,-2.0566,-2.0498,-2.0195,-2.0107,-2.001,-1.959,-1.915,-1.8828,-1.8828,-1.8408,-1.8008,-1.8008,-1.8008,-1.8008,-1.8008,-1.8008,-1.8202,-1.8787,-1.8395,-1.8202,-1.8854,-1.8395,-1.8008,-1.8008,-1.8008,-1.8008,-1.8008,-1.8008,-1.8008,-1.8008,-1.8008,-1.8008,-1.8008,-1.8008,-1.7959,-1.7832,-1.7539,-1.7324,-1.7197,-1.6758,-1.6377,-1.6125,-1.5928,-1.5713,-1.541,-1.541,-1.541,-0.8597,-0.9775,0.0,-1.1328,-1.2584,-1.3901,-1.4336,0.0,0.0,-1.7301,-1.823,-1.912,-2.016,-2.0567,-2.1062,-2.2201,-2.3167,-2.4252,-2.5617,-2.6229,-2.6616,-2.6878,-2.693,-2.6759,-2.6322,-2.5329,-2.4738,-2.4738,-2.3708,-2.3078,-2.3078,-2.3078,-2.3301,-2.364,-2.3653,-2.3816,-2.4142,-2.4381,-2.4494,-2.4494,-2.472,-2.5172,-2.5812,-2.5812,-2.605,-2.6533,-2.6533,-2.6245,-2.5804,-2.4624,-2.3158,-2.1756,-2.1756,-2.1756,-2.168,-2.1298,-2.1155,-2.1078,-2.0712,-2.0566,-2.0566,-2.0566,-2.0566,-2.0566,-2.0566,-2.0449,-2.0254,-1.999,-1.9795,-1.9561,-1.9141,-1.8828,-1.8562,-1.8562,-1.832,-1.8008,-1.8008,-1.8008,-1.8008,-1.8008,-1.8008,-1.8134,-1.8721,-1.8337,-1.8212,-1.8721,-1.8337,-1.8008,-1.8008,-1.8008,-1.8008,-1.8008,-1.8008,-1.8008,-1.8008,-1.8008,-1.8008,-1.8008,-1.8008,-1.8008,-1.8008,-1.7764,-1.7637,-1.7637,-1.7207,-1.6768,-1.6328,-1.6152,-1.584,-1.541,-1.541,-1.541,-1.0198,-1.0754,0.0,-1.259,-1.3014,0.0,-1.5489,-1.6609,-1.7361,-1.7696,-1.8514,-1.9309,-1.9888,-2.0406,-2.1217,-2.2444,-2.3612,-2.484,-2.6283,-2.6563,-2.6826,-2.7524,-2.7625,-2.7625,-2.7625,-2.6269,-2.5398,-2.5398,-2.3989,-2.3078,-2.3078,-2.3078,-2.3078,-2.3078,-2.3078,-2.3078,-2.3078,-2.3653,-2.3916,-2.3929,-2.4431,-2.4695,-2.4745,-2.4795,-2.5372,-2.6382,-2.6433,-2.5869,-2.4945,-2.4992,-2.442,-2.3514,-2.3514,-2.3514,-2.3368,-2.2478,-2.2103,-2.2027,-2.1088,-2.0712,-2.0712,-2.0644,-2.0537,-2.0508,-2.0508,-2.0195,-1.9853,-1.9805,-1.9521,-1.9131,-1.8691,-1.8584,-1.8584,-1.8584,-1.8291,-1.8008,-1.8008,-1.8008,-1.8008,-1.8008,-1.8008,-1.8008,-1.8076,-1.8076,-1.8008,-1.8008,-1.8008,-1.8008,-1.8008,-1.8008,-1.8008,-1.8008,-1.8008,-1.8008,-1.8008,-1.8008,-1.8008,-1.8008,-1.8008,-1.8008,-1.8008,-1.8008,-1.8008,-1.8008,-1.7637,-1.7207,-1.6665,-1.6328,-1.5879,-1.541,-1.541,-1.541,-0.9486,-1.0379,0.0,0.0,-1.3555,-1.4914,-1.5732,-1.7576,-1.9162,-1.9221,-1.9864,-2.0597,-2.112,-2.1329,-2.1799,-2.3025,-2.3946,-2.494,-2.6318,-2.6982,-2.7408,-2.7575,-2.7625,-2.7625,-2.7625,-2.6269,-2.5398,-2.5398,-2.3989,-2.3078,-2.3078,-2.3078,-2.3078,-2.3078,-2.3078,-2.3078,-2.3078,-2.3263,-2.3265,-2.3265,-2.3439,-2.374,-2.4192,-2.4619,-2.4946,-2.5197,-2.5598,-2.5222,-2.4434,-2.4838,-2.442,-2.3514,-2.3514,-2.3514,-2.3441,-2.3294,-2.3147,-2.3073,-2.2038,-2.1669,-2.1593,-2.0867,-2.0332,-2.0059,-2.0059,-1.9756,-1.9355,-1.9004,-1.8848,-1.8682,-1.8252,-1.8144,-1.8144,-1.8144,-1.8076,-1.8008,-1.8008,-1.8008,-1.8008,-1.8008,-1.8008,-1.8202,-1.8921,-1.8462,-1.8008,-1.8008,-1.8008,-1.8008,-1.8008,-1.8008,-1.8008,-1.8008,-1.8008,-1.8008,-1.8008,-1.8008,-1.8008,-1.8008,-1.8008,-1.8008,-1.8008,-1.8008,-1.8008,-1.8008,-1.792,-1.75,-1.6665,-1.6641,-1.6182,-1.541,-1.541,-1.541,-0.9388,0.0,0.0,-1.2567,0.0,-1.5497,-1.661,-1.8303,-1.9953,-2.0962,-2.1183,-2.1304,-2.1614,-2.1897,-2.2403,-2.3389,-2.4096,-2.4981,-2.6374,-2.6896,-2.7215,-2.758,-2.7625,-2.7625,-2.7625,-2.6269,-2.5398,-2.5398,-2.3989,-2.3078,-2.3078,-2.3078,-2.3078,-2.3078,-2.3078,-2.3078,-2.3078,-2.3078,-2.3078,-2.3078,-2.3078,-2.3288,-2.3615,-2.4443,-2.4669,-2.4456,-2.4996,-2.5095,-2.4859,-2.5139,-2.5117,-2.4909,-2.4909,-2.4909,-2.4886,-2.413,-2.3824,-2.3681,-2.2648,-2.2142,-2.1846,-2.1203,-2.0616,-2.0252,-2.0252,-1.9939,-1.9606,-1.9779,-1.9687,-1.9536,-1.9295,-1.9233,-1.9233,-1.9233,-1.8596,-1.8008,-1.8008,-1.8008,-1.8008,-1.8008,-1.8008,-1.8134,-1.8596,-1.8269,-1.8008,-1.8008,-1.8008,-1.8008,-1.8008,-1.8008,-1.8008,-1.8008,-1.8008,-1.8008,-1.8008,-1.8008,-1.8008,-1.8008,-1.8008,-1.8008,-1.8008,-1.8008,-1.8008,-1.8008,-1.8008,-1.7588,-1.6665,-1.6665,-1.6279,-1.541,-1.541,-1.541,-0.9195,0.0,-1.1332,-1.3027,-1.4337,0.0,-1.7561,-1.8971,-2.045,-2.2331,-2.2253,-2.1852,-2.1852,-2.2283,-2.2867,-2.3569,-2.4077,-2.4849,-2.6221,-2.6422,-2.6617,-2.7171,-2.7335,-2.7445,-2.7445,-2.6197,-2.5398,-2.5398,-2.3989,-2.3078,-2.3078,-2.3078,-2.3078,-2.3078,-2.3078,-2.3078,-2.3078,-2.3078,-2.3078,-2.3078,-2.3078,-2.3078,-2.3103,-2.4104,-2.428,-2.3879,-2.4443,-2.4921,-2.5322,-2.5423,-2.5749,-2.6176,-2.6176,-2.6176,-2.6045,-2.4747,-2.4306,-2.4157,-2.3155,-2.2533,-2.2045,-2.1607,-2.114,-2.0688,-2.0688,-2.036,-2.0183,-2.0919,-2.0828,-2.059,-2.059,-2.059,-2.059,-2.059,-1.9497,-1.8462,-1.8462,-1.8462,-1.8462,-1.8462,-1.8462,-1.8395,-1.8269,-1.8202,-1.8134,-1.8008,-1.8008,-1.8008,-1.8008,-1.8008,-1.8008,-1.8008,-1.8008,-1.8008,-1.8008,-1.8008,-1.8008,-1.8008,-1.8008,-1.8008,-1.8008,-1.8008,-1.8008,-1.8008,-1.8008,-1.7588,-1.6665,-1.6665,-1.6279,-1.541,-1.541,-1.541,0.0,0.0,-1.1269,0.0,-1.4331,-1.593,0.0,-1.9509,-2.1103,-2.2443,-2.2649,-2.2558,-2.2558,-2.2615,-2.2904,-2.3605,-2.3764,-2.4291,-2.555,-2.5734,-2.5779,-2.5869,-2.6378,-2.6722,-2.6722,-2.594,-2.5398,-2.5398,-2.3989,-2.3078,-2.3078,-2.3078,-2.3078,-2.3078,-2.3078,-2.3078,-2.3078,-2.3078,-2.3078,-2.3078,-2.3078,-2.3078,-2.3078,-2.3228,-2.3265,-2.3215,-2.3853,-2.4155,-2.4255,-2.4732,-2.4971,-2.5046,-2.5046,-2.5046,-2.5034,-2.4816,-2.4726,-2.4583,-2.3597,-2.3203,-2.2954,-2.2125,-2.1539,-2.1141,-2.1141,-2.0798,-2.0551,-2.0627,-2.0646,-2.059,-2.059,-2.059,-2.059,-2.059,-2.0398,-2.0268,-2.0268,-2.0268,-2.0268,-2.0268,-2.0268,-2.0009,-1.9243,-1.911,-1.8854,-1.8144,-1.8008,-1.8008,-1.8008,-1.8008,-1.8008,-1.8008,-1.8008,-1.8008,-1.8008,-1.8008,-1.8008,-1.8008,-1.8008,-1.8008,-1.8008,-1.8008,-1.8008,-1.8008,-1.8008,-1.7588,-1.6665,-1.6665,-1.6279,-1.541,-1.541,-1.541,-0.8734,-0.9925,-1.1222,0.0,-1.4575,-1.5994,-1.7811,-1.962,-2.124,-2.244,-2.2951,-2.3187,-2.3187,-2.3187,-2.329,-2.3614,-2.3658,-2.3954,-2.491,-2.5061,-2.5196,-2.557,-2.5869,-2.6033,-2.6033,-2.5055,-2.439,-2.439,-2.3024,-2.2347,-2.2661,-2.2673,-2.2811,-2.3065,-2.3078,-2.3078,-2.3078,-2.3078,-2.3078,-2.3078,-2.3078,-2.3078,-2.3078,-2.3078,-2.3078,-2.309,-2.3401,-2.3703,-2.4017,-2.4255,-2.4544,-2.482,-2.482,-2.482,-2.4782,-2.4469,-2.4356,-2.4292,-2.3885,-2.346,-2.3125,-2.2561,-2.1978,-2.1562,-2.1562,-2.1475,-2.1428,-2.1865,-2.199,-2.199,-2.199,-2.199,-2.199,-2.199,-2.199,-2.199,-2.199,-2.129,-2.059,-2.059,-2.0204,-1.9759,-1.9365,-1.8921,-1.8462,-1.8076,-1.8008,-1.8008,-1.8008,-1.8008,-1.8008,-1.8008,-1.8008,-1.8008,-1.8008,-1.8008,-1.8008,-1.8008,-1.8008,-1.8008,-1.8008,-1.8008,-1.8008,-1.8008,-1.7773,-1.7353,-1.6665,-1.6484,-1.6035,-1.541,-1.541,-1.541,0.0,0.0,-1.0684,-1.28,-1.4404,-1.5886,-1.7792,-1.9498,-2.0968,-2.2203,-2.2787,-2.3116,-2.3116,-2.3385,-2.3595,-2.3595,-2.3595,-2.3774,-2.4298,-2.4373,-2.4552,-2.5031,-2.5255,-2.5314,-2.5159,-2.4213,-2.3537,-2.3382,-2.2172,-2.1713,-2.2299,-2.2153,-2.2342,-2.2921,-2.277,-2.2786,-2.2924,-2.3002,-2.3078,-2.3078,-2.3078,-2.3078,-2.3078,-2.3078,-2.3078,-2.3078,-2.3078,-2.3376,-2.3778,-2.3778,-2.4017,-2.4393,-2.4393,-2.4393,-2.4343,-2.3929,-2.3778,-2.3778,-2.3778,-2.3502,-2.308,-2.2846,-2.2513,-2.2187,-2.2187,-2.2187,-2.2322,-2.2944,-2.2944,-2.2823,-2.2823,-2.2823,-2.2823,-2.2823,-2.2944,-2.3078,-2.3078,-2.2113,-2.1227,-2.1227,-2.0526,-1.9879,-1.9683,-1.8911,-1.8269,-1.8008,-1.8008,-1.8008,-1.8008,-1.8008,-1.8008,-1.8008,-1.8008,-1.8008,-1.8008,-1.8008,-1.8008,-1.8008,-1.8008,-1.8008,-1.8008,-1.8008,-1.8008,-1.8008,-1.749,-1.7061,-1.6665,-1.6279,-1.584,-1.541,-1.541,-1.541,0.0,-0.8164,0.0,-1.1277,-1.335,-1.5466,-1.7781,-1.9169,-2.028,-2.1486,-2.1769,-2.1799,-2.1799,-2.2787,-2.3595,-2.3595,-2.3595,-2.361,-2.3655,-2.3655,-2.367,-2.3699,-2.4283,-2.443,-2.3829,-2.3695,-2.333,-2.2684,-2.1966,-2.1759,-2.2361,-2.1839,-2.1809,-2.24,-2.189,-2.1832,-2.2347,-2.2874,-2.3078,-2.3078,-2.3078,-2.3078,-2.3078,-2.3078,-2.3078,-2.3078,-2.3078,-2.309,-2.3175,-2.3175,-2.3128,-2.3165,-2.3165,-2.3165,-2.3165,-2.3188,-2.3175,-2.3175,-2.3175,-2.3103,-2.3078,-2.3103,-2.3042,-2.3017,-2.3017,-2.3017,-2.3078,-2.3078,-2.2567,-2.1939,-2.1939,-2.1939,-2.1939,-2.1939,-2.258,-2.3078,-2.3078,-2.3005,-2.2944,-2.2944,-2.2322,-2.1491,-2.0655,-1.9824,-1.8977,-1.8134,-1.8008,-1.8008,-1.8008,-1.8008,-1.8008,-1.8008,-1.8008,-1.8008,-1.8008,-1.8008,-1.8008,-1.8008,-1.8008,-1.8008,-1.8008,-1.8008,-1.8008,-1.8008,-1.7187,-1.6694,-1.6665,-1.6279,-1.584,-1.541,-1.541,-1.541,0.0,0.0,0.0,-1.118,-1.2984,-1.48,-1.672,-1.8555,-2.0117,-2.0891,-2.1395,-2.1695,-2.1695,-2.2413,-2.3011,-2.3011,-2.334,-2.3595,-2.3595,-2.3595,-2.3595,-2.3595,-2.3819,-2.3866,-2.3674,-2.3241,-2.2946,-2.2692,-2.2029,-2.1904,-2.2498,-2.1917,-2.1836,-2.2403,-2.1801,-2.1581,-2.1782,-2.2334,-2.2611,-2.2611,-2.2962,-2.3078,-2.3078,-2.3078,-2.3078,-2.3078,-2.3078,-2.3078,-2.3078,-2.3078,-2.3078,-2.3078,-2.3078,-2.3078,-2.3078,-2.3078,-2.3078,-2.3078,-2.3078,-2.3078,-2.3078,-2.3078,-2.3078,-2.3078,-2.3078,-2.3078,-2.3078,-2.3078,-2.2506,-2.1877,-2.1877,-2.1877,-2.2002,-2.2567,-2.2884,-2.3078,-2.3078,-2.3078,-2.2944,-2.2445,-2.1678,-2.0782,-1.9944,-1.9497,-1.9166,-1.8844,-1.9299,-1.9497,-1.8911,-1.8844,-1.8586,-1.8076,-1.8008,-1.8008,-1.8008,-1.8008,-1.8008,-1.8008,-1.8008,-1.8008,-1.8008,-1.8529,-1.8586,-1.8008,-1.7654,-1.7274,-1.6665,-1.5996,-1.5566,-1.541,-1.541,-1.541,-0.7703,0.0,0.0,0.0,-1.2446,-1.3936,-1.6191,-1.8093,-1.9574,-2.0156,-2.0766,-2.122,-2.122,-2.1678,-2.2084,-2.2308,-2.2877,-2.3295,-2.3295,-2.3475,-2.3595,-2.3595,-2.3595,-2.3508,-2.3334,-2.2934,-2.2603,-2.2392,-2.1946,-2.1985,-2.2622,-2.1816,-2.1393,-2.1509,-2.131,-2.1204,-2.1204,-2.1757,-2.2133,-2.2322,-2.2686,-2.2962,-2.3078,-2.3078,-2.3078,-2.3078,-2.3078,-2.3078,-2.3078,-2.3078,-2.3078,-2.3078,-2.3078,-2.3078,-2.3078,-2.3078,-2.3078,-2.3078,-2.3078,-2.3078,-2.3078,-2.3078,-2.3078,-2.3078,-2.3078,-2.3078,-2.3078,-2.3078,-2.231,-2.1553,-2.1815,-2.169,-2.1616,-2.2113,-2.2494,-2.2702,-2.2702,-2.2702,-2.2567,-2.2002,-2.0974,-2.0074,-1.9814,-1.9497,-1.9431,-1.9694,-2.0204,-2.0398,-1.9824,-1.9759,-1.9431,-1.8529,-1.8462,-1.8337,-1.8008,-1.8008,-1.8134,-1.8395,-1.8462,-1.8596,-1.8844,-1.9431,-1.9299,-1.8462,-1.8154,-1.7575,-1.6665,-1.584,-1.541,-1.541,-1.541,-1.541,0.0,0.0,0.0,-1.0969,-1.1698,-1.2862,-1.6189,-1.7661,-1.8516,-1.9215,-1.9818,-2.0218,-2.028,-2.0491,-2.0887,-2.1545,-2.2203,-2.2694,-2.2694,-2.3161,-2.355,-2.3565,-2.3565,-2.3348,-2.2785,-2.274,-2.2452,-2.1805,-2.1744,-2.2039,-2.2649,-2.1513,-2.0497,-1.9798,-2.0351,-2.0693,-2.0693,-2.1192,-2.1732,-2.2259,-2.2284,-2.2573,-2.3027,-2.3027,-2.3027,-2.3053,-2.3053,-2.3065,-2.3078,-2.3078,-2.3078,-2.3078,-2.3078,-2.3078,-2.3078,-2.3078,-2.3078,-2.3078,-2.3078,-2.3078,-2.3078,-2.3078,-2.3078,-2.3078,-2.3078,-2.3078,-2.3078,-2.3078,-2.1865,-2.0782,-2.1616,-2.1175,-2.059,-2.0655,-2.1302,-2.1877,-2.1877,-2.1877,-2.1877,-2.1877,-2.0462,-1.9562,-2.0398,-1.9879,-1.9628,-2.0526,-2.0655,-2.0655,-2.0655,-2.0655,-2.0268,-1.9431,-1.9299,-1.8977,-1.8144,-1.8008,-1.8395,-1.9299,-1.9365,-1.9694,-2.059,-2.0655,-2.0204,-1.9299,-1.8459,-1.7575,-1.6665,-1.584,-1.541,-1.541,-1.541,-1.541,-0.7838,0.0,0.0,0.0,0.0,0.0,-1.3576,-1.5046,-1.654,-1.813,-1.8576,-1.8941,-1.9728,-1.9933,-2.0034,-2.0213,-2.1216,-2.1964,-2.1964,-2.2113,-2.2398,-2.2877,-2.2936,-2.3059,-2.3333,-2.3334,-2.3275,-2.3069,-2.3069,-2.295,-2.2694,-2.1513,-2.0497,-1.9798,-1.9962,-2.0037,-2.0037,-2.0602,-2.102,-2.1129,-2.1531,-2.1794,-2.1945,-2.1945,-2.2159,-2.2535,-2.2535,-2.2761,-2.3078,-2.3078,-2.3078,-2.3078,-2.3078,-2.3078,-2.3078,-2.3078,-2.3078,-2.3078,-2.3078,-2.3078,-2.3078,-2.3078,-2.3078,-2.3078,-2.3078,-2.3078,-2.3005,-2.2384,-2.1428,-2.0526,-2.0139,-1.9824,-2.0009,-2.1239,-2.1753,-2.1877,-2.1877,-2.1428,-2.0974,-2.0974,-2.0074,-1.9365,-1.9628,-2.0009,-2.0526,-2.1428,-2.2063,-2.2187,-2.1616,-2.1553,-2.0974,-1.9431,-1.9299,-1.9177,-1.8977,-1.8911,-1.9299,-2.0204,-2.0268,-2.0333,-2.059,-2.1239,-2.0846,-1.9299,-1.9073,-1.8169,-1.6665,-1.584,-1.541,-1.541,-1.541,-1.541,-0.9176,-0.9612,0.0,-1.0838,0.0,0.0,-1.3431,-1.449,-1.5652,-1.7233,-1.7885,-1.8418,-1.9227,-1.944,-1.95,-1.95,-2.0264,-2.0961,-2.1246,-2.1515,-2.1844,-2.2218,-2.2263,-2.2413,-2.2772,-2.2802,-2.2718,-2.2477,-2.2685,-2.254,-2.1927,-2.1175,-2.0497,-1.9798,-1.9798,-1.9798,-1.9798,-2.0137,-2.0426,-2.0718,-2.0991,-2.1267,-2.1493,-2.1493,-2.1656,-2.197,-2.197,-2.2284,-2.2786,-2.2786,-2.2924,-2.3078,-2.3078,-2.3078,-2.3078,-2.3078,-2.3078,-2.3078,-2.3078,-2.3078,-2.3078,-2.3078,-2.3078,-2.3078,-2.3078,-2.3078,-2.2944,-2.2137,-2.129,-2.0333,-1.911,-1.9299,-2.0009,-2.0655,-2.1365,-2.1877,-2.1877,-2.1491,-2.091,-2.0204,-1.9628,-1.9431,-1.9759,-2.059,-2.1428,-2.2261,-2.2823,-2.2944,-2.2445,-2.2384,-2.1865,-2.0526,-2.0398,-2.0268,-1.9879,-1.9814,-2.0204,-2.1101,-2.1164,-2.129,-2.1604,-2.2125,-2.151,-1.9587,-1.9404,-1.8267,-1.6182,-1.5664,-1.541,-1.541,-1.541,-1.541,-1.1053,-1.1328,0.0,-1.3275,-1.2903,0.0,-1.4501,-1.4998,-1.5375,-1.6377,-1.7293,-1.8026,-1.8511,-1.878,-1.8912,-1.8912,-1.9284,-1.9809,-2.0498,-2.1096,-2.15,-2.1575,-2.159,-2.162,-2.168,-2.1695,-2.152,-2.1044,-2.1298,-2.1279,-2.0811,-2.0654,-2.0344,-1.9798,-1.9798,-1.9798,-1.9798,-1.9798,-2.0062,-2.0618,-2.0618,-2.0828,-2.1305,-2.1305,-2.1343,-2.1393,-2.1393,-2.1707,-2.2221,-2.2221,-2.2585,-2.3078,-2.3078,-2.3078,-2.3078,-2.3078,-2.3078,-2.3078,-2.3078,-2.3078,-2.3078,-2.3078,-2.3078,-2.3078,-2.3078,-2.3078,-2.2884,-2.2002,-2.1037,-1.9944,-1.8395,-1.9233,-2.0268,-1.9628,-2.0719,-2.1877,-2.1877,-2.1877,-2.1428,-1.9748,-1.9431,-1.9694,-2.059,-2.1365,-2.2199,-2.3005,-2.3078,-2.3078,-2.3078,-2.3078,-2.2823,-2.2013,-2.1877,-2.1565,-2.0782,-2.0719,-2.1101,-2.2002,-2.2002,-2.2384,-2.3078,-2.3005,-2.1995,-1.9913,-1.9253,-1.7755,-1.541,-1.541,-1.541,-1.541,-1.541,-1.541,-1.4323,-1.4344,-1.4425,-1.3875,-1.4227,0.0,-1.3357,-1.3779,-1.4572,-1.5228,-1.534,-1.5606,-1.6495,-1.6953,-1.7179,-1.7179,-1.8152,-1.9136,-1.9794,-2.0004,-2.0288,-2.0842,-2.0917,-2.1111,-2.165,-2.1695,-2.1655,-2.156,-2.0741,-2.0401,-2.0762,-1.9882,-1.9472,-1.9786,-1.9798,-1.9798,-1.9798,-1.9798,-1.9861,-1.9974,-1.9974,-2.0024,-2.0125,-2.0125,-2.0388,-2.0882,-2.0882,-2.1142,-2.1656,-2.1656,-2.2234,-2.3078,-2.3078,-2.3078,-2.3078,-2.3078,-2.3078,-2.3078,-2.3078,-2.3078,-2.3078,-2.3078,-2.3078,-2.3078,-2.3078,-2.3078,-2.2823,-2.129,-1.9694,-1.8462,-1.8076,-1.8787,-1.9694,-2.0204,-2.1164,-2.1877,-2.1877,-2.1877,-2.1616,-2.0526,-2.0333,-2.0655,-2.1491,-2.1815,-2.2199,-2.3005,-2.3078,-2.3078,-2.3078,-2.3078,-2.2823,-2.2013,-2.1877,-2.1815,-2.169,-2.1628,-2.2002,-2.2823,-2.2884,-2.2944,-2.3065,-2.2506,-2.1431,-1.9913,-1.7777,-1.6277,-1.541,-1.541,-1.541,-1.541,-1.541,-1.541,-1.6425,-1.6307,-1.6156,-1.5426,-1.5494,0.0,0.0,-1.4288,-1.4887,-1.5739,-1.5472,-1.5385,-1.6323,-1.6604,-1.6655,-1.6527,-1.7451,-1.8328,-1.8657,-1.9271,-1.9809,-2.0168,-2.0198,-2.0333,-2.0662,-2.0692,-2.0697,-2.068,-1.9879,-1.9562,-1.9876,-1.9329,-1.9137,-1.9397,-1.9409,-1.9547,-1.9798,-1.9798,-1.9798,-1.9798,-1.9798,-1.9798,-1.9798,-1.9798,-1.9962,-2.0238,-2.0238,-2.0552,-2.1079,-2.1079,-2.1568,-2.2347,-2.2623,-2.2827,-2.3078,-2.3078,-2.3078,-2.3078,-2.3078,-2.3078,-2.3078,-2.3078,-2.3078,-2.3078,-2.3078,-2.2823,-2.2249,-2.0974,-1.9694,-1.8654,-1.8654,-1.9299,-2.0139,-2.1037,-2.1877,-2.2506,-2.2506,-2.2506,-2.2384,-2.1928,-2.1865,-2.1865,-2.1877,-2.2261,-2.2641,-2.3017,-2.3078,-2.3078,-2.3078,-2.3078,-2.2957,-2.2567,-2.2506,-2.2506,-2.2506,-2.2506,-2.2689,-2.3078,-2.3078,-2.3078,-2.3078,-2.2322,-2.0943,-1.9015,-1.6829,-1.5635,-1.541,-1.541,-1.541,-1.541,-1.541,-1.541,-1.8276,-1.8044,-1.7804,-1.7152,-1.6922,-1.658,0.0,0.0,0.0,-1.6443,-1.6023,-1.5708,-1.6346,-1.6349,-1.6145,-1.5845,-1.6652,-1.7311,-1.7176,-1.8317,-1.9221,-1.9301,-1.942,-1.9495,-1.9495,-1.9375,-1.9434,-1.9676,-1.8979,-1.8645,-1.8945,-1.8909,-1.8869,-1.9007,-1.8983,-1.9284,-1.9798,-1.9798,-1.9798,-1.9798,-1.9798,-1.9798,-1.9798,-1.9798,-1.9798,-1.9798,-1.9798,-2.0075,-2.0555,-2.0555,-2.0828,-2.1393,-2.2058,-2.2585,-2.2987,-2.3027,-2.3078,-2.3078,-2.3078,-2.3078,-2.3078,-2.3078,-2.3078,-2.3078,-2.3078,-2.2567,-2.1753,-2.1037,-2.0204,-1.9562,-1.9562,-2.0204,-2.1037,-2.1753,-2.2506,-2.3078,-2.3078,-2.3078,-2.3078,-2.3078,-2.3078,-2.2884,-2.2249,-2.2689,-2.3078,-2.3078,-2.3078,-2.3078,-2.3078,-2.3078,-2.3078,-2.3078,-2.3078,-2.3078,-2.3078,-2.3078,-2.3078,-2.3078,-2.3078,-2.3005,-2.2884,-2.1933,-2.0312,-1.8068,-1.6435,-1.5526,-1.541,-1.541,-1.541,-1.541,-1.541,-1.541,-2.0702,-2.0303,-1.9646,-1.8362,-1.8764,-1.8869,-1.6597,0.0,-1.7154,-1.5967,0.0,-1.5183,-1.4979,0.0,0.0,-1.4147,-1.5154,-1.5829,-1.5201,-1.6424,-1.7532,-1.7864,-1.8463,-1.8807,-1.8807,-1.8283,-1.8429,-1.9617,-1.8114,-1.7646,-1.8851,-1.8518,-1.8513,-1.8995,-1.8983,-1.9284,-1.9798,-1.9798,-1.9798,-1.9798,-1.9798,-1.9798,-1.9798,-1.9798,-1.9798,-1.9798,-1.9798,-1.9836,-1.9899,-1.9899,-2.0238,-2.092,-2.1907,-2.2347,-2.2472,-2.289,-2.3078,-2.3078,-2.3078,-2.3078,-2.3078,-2.3078,-2.3078,-2.3078,-2.3078,-2.2567,-2.1877,-2.1753,-2.1101,-2.0462,-2.0462,-2.1101,-2.1753,-2.1877,-2.2506,-2.3078,-2.3078,-2.3078,-2.3078,-2.3078,-2.3078,-2.3078,-2.3005,-2.3017,-2.3078,-2.3078,-2.3078,-2.3078,-2.3078,-2.3078,-2.3078,-2.3078,-2.3078,-2.3078,-2.3078,-2.3078,-2.3078,-2.3078,-2.3078,-2.2763,-2.2075,-2.0361,-1.8994,-1.7996,-1.6905,-1.6036,-1.541,-1.541,-1.541,-1.541,-1.541,-1.541,-2.1477,-2.1197,-2.0766,-1.9499,-1.9243,-1.8927,-1.7474,-1.7346,-1.7452,-1.7269,0.0,0.0,0.0,0.0,0.0,0.0,-1.4274,-1.4393,-1.3745,-1.4298,-1.5247,-1.6443,-1.709,-1.7685,-1.829,-1.8187,-1.8399,-1.9081,-1.8037,-1.751,-1.786,-1.8018,-1.812,-1.8088,-1.838,-1.8807,-1.9346,-1.9648,-1.9798,-1.9798,-1.9798,-1.9798,-1.9798,-1.9798,-1.9798,-1.9798,-1.9798,-1.9798,-1.9798,-1.9798,-1.9949,-2.0238,-2.1041,-2.1556,-2.1895,-2.2447,-2.2661,-2.2711,-2.2965,-2.3078,-2.3078,-2.3078,-2.3078,-2.3078,-2.3078,-2.2884,-2.2506,-2.2002,-2.1628,-2.1365,-2.1365,-2.1628,-2.2002,-2.2506,-2.2884,-2.3078,-2.3078,-2.3078,-2.3078,-2.3078,-2.3078,-2.3078,-2.3078,-2.3078,-2.3078,-2.3078,-2.3078,-2.3078,-2.3078,-2.3078,-2.3078,-2.3078,-2.3078,-2.3078,-2.3078,-2.3078,-2.3078,-2.3078,-2.2394,-2.1789,-2.1402,-1.97,-1.8346,-1.7536,-1.7266,-1.6585,-1.541,-1.5806,-1.5806,-1.541,-1.541,-1.541,-2.1735,-2.1582,-2.1308,-2.0084,-1.9396,-1.8824,-1.7989,-1.7773,-1.7863,-1.8268,-1.7683,0.0,0.0,0.0,-1.4858,-1.4191,0.0,-1.372,-1.2658,-1.2704,-1.342,-1.4913,-1.5759,-1.6615,-1.7559,-1.749,-1.7605,-1.8205,-1.7481,-1.7111,-1.7325,-1.7647,-1.7747,-1.7607,-1.7857,-1.8317,-1.897,-1.9397,-1.966,-1.9798,-2.0003,-2.0042,-2.0042,-2.0042,-2.0042,-2.0055,-1.9901,-1.9798,-1.9798,-1.9798,-1.9798,-1.9849,-2.0263,-2.0677,-2.1129,-2.1995,-2.2309,-2.2397,-2.2877,-2.3078,-2.3078,-2.3078,-2.3078,-2.3078,-2.3078,-2.3078,-2.3005,-2.2384,-2.2261,-2.2261,-2.2261,-2.2261,-2.2384,-2.2944,-2.3078,-2.3078,-2.3078,-2.3078,-2.3078,-2.3078,-2.3078,-2.3078,-2.3078,-2.3078,-2.3078,-2.3078,-2.3078,-2.3078,-2.3078,-2.3078,-2.3078,-2.3078,-2.3078,-2.3078,-2.3078,-2.3078,-2.3078,-2.3078,-2.1873,-2.12,-2.1379,-1.9668,-1.8452,-1.7875,-1.7891,-1.718,-1.569,-1.6265,-1.6151,-1.541,-1.541,-1.541,-2.1735,-2.1582,-2.1253,-1.9766,-1.9405,-1.9092,-1.8051,-1.8346,-1.8723,-1.8392,-1.8841,-1.9065,-1.8312,-1.7619,0.0,0.0,0.0,0.0,0.0,-1.207,-1.2499,-1.3204,-1.4617,-1.5808,-1.6465,-1.5453,-1.5393,-1.7025,-1.5979,-1.605,-1.7777,-1.7409,-1.7435,-1.814,-1.769,-1.7928,-1.897,-1.8995,-1.9309,-1.9798,-2.0446,-2.0746,-2.0746,-2.0746,-2.0746,-2.0746,-2.0105,-1.9798,-1.9798,-1.9798,-1.9798,-1.9798,-1.9823,-1.9849,-2.0049,-2.1707,-2.2309,-2.2397,-2.2877,-2.3078,-2.3078,-2.3078,-2.3078,-2.3078,-2.3078,-2.3078,-2.3065,-2.3078,-2.3078,-2.3078,-2.3078,-2.3078,-2.3078,-2.3065,-2.3078,-2.3078,-2.3078,-2.3078,-2.3078,-2.3078,-2.3078,-2.3078,-2.3078,-2.3078,-2.3078,-2.3078,-2.3078,-2.3078,-2.3078,-2.3078,-2.3078,-2.3078,-2.3078,-2.3078,-2.3078,-2.3078,-2.3078,-2.3078,-2.1801,-2.1379,-2.2251,-2.0423,-1.94,-1.9535,-1.8946,-1.795,-1.6482,-1.6492,-1.6151,-1.541,-1.541,-1.541,-2.2106,-2.2061,-2.1826,-2.0837,-2.02,-1.9563,-1.8735,-1.8724,-1.887,-1.8732,-1.91,-1.9301,-1.8747,-1.819,0.0,0.0,0.0,0.0,0.0,-1.1944,-1.1944,-1.2295,-1.4087,-1.5162,-1.4748,-1.471,-1.5003,-1.5649,-1.5634,-1.6085,-1.7168,-1.7896,-1.8215,-1.8126,-1.8311,-1.8585,-1.8941,-1.9773,-2.0254,-2.0454,-2.1117,-2.139,-2.139,-2.0979,-2.0795,-2.0746,-2.0105,-1.9798,-1.9798,-1.9798,-1.9798,-1.9798,-1.9798,-1.9798,-1.9924,-2.0865,-2.1455,-2.1895,-2.2811,-2.3078,-2.3078,-2.3078,-2.3078,-2.3078,-2.3078,-2.3078,-2.3078,-2.3078,-2.3078,-2.3078,-2.3078,-2.3078,-2.3078,-2.3078,-2.3078,-2.3078,-2.3078,-2.3078,-2.3078,-2.3078,-2.3078,-2.3078,-2.3078,-2.3078,-2.3078,-2.3078,-2.3078,-2.3078,-2.3078,-2.3078,-2.3078,-2.3078,-2.3078,-2.3078,-2.3078,-2.3078,-2.2975,-2.2611,-2.1338,-2.0761,-2.123,-1.9764,-1.8988,-1.8988,-1.93,-1.8715,-1.7246,-1.7743,-1.7357,-1.6151,-1.6151,-1.5864,-2.231,-2.231,-2.2124,-2.1363,-2.0805,-2.0247,-1.9469,-1.9502,-1.9681,-1.9496,-1.988,-2.0127,-1.972,-1.9113,-1.8191,0.0,0.0,0.0,0.0,-1.2084,-1.207,-1.1943,-1.3486,-1.4278,-1.3586,-1.3697,-1.4063,-1.4673,-1.481,-1.5547,-1.7088,-1.7627,-1.7969,-1.8092,-1.8235,-1.841,-1.864,-1.988,-2.0574,-2.0809,-2.162,-2.2053,-2.2039,-2.1403,-2.1113,-2.1064,-2.0181,-1.9798,-1.9798,-1.9798,-1.9798,-1.9798,-1.9798,-1.9798,-1.9874,-2.0504,-2.1142,-2.1882,-2.2598,-2.2915,-2.3078,-2.3078,-2.3078,-2.3078,-2.3078,-2.3078,-2.3078,-2.3078,-2.3078,-2.3078,-2.3078,-2.3078,-2.3078,-2.3078,-2.3078,-2.3078,-2.3078,-2.3078,-2.3078,-2.3078,-2.3078,-2.3078,-2.3078,-2.3078,-2.3078,-2.3078,-2.3078,-2.3078,-2.3078,-2.3078,-2.3078,-2.3078,-2.3078,-2.299,-2.2862,-2.2836,-2.2611,-2.2058,-2.1087,-2.0576,-2.0677,-1.9666,-1.9097,-1.9097,-1.9579,-1.9202,-1.8004,-1.8447,-1.795,-1.6492,-1.6492,-1.6093]},{"header":{"parameterUnit":"m.s-1","parameterCategory":1,"la1":30.6,"la2":29.2853,"lo1":-89.7004,"lo2":-87.6739,"dy":0.0162,"dx":0.0183,"nx":112,"ny":82,"refTime":"2024-07-28T12:00:00:Z","depth":0,"parameterNumber":3,"parameterNumberName":"V-component_of_WINDS"},"data":[0.0,0.0,0.0,0.0,0.0,0.0,0.0,0.0,0.0,0.0,0.0,0.0,0.0,0.0,0.0,0.0,0.0,0.0,0.0,0.0,0.0,0.0,0.0,0.0,0.0,0.0,0.0,0.0,0.0,0.0,0.0,0.0,0.0,0.0,0.0,0.0,0.0,0.0,0.0,0.0,0.0,0.0,0.0,0.0,0.0,0.0,0.0,0.0,0.0,0.0,0.0,0.0,0.0,0.0,0.0,0.0,0.0,0.0,0.0,0.0,0.0,0.0,0.0,0.0,0.0,0.0,0.0,0.0,0.0,0.0,0.0,0.0,0.0,0.0,0.0,0.0,0.0,0.0,0.0,0.0,0.0,0.0,0.0,0.0,0.0,0.0,0.0,0.0,0.0,0.0,-1.3609,-1.565,-1.8539,-2.0233,-2.0069,-1.9798,-1.8304,-1.5146,0.0,0.0,0.0,0.0,0.0,0.0,0.0,0.0,0.0,0.0,0.0,0.0,0.0,0.0,0.0,0.0,0.0,0.0,0.0,0.0,0.0,0.0,0.0,0.0,0.0,0.0,0.0,0.0,0.0,0.0,0.0,0.0,0.0,0.0,0.0,0.0,0.0,0.0,0.0,0.0,0.0,0.0,0.0,0.0,0.0,0.0,0.0,0.0,0.0,0.0,0.0,0.0,0.0,0.0,0.0,0.0,0.0,0.0,0.0,0.0,0.0,0.0,0.0,0.0,0.0,0.0,0.0,0.0,0.0,0.0,0.0,0.0,0.0,0.0,0.0,0.0,0.0,0.0,0.0,0.0,0.0,0.0,0.0,0.0,0.0,0.0,0.0,0.0,0.0,0.0,0.0,0.0,0.0,0.0,0.0,0.0,0.0,0.0,0.0,0.0,0.0,0.0,0.0,0.0,-1.4975,-1.81,-1.9561,-2.0285,-2.0269,-1.9456,-1.7873,-1.5319,0.0,0.0,0.0,0.0,0.0,0.0,0.0,0.0,0.0,0.0,0.0,0.0,0.0,0.0,0.0,0.0,0.0,0.0,0.0,0.0,0.0,0.0,0.0,0.0,0.0,0.0,0.0,0.0,0.0,0.0,0.0,0.0,0.0,0.0,0.0,0.0,0.0,0.0,0.0,0.0,0.0,0.0,0.0,0.0,0.0,0.0,0.0,0.0,0.0,0.0,0.0,0.0,0.0,0.0,0.0,0.0,0.0,0.0,0.0,0.0,0.0,0.0,0.0,0.0,0.0,0.0,0.0,0.0,0.0,0.0,0.0,0.0,0.0,0.0,0.0,0.0,0.0,0.0,0.0,0.0,0.0,0.0,0.0,0.0,0.0,0.0,0.0,0.0,0.0,0.0,0.0,0.0,0.0,0.0,0.0,0.0,0.0,0.0,0.0,0.0,0.0,0.0,0.0,-1.3716,-1.5771,-1.8684,-1.9773,-2.0269,-2.0152,-1.9725,-1.8181,-1.5221,-1.4958,0.0,0.0,0.0,0.0,0.0,0.0,0.0,0.0,0.0,0.0,0.0,0.0,0.0,0.0,0.0,0.0,0.0,0.0,0.0,0.0,0.0,0.0,0.0,0.0,0.0,0.0,0.0,0.0,0.0,0.0,0.0,0.0,0.0,0.0,0.0,0.0,0.0,0.0,0.0,0.0,0.0,0.0,0.0,0.0,0.0,0.0,0.0,0.0,0.0,0.0,0.0,0.0,0.0,0.0,0.0,0.0,0.0,0.0,0.0,0.0,0.0,0.0,0.0,0.0,0.0,0.0,0.0,0.0,0.0,0.0,0.0,0.0,0.0,0.0,0.0,0.0,0.0,0.0,0.0,0.0,0.0,0.0,0.0,0.0,0.0,0.0,0.0,0.0,0.0,0.0,0.0,0.0,0.0,0.0,0.0,0.0,0.0,0.0,0.0,0.0,0.0,0.0,-1.5598,-1.672,-1.9061,-1.9908,-2.0241,-2.0078,-1.9716,-1.8201,-1.5161,-1.4639,0.0,0.0,0.0,0.0,0.0,0.0,0.0,0.0,0.0,0.0,0.0,0.0,0.0,0.0,0.0,0.0,0.0,0.0,0.0,0.0,0.0,0.0,0.0,0.0,0.0,0.0,0.0,0.0,0.0,0.0,0.0,0.0,0.0,0.0,0.0,0.0,0.0,0.0,0.0,0.0,0.0,0.0,0.0,0.0,0.0,0.0,0.0,0.0,0.0,0.0,0.0,0.0,0.0,0.0,0.0,0.0,0.0,0.0,0.0,0.0,0.0,0.0,0.0,0.0,0.0,0.0,0.0,0.0,0.0,0.0,0.0,0.0,0.0,0.0,0.0,0.0,0.0,0.0,0.0,0.0,0.0,0.0,0.0,0.0,0.0,0.0,0.0,0.0,0.0,0.0,0.0,0.0,0.0,0.0,0.0,0.0,0.0,0.0,0.0,0.0,0.0,0.0,-1.6663,-1.829,-2.0015,-2.0254,-2.0285,-2.0277,-1.8846,-1.7168,-1.5299,-1.3722,0.0,0.0,0.0,0.0,0.0,0.0,0.0,0.0,0.0,0.0,0.0,0.0,0.0,0.0,0.0,0.0,0.0,0.0,0.0,0.0,0.0,0.0,0.0,0.0,0.0,0.0,0.0,0.0,0.0,0.0,0.0,0.0,0.0,0.0,0.0,0.0,0.0,0.0,0.0,0.0,0.0,0.0,0.0,0.0,0.0,0.0,0.0,0.0,0.0,0.0,0.0,0.0,0.0,0.0,0.0,0.0,0.0,0.0,0.0,0.0,0.0,0.0,0.0,0.0,0.0,0.0,0.0,0.0,0.0,0.0,0.0,0.0,0.0,0.0,0.0,0.0,0.0,0.0,0.0,0.0,0.0,0.0,0.0,0.0,0.0,0.0,0.0,0.0,0.0,0.0,0.0,0.0,0.0,0.0,0.0,0.0,0.0,0.0,0.0,0.0,0.0,0.0,-1.6285,-1.7843,-2.0054,-2.0312,-2.0312,-2.0312,-1.9219,-1.7591,-1.5344,0.0,0.0,0.0,0.0,0.0,0.0,0.0,0.0,0.0,0.0,0.0,0.0,0.0,0.0,0.0,0.0,0.0,0.0,0.0,0.0,0.0,0.0,0.0,0.0,0.0,0.0,0.0,0.0,0.0,0.0,0.0,0.0,0.0,0.0,0.0,0.0,0.0,0.0,0.0,0.0,0.0,0.0,0.0,0.0,0.0,0.0,0.0,0.0,0.0,0.0,0.0,0.0,0.0,0.0,0.0,0.0,0.0,0.0,0.0,0.0,0.0,0.0,0.0,0.0,0.0,0.0,0.0,0.0,0.0,0.0,0.0,0.0,0.0,0.0,0.0,0.0,0.0,0.0,0.0,0.0,0.0,0.0,0.0,0.0,0.0,0.0,0.0,0.0,0.0,0.0,0.0,0.0,0.0,0.0,0.0,0.0,0.0,0.0,0.0,0.0,0.0,0.0,-1.5006,-1.6228,-1.7753,-2.0062,-2.0312,-2.0312,-2.0312,-1.9016,-1.7348,-1.5293,0.0,0.0,0.0,0.0,0.0,0.0,0.0,0.0,0.0,0.0,0.0,0.0,0.0,0.0,0.0,0.0,0.0,0.0,0.0,0.0,0.0,0.0,0.0,0.0,0.0,0.0,0.0,0.0,0.0,0.0,0.0,0.0,0.0,0.0,0.0,0.0,0.0,0.0,0.0,0.0,0.0,0.0,0.0,0.0,0.0,0.0,0.0,0.0,0.0,0.0,0.0,0.0,0.0,0.0,0.0,0.0,0.0,0.0,0.0,0.0,0.0,0.0,0.0,0.0,0.0,0.0,0.0,0.0,0.0,0.0,0.0,0.0,0.0,0.0,0.0,0.0,0.0,0.0,0.0,0.0,0.0,0.0,0.0,0.0,0.0,0.0,0.0,0.0,0.0,0.0,0.0,0.0,0.0,0.0,0.0,0.0,0.0,0.0,0.0,0.0,0.0,0.0,-1.5069,-1.6708,-1.8369,-2.0119,-2.0312,-2.0312,-2.0312,-1.798,-1.6108,0.0,0.0,0.0,0.0,0.0,0.0,0.0,0.0,0.0,0.0,0.0,0.0,0.0,0.0,0.0,0.0,0.0,0.0,0.0,0.0,0.0,0.0,0.0,0.0,0.0,0.0,0.0,0.0,0.0,0.0,0.0,0.0,0.0,0.0,0.0,0.0,0.0,0.0,0.0,0.0,0.0,0.0,0.0,0.0,0.0,0.0,0.0,0.0,0.0,0.0,0.0,0.0,0.0,0.0,0.0,0.0,0.0,0.0,0.0,0.0,0.0,0.0,0.0,0.0,0.0,0.0,0.0,0.0,0.0,0.0,0.0,0.0,0.0,0.0,0.0,0.0,0.0,0.0,0.0,0.0,0.0,0.0,0.0,0.0,0.0,0.0,0.0,0.0,0.0,0.0,0.0,0.0,0.0,0.0,0.0,0.0,0.0,0.0,0.0,0.0,0.0,0.0,0.0,-1.5006,-1.6676,-1.8369,-2.0119,-2.0312,-2.0312,-2.0312,-1.8436,-1.6605,-1.5061,0.0,0.0,0.0,0.0,0.0,0.0,0.0,0.0,0.0,0.0,0.0,0.0,0.0,0.0,0.0,0.0,0.0,0.0,0.0,0.0,0.0,0.0,0.0,0.0,0.0,0.0,0.0,0.0,0.0,0.0,0.0,0.0,0.0,0.0,0.0,0.0,0.0,0.0,0.0,0.0,0.0,0.0,0.0,0.0,0.0,0.0,0.0,0.0,0.0,0.0,0.0,0.0,0.0,0.0,0.0,0.0,0.0,0.0,0.0,0.0,0.0,0.0,0.0,0.0,0.0,0.0,0.0,0.0,0.0,0.0,0.0,0.0,0.0,0.0,0.0,0.0,0.0,0.0,0.0,0.0,0.0,0.0,0.0,0.0,0.0,0.0,0.0,0.0,0.0,0.0,0.0,0.0,0.0,0.0,0.0,0.0,0.0,0.0,0.0,0.0,0.0,0.0,-1.5025,-1.6964,-1.8754,-2.0158,-2.0312,-2.0277,-2.0197,-1.8892,-1.728,-1.5412,0.0,0.0,0.0,0.0,0.0,0.0,0.0,0.0,0.0,0.0,0.0,0.0,0.0,0.0,0.0,0.0,0.0,0.0,0.0,0.0,0.0,0.0,0.0,0.0,0.0,0.0,0.0,0.0,0.0,0.0,0.0,0.0,0.0,0.0,0.0,0.0,0.0,0.0,0.0,0.0,0.0,0.0,0.0,0.0,0.0,0.0,0.0,0.0,0.0,0.0,0.0,0.0,0.0,0.0,0.0,0.0,0.0,0.0,0.0,0.0,0.0,0.0,0.0,0.0,0.0,0.0,0.0,0.0,0.0,0.0,0.0,0.0,0.0,0.0,0.0,0.0,0.0,0.0,0.0,0.0,0.0,0.0,0.0,0.0,0.0,0.0,0.0,0.0,0.0,0.0,0.0,0.0,0.0,0.0,0.0,0.0,0.0,0.0,0.0,0.0,0.0,0.0,-1.5108,-1.749,-1.9453,-2.0331,-2.0392,-2.0312,-2.0136,-1.9297,-1.7947,-1.6017,0.0,0.0,0.0,0.0,0.0,0.0,0.0,0.0,0.0,0.0,0.0,0.0,0.0,0.0,0.0,0.0,0.0,0.0,0.0,0.0,0.0,0.0,0.0,0.0,0.0,0.0,0.0,0.0,0.0,0.0,0.0,0.0,0.0,0.0,0.0,0.0,0.0,0.0,0.0,0.0,0.0,0.0,0.0,0.0,0.0,0.0,0.0,0.0,0.0,0.0,0.0,0.0,0.0,0.0,0.0,0.0,0.0,0.0,0.0,0.0,-1.527,-1.4156,0.0,0.0,0.0,0.0,0.0,0.0,0.0,0.0,0.0,0.0,0.0,0.0,0.0,0.0,0.0,0.0,0.0,0.0,0.0,0.0,0.0,0.0,0.0,0.0,0.0,0.0,0.0,0.0,0.0,0.0,0.0,0.0,0.0,0.0,0.0,0.0,0.0,0.0,0.0,0.0,-1.5087,-1.8016,-2.035,-2.1158,-2.1157,-2.1062,-2.1023,-1.9465,-1.7757,-1.6003,-1.3524,0.0,0.0,0.0,0.0,0.0,0.0,0.0,0.0,0.0,0.0,0.0,0.0,0.0,0.0,0.0,0.0,0.0,0.0,0.0,0.0,0.0,0.0,0.0,0.0,0.0,0.0,0.0,0.0,0.0,0.0,0.0,0.0,0.0,0.0,0.0,0.0,0.0,0.0,0.0,0.0,0.0,0.0,0.0,0.0,0.0,0.0,0.0,0.0,0.0,0.0,0.0,0.0,0.0,0.0,0.0,0.0,0.0,0.0,0.0,-1.7812,-1.6721,0.0,0.0,0.0,0.0,0.0,0.0,0.0,0.0,0.0,0.0,0.0,0.0,0.0,0.0,0.0,0.0,0.0,0.0,0.0,0.0,0.0,0.0,0.0,0.0,0.0,0.0,0.0,0.0,0.0,0.0,0.0,0.0,0.0,0.0,0.0,0.0,0.0,0.0,0.0,0.0,-1.6234,-1.8942,-2.1053,-2.1886,-2.1828,-2.1543,-2.1104,-2.0126,-1.8839,-1.7206,-1.5103,0.0,0.0,0.0,0.0,0.0,0.0,0.0,0.0,0.0,0.0,0.0,0.0,0.0,0.0,0.0,0.0,0.0,0.0,0.0,0.0,0.0,0.0,0.0,0.0,0.0,0.0,0.0,0.0,0.0,0.0,0.0,0.0,0.0,0.0,0.0,0.0,0.0,0.0,0.0,0.0,0.0,0.0,0.0,0.0,0.0,0.0,0.0,0.0,0.0,0.0,0.0,0.0,0.0,-1.9597,-2.0276,-2.1442,-2.1166,-2.1726,-2.2815,-2.0528,-1.9719,-1.9896,-1.8441,0.0,0.0,0.0,0.0,0.0,0.0,0.0,0.0,0.0,0.0,0.0,0.0,0.0,0.0,0.0,0.0,0.0,0.0,0.0,0.0,0.0,0.0,-1.9328,-1.9118,-2.0028,-2.0223,-1.7623,0.0,0.0,0.0,0.0,0.0,0.0,0.0,0.0,0.0,0.0,0.0,-1.7687,-2.005,-2.189,-2.2604,-2.2501,-2.2074,-2.1291,-2.0931,-2.0131,-1.8677,-1.7039,-1.5533,0.0,0.0,0.0,0.0,0.0,0.0,0.0,0.0,0.0,0.0,0.0,0.0,0.0,0.0,0.0,0.0,0.0,0.0,0.0,0.0,0.0,0.0,0.0,0.0,0.0,0.0,0.0,0.0,0.0,0.0,0.0,0.0,-0.9996,-1.1519,0.0,0.0,0.0,0.0,0.0,0.0,0.0,0.0,0.0,0.0,0.0,0.0,0.0,-1.9596,-2.1175,-2.2591,-2.3676,-2.4467,-2.5164,-2.5403,-2.5262,-2.5216,-2.5177,-2.5075,-2.4703,0.0,-2.1582,-2.1348,0.0,0.0,0.0,0.0,0.0,0.0,0.0,0.0,0.0,0.0,0.0,0.0,0.0,0.0,0.0,0.0,0.0,0.0,0.0,0.0,0.0,0.0,-2.3479,-2.2718,-2.2605,-2.2556,-2.2134,-1.9835,-1.7325,-1.5658,-1.5421,-1.4987,0.0,0.0,0.0,0.0,0.0,0.0,-1.8431,-2.1278,-2.3243,-2.3369,-2.3251,-2.3092,-2.2983,-2.1491,-2.0209,-1.9416,-1.7837,-1.662,-1.5904,-1.4214,0.0,0.0,0.0,0.0,0.0,0.0,0.0,0.0,0.0,0.0,0.0,0.0,0.0,0.0,0.0,0.0,0.0,0.0,0.0,0.0,0.0,0.0,0.0,0.0,0.0,0.0,0.0,0.0,0.0,-0.9658,-1.1536,-1.2212,-1.3198,-1.3528,0.0,0.0,0.0,0.0,0.0,0.0,0.0,0.0,0.0,-2.0813,-2.2061,-2.329,-2.4483,-2.5199,-2.5952,-2.6759,-2.731,-2.7718,-2.8026,-2.7979,-2.7882,-2.7735,-2.7552,-2.6616,-2.5107,-2.3746,-2.2406,-2.116,0.0,0.0,0.0,0.0,-2.0874,-2.0697,-2.2029,-2.2197,-2.1662,-2.0757,0.0,0.0,0.0,0.0,0.0,0.0,0.0,-2.1738,-2.2173,-2.3637,-2.4912,-2.4543,-2.4394,-2.4226,-2.3768,-2.2538,-2.0792,-1.8264,-1.8135,-1.7544,-1.47,-1.4963,0.0,0.0,0.0,-1.9168,-2.0493,-2.2229,-2.3459,-2.3737,-2.3621,-2.3269,-2.2622,-2.1588,-2.0659,-1.9997,-1.8573,-1.7683,-1.75,-1.5423,-1.3961,0.0,0.0,0.0,0.0,0.0,0.0,0.0,0.0,0.0,0.0,0.0,0.0,0.0,0.0,0.0,0.0,0.0,0.0,0.0,0.0,0.0,0.0,0.0,0.0,0.0,0.0,0.0,0.0,-1.1417,-1.3007,-1.3379,-1.4862,-1.5483,0.0,0.0,0.0,0.0,0.0,0.0,-1.9586,-2.0996,-2.252,-2.419,-2.5585,-2.6704,-2.7512,-2.7732,-2.8072,-2.8565,-2.8815,-2.9151,-2.9572,-2.9525,-2.9471,-2.9351,-2.9102,-2.8653,-2.7961,-2.5937,-2.4704,-2.4042,-2.3749,-2.3374,-2.316,-2.4378,-2.4486,-2.422,-2.5862,-2.6045,-2.5372,-2.4279,-2.3382,-2.239,-2.0519,0.0,0.0,0.0,0.0,-2.3412,-2.4469,-2.5142,-2.5534,-2.5448,-2.5491,-2.5335,-2.4529,-2.4424,-2.3657,-2.0794,-2.0739,-2.0073,-1.6744,-1.7145,0.0,-1.7228,-1.8877,-2.0658,-2.2021,-2.2787,-2.3364,-2.3757,-2.366,-2.3245,-2.2369,-2.18,-2.1198,-2.0499,-1.9321,-1.8638,-1.8584,-1.6623,-1.5375,-1.5017,0.0,0.0,0.0,0.0,0.0,0.0,0.0,0.0,0.0,0.0,0.0,0.0,0.0,0.0,0.0,0.0,0.0,0.0,0.0,0.0,0.0,0.0,0.0,0.0,0.0,0.0,0.0,0.0,0.0,-1.6309,-1.7958,0.0,0.0,0.0,0.0,-1.8717,-2.046,-2.2226,-2.3804,-2.4685,-2.5899,-2.7512,-2.8393,-2.9219,-3.0008,-3.0779,-3.0987,-3.0648,-3.0684,-3.0261,-2.9503,-2.9504,-2.9334,-2.9011,-2.9011,-2.8958,-2.8856,-2.7995,-2.7367,-2.6999,-2.6964,-2.7126,-2.7313,-2.6707,-2.647,-2.6383,-2.6128,-2.5997,-2.6007,-2.6322,-2.586,-2.5201,-2.5072,-2.5171,0.0,0.0,-2.5856,-2.6542,-2.6032,-2.5924,-2.5889,-2.5559,-2.5736,-2.5744,-2.4946,-2.5066,-2.4832,-2.3144,-2.285,-2.2334,-2.0685,0.0,-2.0445,-2.0304,-2.0923,-2.1607,-2.2139,-2.2789,-2.3206,-2.3236,-2.3236,-2.3194,-2.3136,-2.2422,-2.1666,-2.0912,-2.0094,-1.9376,-1.8818,-1.7989,-1.694,-1.5594,-1.3971,0.0,0.0,0.0,0.0,0.0,0.0,0.0,0.0,0.0,0.0,0.0,0.0,0.0,0.0,0.0,0.0,0.0,0.0,0.0,0.0,0.0,0.0,0.0,0.0,0.0,0.0,0.0,0.0,-1.7957,-1.9949,0.0,-1.977,-2.1201,-2.2247,-2.2434,-2.3743,-2.5124,-2.6447,-2.7273,-2.8227,-2.931,-3.0118,-3.0687,-3.0962,-3.1256,-3.1462,-3.1567,-3.1267,-3.1062,-3.0975,-3.0702,-3.053,-3.0412,-3.0412,-3.0412,-3.0378,-3.0108,-2.9336,-2.8391,-2.8611,-2.8741,-2.8853,-2.8855,-2.9036,-2.9275,-2.9125,-2.9272,-2.9406,-2.9025,-2.8374,-2.7622,-2.709,-2.6988,-2.705,-2.6967,-2.7024,-2.7164,-2.7452,-2.7394,-2.7059,-2.6419,-2.654,-2.6555,-2.5757,-2.5687,-2.5699,-2.5379,-2.4483,-2.3198,-2.1407,-2.1935,-2.2188,-2.0891,-2.178,-2.2646,-2.283,-2.3041,-2.3117,-2.2898,-2.2873,-2.2815,-2.2651,-2.2037,-2.1353,-2.061,-2.0033,-1.9383,-1.8698,-1.8053,-1.7214,-1.6208,-1.4794,-1.2876,0.0,0.0,0.0,0.0,0.0,0.0,0.0,0.0,0.0,0.0,0.0,0.0,0.0,0.0,0.0,0.0,0.0,0.0,0.0,0.0,0.0,0.0,0.0,0.0,0.0,-1.667,-1.8427,-1.9545,-2.1667,-2.275,-2.2006,-2.3399,-2.4689,-2.5551,-2.6397,-2.7507,-2.8943,-2.9531,-3.0191,-3.098,-3.1531,-3.1865,-3.1991,-3.2009,-3.1981,-3.1947,-3.1608,-3.1638,-3.1981,-3.1686,-3.1698,-3.1935,-3.1935,-3.1935,-3.1935,-3.1935,-3.136,-3.0467,-3.0187,-3.0178,-3.0283,-3.0291,-3.0588,-3.098,-3.0872,-3.1101,-3.1311,-3.0779,-3.0246,-2.969,-2.9022,-2.881,-2.8785,-2.8626,-2.8386,-2.8264,-2.8671,-2.8417,-2.7899,-2.7243,-2.7137,-2.7059,-2.6369,-2.6233,-2.626,-2.6395,-2.5528,-2.432,-2.2775,-2.3404,-2.3508,-2.1708,-2.2347,-2.2996,-2.2908,-2.2908,-2.2807,-2.259,-2.2563,-2.25,-2.231,-2.1754,-2.119,-2.0693,-1.9888,-1.9241,-1.8854,-1.8039,-1.7247,-1.6504,-1.4921,-1.3178,-1.1297,0.0,0.0,0.0,0.0,0.0,0.0,0.0,0.0,0.0,0.0,0.0,0.0,0.0,0.0,0.0,0.0,0.0,0.0,0.0,0.0,0.0,0.0,0.0,-1.6259,-1.8151,-1.9942,-2.1167,-2.3236,-2.4286,-2.3562,-2.4494,-2.5935,-2.789,-2.8309,-2.9352,-3.1304,-3.1421,-3.1825,-3.2669,-3.2661,-3.2849,-3.3286,-3.3256,-3.2766,-3.1858,-3.1858,-3.2049,-3.2307,-3.2307,-3.2713,-3.3406,-3.3406,-3.3406,-3.3406,-3.3406,-3.3406,-3.3271,-3.1833,-3.15,-3.1737,-3.1011,-3.1024,-3.1373,-3.1067,-3.1174,-3.1433,-3.1433,-3.1433,-3.1356,-3.0948,-3.0836,-3.0733,-3.0247,-3.0074,-2.998,-2.9589,-2.8952,-2.8318,-2.7894,-2.7569,-2.7222,-2.682,-2.6717,-2.6579,-2.6152,-2.6057,-2.5787,-2.5041,-2.4897,-2.4402,-2.2954,-2.273,0.0,-2.2338,-2.231,-2.231,-2.231,-2.231,-2.231,-2.231,-2.1634,-2.1221,-2.117,-1.9764,-1.9052,-1.9312,-1.8097,-1.7151,-1.6558,-1.4447,-1.2986,-1.2195,0.0,0.0,0.0,0.0,0.0,0.0,0.0,0.0,0.0,0.0,0.0,0.0,0.0,0.0,0.0,0.0,0.0,0.0,0.0,0.0,0.0,-1.6632,-1.8521,-1.8982,-2.0242,-2.1736,-2.3397,-2.488,-2.575,-2.5776,-2.7074,-2.8215,-2.9025,-2.9757,-3.0649,-3.1773,-3.209,-3.2926,-3.4293,-3.4011,-3.4165,-3.4848,-3.4488,-3.4005,-3.3485,-3.3485,-3.3333,-3.3102,-3.3102,-3.322,-3.3406,-3.3406,-3.3406,-3.3406,-3.3406,-3.3406,-3.3372,-3.2949,-3.254,-3.2156,-3.1935,-3.1795,-3.1725,-3.1983,-3.2103,-3.2197,-3.2197,-3.2197,-3.2059,-3.1364,-3.1155,-3.1018,-3.0296,-2.9884,-2.9655,-2.9522,-2.9179,-2.8643,-2.796,-2.7946,-2.791,-2.727,-2.7143,-2.7192,-2.7351,-2.7141,-2.6521,-2.5207,-2.4979,-2.4555,-2.3386,-2.3227,-2.2983,-2.2378,-2.231,-2.231,-2.231,-2.231,-2.231,-2.231,-2.2124,-2.1596,-2.0683,-2.022,-1.9883,-1.9671,-1.8948,-1.8177,-1.7399,-1.5845,-1.4831,0.0,0.0,0.0,0.0,0.0,0.0,0.0,0.0,0.0,0.0,0.0,0.0,0.0,0.0,0.0,0.0,0.0,0.0,0.0,0.0,0.0,0.0,-1.905,-2.1068,-2.22,-2.2945,-2.3809,-2.506,-2.6532,-2.7409,-2.7399,-2.8511,-2.9452,-2.9954,-3.0645,-3.1494,-3.2462,-3.3186,-3.4018,-3.4954,-3.4885,-3.4932,-3.5198,-3.4711,-3.4227,-3.3825,-3.3825,-3.3833,-3.3863,-3.3863,-3.4032,-3.4336,-3.4336,-3.4336,-3.4336,-3.4336,-3.4336,-3.4269,0.0,0.0,0.0,0.0,-3.2711,-3.2564,-3.2523,-3.2484,-3.2484,-3.2484,-3.2484,-3.2362,-3.1703,-3.1496,-3.1374,-3.0751,-3.0403,-3.0206,-3.0206,-2.9836,-2.933,-2.889,-2.8696,-2.8476,-2.7881,-2.7629,-2.7526,-2.763,-2.7317,0.0,-2.587,-2.5609,-2.5114,-2.4011,-2.3596,-2.3241,-2.2818,-2.2496,-2.231,-2.231,-2.231,-2.231,-2.231,-2.2126,0.0,0.0,0.0,-2.0305,-1.9503,-1.9165,0.0,0.0,0.0,0.0,0.0,-1.6783,0.0,0.0,-1.4928,-1.4866,0.0,0.0,0.0,0.0,0.0,0.0,0.0,0.0,0.0,0.0,0.0,0.0,0.0,0.0,0.0,0.0,-2.1284,-2.3431,-2.5487,-2.5894,-2.6086,-2.6479,-2.817,-2.9147,-2.8786,-2.9395,-3.0125,-3.0959,-3.1434,-3.2175,-3.34,-3.447,0.0,0.0,0.0,-3.5309,-3.4977,-3.4488,-3.4065,-3.366,-3.366,-3.3998,-3.4624,-3.4624,-3.4979,-3.5622,-3.5622,-3.5622,-3.5622,-3.5622,-3.5622,-3.5487,-3.4083,-3.3799,-3.412,-3.3738,-3.3583,-3.3477,-3.2843,0.0,0.0,-3.2614,-3.2614,-3.2528,-3.2017,-3.1854,-3.1763,-3.1308,-3.119,-3.119,-3.119,-3.0717,-3.0209,-3.0125,-2.96,-2.8999,-2.856,-2.8101,-2.7708,-2.7405,-2.699,-2.6691,-2.6691,-2.6456,-2.5876,-2.4774,-2.4069,-2.3579,-2.341,-2.2835,-2.2395,-2.2349,-2.2349,0.0,-2.2405,-2.2014,-2.2049,-2.2623,-2.1773,-2.0653,-1.9378,-1.9362,-1.8967,-1.8072,-1.7825,-1.8364,-1.9693,-1.9776,-1.9939,-2.0173,-1.7548,-1.706,0.0,0.0,0.0,0.0,0.0,0.0,0.0,0.0,0.0,0.0,0.0,0.0,0.0,0.0,0.0,-2.1471,-2.3766,-2.5871,-2.7313,-2.8241,-2.8734,-2.8558,-2.973,-3.061,-3.0804,-3.0903,-3.1573,-3.3,-3.3208,-3.3797,-3.5074,-3.5304,-3.5716,-3.6367,-3.5667,-3.5523,-3.607,-3.5583,-3.527,-3.5182,-3.5182,0.0,-3.5402,-3.5402,-3.5487,-3.5622,-3.5622,-3.5622,-3.5622,-3.5622,-3.5622,-3.5537,-3.4641,-3.4355,-3.4338,-3.3673,-3.3441,-3.3424,-3.327,-3.3236,-3.3236,-3.3236,-3.3236,-3.3117,-3.2423,-3.2196,0.0,-3.1399,-3.119,-3.119,-3.119,-3.1089,-3.0835,-3.0243,-2.9989,-2.9722,-2.9016,-2.8335,-2.7774,-2.7725,-2.7165,-2.6691,-2.6691,-2.6639,-2.6316,-2.549,-2.527,-2.4746,-2.3545,-2.3274,-2.3034,-2.2651,-2.2608,-2.2738,-2.2989,-2.2946,-2.2805,-2.2543,-2.2584,-2.2209,-2.1312,-2.1623,-2.1337,-2.0294,-2.0174,-2.0145,-2.0252,-2.0738,-2.0997,-2.1038,-2.0481,-2.0153,0.0,0.0,0.0,0.0,0.0,0.0,0.0,0.0,0.0,0.0,0.0,-1.8025,-1.9401,0.0,-2.2613,-2.4284,-2.609,-2.7656,-2.8676,-3.0125,-3.0821,-3.0084,-3.103,-3.1737,-3.1703,-3.2018,-3.2638,-3.3647,-3.3904,-3.449,-3.5525,-3.5927,-3.6291,-3.6687,-3.613,-3.5994,-3.6374,-3.5854,-3.5622,-3.5622,-3.5622,-3.5622,-3.5622,-3.5622,-3.5622,-3.5622,-3.5622,-3.5622,-3.5622,-3.5622,-3.5622,-3.5588,-3.5199,-3.5064,-3.4962,-3.4218,-3.3947,-3.3897,-3.3541,-3.3406,-3.3406,-3.3406,-3.3406,-3.3339,-3.2949,-3.2577,-3.2205,-3.1833,-3.1478,-3.119,-3.119,-3.119,-3.1106,-3.0734,-3.0649,-3.0446,-2.9702,-2.9228,-2.8738,-2.7941,-2.752,-2.7131,-2.6759,-2.6691,-2.6573,-2.6201,-2.5845,-2.5402,-2.488,-2.4127,-2.3615,-2.3578,-2.32,-2.3021,-2.3189,-2.3346,-2.3426,-2.3353,-2.3508,-2.3161,-2.219,-2.226,-2.1945,-2.1225,-2.1079,-2.1174,-2.1562,-2.1855,-2.2171,-2.2499,-2.2499,-2.2222,0.0,0.0,0.0,0.0,0.0,0.0,0.0,-1.6763,-1.7529,-1.8502,-1.947,-2.0709,-2.2494,-2.3509,-2.4726,-2.681,-2.8072,-2.9152,-3.0069,-3.1597,-3.2326,-3.1547,-3.2273,-3.2729,-3.2389,-3.2882,-3.3471,-3.4163,-3.4465,-3.5087,-3.6141,-3.6579,-3.6786,-3.6786,-3.6431,-3.6249,-3.6249,-3.5827,-3.5622,-3.5622,-3.5622,-3.5622,-3.5622,-3.5622,-3.5622,-3.5622,-3.5622,-3.5622,-3.5622,-3.5622,-3.5622,-3.5622,-3.5622,-3.5622,-3.5537,-3.4928,-3.4709,-3.4624,-3.4032,-3.3846,-3.3846,-3.3846,-3.3846,-3.3812,-3.366,-3.3186,-3.2645,-3.2357,-3.185,-3.1376,-3.1241,-3.119,-3.119,-3.119,-3.119,-3.1038,-3.0446,-3.0209,-2.9736,-2.8501,-2.7992,-2.7621,-2.7012,-2.6793,-2.6691,-2.6691,-2.6184,-2.5922,-2.6182,-2.512,-2.44,-2.4484,-2.3928,-2.3483,-2.341,-2.3649,-2.3917,-2.417,-2.4151,-2.3684,-2.277,-2.2398,-2.206,-2.1737,-2.1523,-2.1839,-2.2695,-2.2772,-2.3117,-2.3692,-2.3774,-2.3591,-1.3936,-1.4802,-1.5841,-1.7165,-1.7063,-1.7657,0.0,-2.1515,-2.1218,-2.3279,-2.3789,-2.4062,-2.4683,-2.5662,-2.6828,-2.8098,-2.9277,-3.0546,-3.2067,-3.246,-3.2808,-3.3405,-3.3578,-3.3633,-3.3606,-3.3354,-3.3984,-3.5864,-3.5678,-3.6331,-3.823,-3.7558,-3.7124,-3.7124,-3.6197,-3.5694,-3.5694,-3.5622,-3.5622,-3.5622,-3.5622,-3.5622,-3.5622,-3.5622,-3.5622,-3.5622,-3.5622,-3.5622,-3.5622,-3.5622,-3.5622,-3.5622,-3.5622,-3.5622,-3.5605,-3.552,-3.5504,-3.5487,-3.5402,-3.5368,-3.5368,-3.5368,-3.5368,-3.525,-3.4573,-3.432,-3.3964,-3.2645,-3.2222,-3.2019,-3.136,-3.119,-3.119,-3.119,-3.119,-3.1173,-3.1089,-3.0565,-3.0057,-2.9888,-2.8755,-2.7755,-2.7671,-2.7131,-2.6691,-2.6691,-2.6623,-2.6483,-2.6234,-2.6039,-2.5652,-2.4913,-2.4766,-2.4552,-2.4129,-2.4113,-2.417,-2.4208,-2.3917,-2.3699,-2.3566,-2.297,-2.2625,-2.2574,-2.2317,-2.2368,-2.2695,-2.2996,-2.3346,-2.3714,-2.3996,-2.4134,-1.804,-1.8347,-1.8464,-2.0222,-2.0776,-2.1319,-2.3028,-2.3241,-2.3388,-2.432,-2.4831,-2.5337,-2.5978,-2.6823,-2.7888,-2.9271,-3.0283,-3.1292,-3.2449,-3.2614,-3.2724,-3.3073,-3.3109,-3.3293,-3.3752,-3.3652,-3.43,-3.6174,-3.6102,-3.6656,-3.8143,-3.7596,-3.7076,-3.6724,-3.6011,-3.5622,-3.5622,-3.5622,-3.5622,-3.5622,-3.5622,-3.5622,-3.5622,-3.5622,-3.5876,-3.6299,-3.6299,-3.6299,-3.6265,-3.5808,-3.5622,-3.5622,-3.5622,-3.5622,-3.5622,-3.5622,-3.5622,-3.5622,-3.5622,-3.5622,-3.5622,-3.5622,-3.5622,-3.5554,-3.525,-3.4844,-3.4269,-3.322,-3.2611,-3.2121,-3.1376,-3.119,-3.119,-3.119,-3.119,-3.119,-3.119,-3.0954,-3.0615,-3.0192,-2.9228,-2.8349,-2.7857,-2.7199,-2.6691,-2.6691,-2.6691,-2.6819,-2.714,-2.6777,-2.6349,-2.5936,-2.5302,-2.482,-2.4623,-2.3985,-2.3628,-2.3628,-2.35,-2.3323,-2.3117,-2.2848,-2.2634,-2.2463,-2.2377,-2.2517,-2.2996,-2.3117,-2.3459,-2.3996,-2.4133,-2.419,-2.0044,-2.0592,-2.092,-2.2263,-2.333,-2.4053,-2.4011,-2.4408,-2.4847,-2.505,-2.5524,-2.6136,-2.6954,-2.7553,-2.8469,-3.0241,-3.1017,-3.1751,-3.2797,-3.2742,-3.2687,-3.2908,-3.2742,-3.2926,-3.3715,-3.3807,-3.4504,-3.6156,-3.6179,-3.6607,-3.7821,-3.7323,-3.6803,-3.6416,-3.5898,-3.5622,-3.5622,-3.5622,-3.5622,-3.5622,-3.5622,-3.5622,-3.5622,-3.5622,-3.6163,-3.706,-3.6637,-3.6586,-3.6721,-3.5943,-3.5622,-3.5622,-3.5622,-3.5622,-3.5622,-3.5622,-3.5622,-3.5622,-3.5622,-3.5622,-3.5622,-3.5622,-3.5622,-3.5622,-3.5622,-3.5233,-3.4658,-3.3914,-3.3169,-3.2425,-3.1681,-3.1343,-3.119,-3.119,-3.119,-3.119,-3.119,-3.119,-3.1038,-3.0514,-2.9803,-2.9042,-2.8281,-2.7503,-2.6928,-2.6725,-2.6691,-2.6971,-2.7666,-2.7141,-2.6668,-2.6631,-2.5672,-2.498,-2.4746,-2.3981,-2.3419,-2.3206,-2.3117,-2.2947,-2.2721,-2.2634,-2.25,-2.231,-2.231,-2.2598,-2.3189,-2.3189,-2.3544,-2.419,-2.419,-2.419,-1.8336,-2.0223,-2.2565,-2.236,-2.3422,-2.4675,-2.5372,-2.5558,-2.5778,-2.6488,-2.664,-2.6905,-2.7718,-2.788,-2.8647,-3.0972,-3.1366,-3.1935,-3.3532,-3.3091,-3.2908,-3.3678,-3.3073,-3.2926,-3.3715,-3.3807,-3.4504,-3.6156,-3.5805,-3.6233,-3.7821,-3.6981,-3.6416,-3.6374,-3.5898,-3.5622,-3.5622,-3.5622,-3.5622,-3.5622,-3.5622,-3.5622,-3.5622,-3.5622,-3.6451,-3.7787,-3.6299,-3.6079,-3.6721,-3.5943,-3.5622,-3.5622,-3.5622,-3.5622,-3.5622,-3.5622,-3.5622,-3.5622,-3.5622,-3.5622,-3.5622,-3.5622,-3.5622,-3.5622,-3.5622,-3.5605,-3.5419,-3.4675,-3.3931,-3.3203,-3.2442,-3.1732,-3.119,-3.119,-3.119,-3.119,-3.119,-3.119,-3.119,-3.1157,-3.0581,-2.9837,-2.9076,-2.8298,-2.7537,-2.681,-2.6691,-2.6841,-2.7255,-2.697,-2.6692,-2.6702,-2.5968,-2.5173,-2.4378,-2.429,-2.3954,-2.3242,-2.288,-2.2721,-2.2695,-2.2436,-2.231,-2.231,-2.231,-2.2598,-2.3189,-2.3189,-2.3544,-2.419,-2.419,-2.419,-2.1172,-2.2088,-2.2986,-2.4181,-2.4864,-2.5423,-2.6167,-2.6336,-2.6251,-2.6031,-2.5981,-2.6051,-2.6274,-2.6792,-2.7924,-3.0222,-3.1035,-3.1953,-3.3568,-3.3109,-3.2706,-3.2981,-3.2761,-3.2601,-3.2591,-3.3342,-3.4504,-3.6156,-3.5805,-3.6049,-3.7344,-3.6803,-3.6224,-3.5898,-3.5694,-3.5622,-3.5622,-3.5622,-3.5622,-3.5622,-3.5622,-3.5893,-3.64,-3.64,-3.7212,-3.8548,-3.7043,-3.6823,-3.7432,-3.6146,-3.5622,-3.5622,-3.5622,-3.5622,-3.5622,-3.5622,-3.5622,-3.5622,-3.5622,-3.5622,-3.5622,-3.5622,-3.5622,-3.5622,-3.5622,-3.5622,-3.547,-3.4709,-3.3964,-3.3237,-3.2476,-3.1732,-3.119,-3.119,-3.119,-3.119,-3.119,-3.119,-3.119,-3.119,-3.0598,-3.0023,-2.977,-2.867,-2.7571,-2.681,-2.6939,-2.7147,-2.7286,-2.7408,-2.7497,-2.7497,-2.6567,-2.5847,-2.5586,-2.4424,-2.3612,-2.3337,-2.2764,-2.2409,-2.2409,-2.2349,-2.231,-2.231,-2.231,-2.2598,-2.3189,-2.3189,-2.3544,-2.419,-2.419,-2.419,-2.2547,-2.3232,-2.3818,-2.5249,-2.5812,-2.6116,-2.659,-2.6488,-2.6167,-2.571,-2.5389,-2.5265,-2.5464,-2.587,-2.6943,-2.9191,-3.0145,-3.1138,-3.2718,-3.249,-3.2353,-3.2886,-3.2705,-3.2624,-3.2939,-3.3659,-3.4582,-3.5683,-3.5518,-3.5846,-3.6851,-3.6416,-3.5941,-3.5622,-3.5622,-3.5622,-3.5622,-3.5893,-3.6163,-3.6434,-3.6434,-3.684,-3.7567,-3.7297,-3.799,-3.9292,-3.7533,-3.7212,-3.7787,-3.6248,-3.5622,-3.5622,-3.5622,-3.5622,-3.5622,-3.5622,-3.5622,-3.5622,-3.5622,-3.5622,-3.5622,-3.5622,-3.5622,-3.5622,-3.5622,-3.5622,-3.552,-3.503,-3.4353,-3.3677,-3.3203,-3.2324,-3.1579,-3.1579,-3.1376,-3.119,-3.119,-3.119,-3.119,-3.119,-3.0818,-3.0412,-3.0159,-2.8839,-2.762,-2.7165,-2.7077,-2.7083,-2.7083,-2.7303,-2.747,-2.747,-2.6668,-2.6021,-2.5732,-2.4568,-2.379,-2.3522,-2.3001,-2.2699,-2.2699,-2.2446,-2.231,-2.231,-2.231,-2.2544,-2.3021,-2.3141,-2.3482,-2.4016,-2.4151,-2.419,-2.2513,-2.3682,-2.506,-2.5537,-2.6184,-2.6674,-2.664,-2.6099,-2.5575,-2.5424,-2.4864,-2.4547,-2.5139,-2.5137,-2.5743,-2.7913,-2.8754,-2.9674,-3.115,-3.137,-3.1921,-3.3387,-3.2895,-3.3054,-3.4553,-3.4711,-3.4729,-3.4783,-3.5056,-3.5561,-3.634,-3.5898,-3.5622,-3.5622,-3.5622,-3.5639,-3.5673,-3.6451,-3.7195,-3.7905,-3.7905,-3.8294,-3.8971,-3.8244,-3.87,-3.9952,-3.7736,-3.7212,-3.7787,-3.6248,-3.5622,-3.5622,-3.5622,-3.5622,-3.5622,-3.5622,-3.5622,-3.5622,-3.5622,-3.5622,-3.5622,-3.5622,-3.5622,-3.5622,-3.5622,-3.5622,-3.5622,-3.5622,-3.5081,-3.4489,-3.4489,-3.3389,-3.2313,-3.2313,-3.1732,-3.119,-3.119,-3.119,-3.119,-3.119,-3.119,-3.097,-3.0243,-2.8907,-2.7874,-2.7806,-2.7199,-2.6742,-2.6691,-2.6691,-2.6691,-2.6657,-2.6262,-2.5681,-2.4903,-2.4804,-2.451,-2.3819,-2.3572,-2.346,-2.346,-2.2784,-2.2395,-2.2361,-2.2361,-2.246,-2.2695,-2.3045,-2.3369,-2.3714,-2.4036,-2.419,-2.4323,-2.5096,-2.5586,-2.6267,-2.6556,-2.6472,-2.5647,-2.553,-2.5023,-2.3017,-2.2748,-2.2637,-2.1903,-2.3145,-2.4742,-2.6081,-2.8337,-3.0106,-3.0658,-3.1638,-3.2418,-3.2891,-3.3182,-3.3616,-3.4192,-3.4749,-3.4921,-3.4614,-3.4949,-3.5561,-3.634,-3.5898,-3.5622,-3.5622,-3.5622,-3.5893,-3.6485,-3.7246,-3.7719,-3.7905,-3.7905,-3.8294,-3.8971,-3.8244,-3.87,-3.9952,-3.7736,-3.7212,-3.7787,-3.6248,-3.5622,-3.5622,-3.5622,-3.5622,-3.5622,-3.5622,-3.5622,-3.5622,-3.5622,-3.5622,-3.5622,-3.5622,-3.5622,-3.5622,-3.5622,-3.5622,-3.5622,-3.5622,-3.5081,-3.4489,-3.4489,-3.3389,-3.2313,-3.2313,-3.1732,-3.119,-3.119,-3.119,-3.119,-3.119,-3.119,-3.097,-3.0243,-2.9786,-2.9144,-2.7958,-2.762,-2.7334,-2.6759,-2.6691,-2.659,-2.6227,-2.6085,-2.577,-2.5153,-2.4906,-2.4724,-2.4543,-2.4325,-2.4205,-2.4205,-2.4036,-2.3663,-2.3122,-2.3122,-2.2971,-2.2695,-2.3045,-2.3369,-2.3714,-2.4036,-2.419,-2.5186,-2.5845,-2.6184,-2.659,-2.6454,-2.5916,-2.4796,-2.4229,-2.3276,-2.0964,-2.0673,-2.0548,-1.9556,-2.1062,-2.2843,-2.3858,-2.6429,-2.8459,-2.9013,-3.0537,-3.1892,-3.2517,-3.3211,-3.3897,-3.4668,-3.5137,-3.5266,-3.4979,-3.5224,-3.5566,-3.6037,-3.5783,-3.5622,-3.5622,-3.5943,-3.6481,-3.7251,-3.7335,-3.7546,-3.7876,-3.7876,-3.8074,-3.8454,-3.8369,-3.8789,-3.9527,-3.8299,-3.7821,-3.7821,-3.662,-3.5926,-3.5622,-3.5622,-3.5622,-3.5622,-3.5622,-3.5622,-3.5622,-3.5622,-3.5622,-3.5622,-3.5622,-3.5622,-3.5622,-3.5622,-3.5622,-3.5622,-3.5622,-3.5318,-3.4979,-3.4979,-3.388,-3.278,-3.278,-3.1968,-3.119,-3.119,-3.119,-3.119,-3.119,-3.119,-3.1072,-3.0649,-3.0311,-2.982,-2.8958,-2.8212,-2.7672,-2.7249,-2.6894,-2.6505,-2.6049,-2.5779,-2.554,-2.5221,-2.5212,-2.5322,-2.5529,-2.5368,-2.5257,-2.5257,-2.4768,-2.432,-2.3883,-2.3562,-2.3289,-2.3007,-2.3147,-2.33,-2.35,-2.3976,-2.4392,-2.5524,-2.6201,-2.6691,-2.6691,-2.615,-2.5275,-2.4033,-2.2692,-2.1097,-1.9111,-1.8651,-1.8398,-1.7738,-1.9052,-2.061,-2.1702,-2.3968,-2.5972,-2.7045,-2.8984,-3.0796,-3.2216,-3.302,-3.4057,-3.5448,-3.5622,-3.5622,-3.5622,-3.5622,-3.5622,-3.5622,-3.5622,-3.5611,-3.5621,-3.6363,-3.7052,-3.7679,-3.7125,-3.7141,-3.7822,-3.7822,-3.7822,-3.7822,-3.858,-3.8908,-3.8929,-3.8959,-3.8582,-3.7838,-3.7094,-3.6315,-3.5622,-3.5622,-3.5622,-3.5622,-3.5622,-3.5622,-3.5622,-3.5622,-3.5622,-3.5622,-3.5622,-3.5622,-3.5622,-3.5622,-3.5622,-3.5622,-3.5622,-3.5622,-3.5622,-3.5622,-3.4523,-3.3406,-3.3406,-3.2273,-3.119,-3.119,-3.119,-3.119,-3.119,-3.119,-3.119,-3.119,-3.0666,-3.0226,-3.0125,-2.889,-2.7943,-2.7806,-2.7165,-2.6505,-2.6049,-2.5635,-2.5341,-2.5265,-2.5704,-2.6166,-2.6555,-2.6444,-2.6363,-2.6363,-2.535,-2.476,-2.4659,-2.4019,-2.3659,-2.3616,-2.3544,-2.3478,-2.3442,-2.419,-2.4832,-2.6133,-2.659,-2.6691,-2.6691,-2.615,-2.5076,-2.2998,-2.1702,0.0,-1.7365,-1.6594,-1.6394,-1.6198,-1.7434,-1.9054,-2.0889,-2.3072,-2.5029,-2.6361,-2.8373,-3.0209,-3.1597,-3.282,-3.4105,-3.5453,-3.5622,-3.5622,-3.5622,-3.5622,-3.5622,-3.5622,-3.5622,-3.5602,-3.5596,-3.6323,-3.6774,-3.6901,-3.7399,-3.7694,-3.7822,-3.7822,-3.7822,-3.7822,-3.858,-3.8908,-3.8929,-3.8959,-3.8582,-3.7838,-3.7094,-3.6315,-3.5622,-3.5622,-3.5622,-3.5622,-3.5622,-3.5622,-3.5622,-3.5622,-3.5622,-3.5622,-3.5622,-3.5622,-3.5622,-3.5622,-3.5622,-3.5622,-3.5622,-3.5622,-3.5622,-3.5622,-3.4523,-3.3406,-3.3406,-3.2273,-3.119,-3.119,-3.119,-3.119,-3.119,-3.119,-3.119,-3.119,-3.1089,-3.0801,-3.0192,-2.9347,-2.8552,-2.7909,-2.7165,-2.6505,-2.6049,-2.6162,-2.613,-2.574,-2.6404,-2.6908,-2.6971,-2.7065,-2.7113,-2.7113,-2.6582,-2.6031,-2.5423,-2.5287,-2.5084,-2.4815,-2.5007,-2.4931,-2.4617,-2.5695,-2.5897,-2.5828,-2.6404,-2.6691,-2.6691,-2.5845,-2.4454,-2.2199,0.0,0.0,-1.5613,-1.4893,-1.4624,-1.4041,-1.5693,-1.7563,-1.8762,-2.1075,-2.338,-2.5223,-2.7211,-2.9249,-3.1374,-3.2757,-3.4085,-3.5481,-3.5622,-3.5622,-3.5622,-3.5253,-3.5098,-3.5098,-3.4752,-3.4906,-3.5643,-3.561,-3.5911,-3.6641,-3.6597,-3.66,-3.66,-3.66,-3.66,-3.6662,-3.779,-3.8117,-3.7726,-3.8236,-3.7801,-3.6682,-3.6009,-3.5268,-3.4609,-3.4941,-3.5098,-3.5098,-3.547,-3.5622,-3.5622,-3.5622,-3.5622,-3.5622,-3.5622,-3.5622,-3.5622,-3.5622,-3.5622,-3.5622,-3.5622,-3.5622,-3.5622,-3.5622,-3.4523,-3.3406,-3.3406,-3.2273,-3.119,-3.119,-3.119,-3.119,-3.119,-3.119,-3.119,-3.119,-3.119,-3.1072,-3.0734,-2.9702,-2.8839,-2.8467,-2.7418,-2.6505,-2.6049,-2.6284,-2.6421,-2.6183,-2.6923,-2.7531,-2.7756,-2.7672,-2.7589,-2.7589,-2.7019,-2.6522,-2.6184,-2.6002,-2.5824,-2.5652,-2.5764,-2.5721,-2.5538,-2.605,-2.6318,-2.5112,-2.5832,-2.6351,-2.62,-2.5162,-2.3599,-2.1341,-1.919,-1.6908,-1.4323,-1.3585,-1.3178,-1.2464,-1.413,-1.5968,0.0,-1.9111,-2.1423,-2.4028,-2.6046,-2.8309,-3.1053,-3.2653,-3.4051,-3.5448,-3.5622,-3.5622,-3.5622,-3.4847,-3.4382,-3.4382,-3.3887,-3.4106,-3.5204,-3.4763,-3.504,-3.6153,-3.5706,-3.5504,-3.5504,-3.5504,-3.5504,-3.5569,-3.6951,-3.7125,-3.6412,-3.7326,-3.6885,-3.5438,-3.4931,-3.429,-3.3633,-3.4186,-3.4479,-3.4671,-3.5207,-3.547,-3.5622,-3.5622,-3.5622,-3.5622,-3.5622,-3.5622,-3.5622,-3.5622,-3.5622,-3.5622,-3.5622,-3.5622,-3.5622,-3.5622,-3.4523,-3.3322,-3.3,-3.2036,-3.119,-3.119,-3.119,-3.119,-3.119,-3.119,-3.119,-3.119,-3.119,-3.119,-3.119,-3.0074,-2.9228,-2.9228,-2.8027,-2.6976,-2.6441,-2.6624,-2.6817,-2.6817,-2.752,-2.8103,-2.8376,-2.8075,-2.7869,-2.7783,-2.7083,-2.6691,-2.6691,-2.6516,-2.6479,-2.6568,-2.6516,-2.6423,-2.6333,-2.6375,-2.6648,-2.4223,-2.4825,-2.5174,-2.4567,-2.3806,-2.2609,-2.0193,0.0,-1.6013,-1.4182,-1.2837,-1.2156,-1.2644,-1.2953,-1.4126,-1.7163,0.0,-1.9351,-2.3161,-2.5387,-2.7633,-3.0346,-3.2327,-3.4051,-3.5448,-3.5622,-3.5622,-3.5622,-3.4399,-3.3684,-3.3684,-3.3633,-3.362,-3.3721,-3.4229,-3.4543,-3.4673,-3.5254,-3.5504,-3.5504,-3.5504,-3.5504,-3.5504,-3.6337,-3.6335,-3.5745,-3.6581,-3.6075,-3.4803,-3.4739,-3.429,-3.3582,-3.3684,-3.4087,-3.4624,-3.4688,-3.5098,-3.5622,-3.5622,-3.5622,-3.5622,-3.5622,-3.5622,-3.5622,-3.5622,-3.5622,-3.5622,-3.5622,-3.5622,-3.5622,-3.5622,-3.4523,-3.3068,-3.1715,-3.1292,-3.119,-3.119,-3.119,-3.119,-3.119,-3.119,-3.119,-3.119,-3.119,-3.119,-3.119,-3.0514,-3.0006,-3.0006,-2.9279,-2.8501,-2.772,-2.7733,-2.7747,-2.7747,-2.8464,-2.8731,-2.842,-2.8075,-2.7754,-2.7348,-2.6939,-2.6691,-2.6691,-2.7014,-2.7382,-2.7734,-2.7748,-2.7531,-2.7096,-2.7522,-2.7376,-2.3269,-2.4067,-2.4516,-2.428,-2.3651,-2.2455,-2.0049,-1.7889,-1.5925,-1.4141,-1.2732,-1.188,-1.2149,-1.2531,-1.3564,-1.5872,-1.6586,-1.8191,-2.1997,-2.3486,-2.575,-2.9929,-3.1404,-3.305,-3.5374,-3.5622,-3.527,-3.4447,-3.3887,-3.3235,-3.2407,-3.2367,-3.2507,-3.2907,-3.3196,-3.3487,-3.3873,-3.4547,-3.4891,-3.4891,-3.4891,-3.4891,-3.494,-3.5278,-3.5045,-3.4364,-3.4784,-3.4357,-3.3336,-3.2936,-3.2598,-3.2407,-3.3271,-3.3735,-3.4087,-3.4894,-3.5362,-3.5622,-3.5622,-3.5622,-3.5622,-3.5622,-3.5622,-3.5622,-3.5622,-3.5622,-3.5622,-3.5622,-3.5622,-3.552,-3.5064,-3.3829,-3.2577,-3.1985,-3.1512,-3.119,-3.119,-3.119,-3.119,-3.119,-3.119,-3.119,-3.119,-3.119,-3.119,-3.119,-3.0581,-3.0108,-3.0108,-2.9448,-2.8687,-2.7909,-2.804,-2.8006,-2.7582,-2.802,-2.8281,-2.8102,-2.7736,-2.7487,-2.7303,-2.6906,-2.6691,-2.6691,-2.7083,-2.7378,-2.753,-2.7783,-2.7804,-2.7611,-2.7566,-2.7372,-2.1399,-2.245,-2.3186,-2.2983,-2.2682,-2.1757,-1.9245,-1.7404,-1.5718,-1.3885,-1.2598,-1.1811,-1.1897,-1.2312,-1.3245,0.0,-1.5796,-1.7396,-2.1018,-2.2216,-2.4281,-2.8514,-2.9917,-3.1613,-3.437,-3.5037,-3.4847,-3.3684,-3.3443,-3.2772,-3.1582,-3.1482,-3.1749,-3.2213,-3.2422,-3.2736,-3.32,-3.4053,-3.4472,-3.4472,-3.4472,-3.4472,-3.452,-3.4364,-3.3908,-3.3231,-3.331,-3.2932,-3.2183,-3.1661,-3.1482,-3.164,-3.2826,-3.3443,-3.3735,-3.4894,-3.5424,-3.5622,-3.5622,-3.5622,-3.5622,-3.5622,-3.5622,-3.5622,-3.5622,-3.5622,-3.5622,-3.5622,-3.5622,-3.5453,-3.4692,-3.3558,-3.256,-3.2364,-3.1732,-3.119,-3.119,-3.119,-3.119,-3.119,-3.119,-3.119,-3.119,-3.119,-3.119,-3.119,-3.0768,-3.0429,-3.0429,-2.9973,-2.9347,-2.8586,-2.8545,-2.8232,-2.7373,-2.7648,-2.784,-2.7725,-2.7457,-2.7241,-2.7115,-2.6841,-2.6691,-2.6691,-2.7083,-2.7303,-2.7303,-2.7589,-2.7707,-2.7707,-2.7303,-2.7178,-1.8331,-1.9618,-2.0761,-2.0099,-2.0347,-2.0019,-1.7339,-1.6248,-1.5229,-1.322,-1.2269,-1.1876,-1.2164,-1.2205,-1.2978,-1.5312,-1.5711,-1.6913,-2.0416,-2.1955,-2.3539,-2.5782,-2.7811,-2.9888,-3.2104,-3.3706,-3.4333,-3.3633,-3.2986,-3.2272,-3.1539,-3.1482,-3.1482,-3.1482,-3.2168,-3.2512,-3.2527,-3.3829,-3.4472,-3.4472,-3.4472,-3.4472,-3.4457,-3.3784,-3.314,-3.2527,-3.2512,-3.2138,-3.1482,-3.1482,-3.1482,-3.1582,-3.2327,-3.3002,-3.3684,-3.4382,-3.5052,-3.5622,-3.5622,-3.5622,-3.5622,-3.5622,-3.5622,-3.5622,-3.5622,-3.5622,-3.5622,-3.5622,-3.5622,-3.5453,-3.4692,-3.3947,-3.3203,-3.2459,-3.1732,-3.119,-3.119,-3.119,-3.119,-3.119,-3.119,-3.119,-3.119,-3.119,-3.119,-3.119,-3.119,-3.119,-3.119,-3.1173,-3.0886,-3.0159,-2.9414,-2.8544,-2.7393,-2.7648,-2.7725,-2.7317,-2.7303,-2.7115,-2.6725,-2.6691,-2.6691,-2.6691,-2.7083,-2.7303,-2.7303,-2.7286,-2.7303,-2.7303,-2.6906,-2.6939,-1.6723,-1.7582,-1.8216,-1.7797,-1.8193,-1.8071,-1.5904,-1.5246,-1.4689,-1.313,-1.2276,-1.1876,-1.2149,-1.2205,-1.321,-1.635,-1.6863,0.0,-2.1379,-2.3056,-2.4975,-2.7732,-3.128,-3.3607,-3.3844,-3.4322,-3.4137,-3.2986,-3.2749,-3.2272,-3.1539,-3.1482,-3.1482,-3.1482,-3.1734,-3.1839,-3.1839,-3.2706,-3.314,-3.314,-3.314,-3.314,-3.311,-3.2452,-3.2033,-3.1839,-3.1839,-3.1676,-3.1482,-3.1482,-3.1482,-3.164,-3.2826,-3.3391,-3.3735,-3.4847,-3.5424,-3.5622,-3.5622,-3.5622,-3.5622,-3.5622,-3.5622,-3.5622,-3.5622,-3.5622,-3.5622,-3.5622,-3.525,-3.4912,-3.5182,-3.3964,-3.2713,-3.2983,-3.2104,-3.119,-3.119,-3.119,-3.119,-3.119,-3.119,-3.119,-3.119,-3.119,-3.119,-3.119,-3.119,-3.119,-3.119,-3.119,-3.092,-3.0192,-2.9888,-2.92,-2.7743,-2.7295,-2.7036,-2.6906,-2.6906,-2.6841,-2.6691,-2.6691,-2.6691,-2.6691,-2.6825,-2.6906,-2.6906,-2.6906,-2.6906,-2.6873,-2.6758,-2.6906,-1.4317,-1.5453,-1.625,-1.6107,-1.6561,-1.6638,-1.4839,-1.4423,-1.406,-1.2826,-1.2162,-1.1918,-1.2291,-1.2592,-1.3584,-1.6165,-1.7119,-1.8557,-2.1471,-2.3139,-2.5304,-2.8621,-3.2171,-3.4219,-3.3815,-3.4023,-3.3786,-3.2695,-3.2327,-3.1951,-3.1524,-3.1482,-3.1482,-3.1482,-3.1482,-3.1482,-3.1482,-3.2183,-3.2512,-3.2512,-3.2512,-3.2512,-3.2497,-3.1839,-3.1482,-3.1482,-3.1482,-3.1482,0.0,-3.1482,-3.1482,-3.164,-3.3024,-3.3582,-3.3735,-3.5115,-3.5622,-3.5622,-3.5622,-3.5622,-3.5622,-3.5622,-3.5622,-3.5622,-3.5622,-3.5622,-3.5622,-3.5622,-3.5284,-3.503,-3.5504,-3.437,-3.3169,-3.3372,-3.2493,-3.1529,-3.1258,-3.119,-3.119,-3.119,-3.119,-3.119,-3.119,-3.119,-3.119,-3.119,-3.119,-3.119,-3.119,-3.119,-3.1021,-3.0565,-3.0277,-2.96,-2.8366,-2.7554,-2.6996,-2.6708,-2.6691,-2.6691,-2.6691,-2.6691,-2.6691,-2.6691,-2.6691,-2.6691,-2.6691,-2.6691,-2.6691,-2.6691,-2.6841,-2.7147,0.0,-1.3159,-1.4671,-1.4715,-1.5312,-1.5499,-1.4021,-1.3705,0.0,-1.2384,-1.1961,-1.1991,-1.2602,-1.3251,-1.4115,-1.5385,-1.6909,-1.8775,-2.1119,-2.2835,-2.522,-2.8873,-3.119,-3.2471,-3.2459,-3.3128,-3.3235,-3.2586,-3.191,-3.1482,-3.1482,-3.1482,-3.1482,-3.1482,-3.1482,-3.1482,-3.1482,-3.2138,-3.2437,-3.2437,-3.2437,-3.2437,-3.2422,-3.175,-3.1482,-3.1482,-3.1482,-3.1482,-3.1524,-3.1582,-3.1582,-3.1739,-3.313,-3.3684,-3.3836,-3.5115,-3.5622,-3.5622,-3.5622,-3.5622,-3.5622,-3.5622,-3.5622,-3.5622,-3.5622,-3.5622,-3.5622,-3.5622,-3.5622,-3.5622,-3.5622,-3.5064,-3.4303,-3.3592,-3.2831,-3.2087,-3.136,-3.119,-3.119,-3.119,-3.119,-3.119,-3.119,-3.119,-3.119,-3.119,-3.119,-3.119,-3.119,-3.119,-3.119,-3.119,-3.0598,-2.9871,-2.9127,-2.8298,-2.7503,-2.6742,-2.6691,-2.6691,-2.6691,-2.6691,-2.6691,-2.6691,-2.6691,-2.6691,-2.6691,-2.6691,-2.6691,-2.6725,-2.7083,-2.747,-0.8927,0.0,-1.2338,-1.2154,-1.2984,-1.3659,0.0,-1.2818,-1.2816,-1.2057,0.0,-1.2214,-1.3574,-1.3753,-1.4923,-1.8644,-1.9395,-2.0483,-2.3308,-2.6488,-2.9482,-3.2053,-3.3389,-3.3837,-3.3386,-3.3008,-3.2532,-3.1796,-3.1582,-3.1482,-3.1482,-3.1482,-3.1482,-3.1482,-3.1482,-3.1482,-3.1482,-3.1631,-3.1764,-3.1764,-3.1764,-3.1764,-3.1764,-3.1541,-3.1482,-3.1482,-3.1482,-3.1482,-3.1524,-3.212,-3.2327,-3.2477,-3.3836,-3.4382,-3.4479,-3.5299,-3.5622,-3.5622,-3.5622,-3.5622,-3.5622,-3.5622,-3.5622,-3.5622,-3.5622,-3.5622,-3.5622,-3.5622,-3.5622,-3.5622,-3.5622,-3.5064,-3.4303,-3.3592,-3.2831,-3.2087,-3.136,-3.119,-3.119,-3.119,-3.119,-3.119,-3.119,-3.119,-3.119,-3.119,-3.119,-3.119,-3.119,-3.119,-3.119,-3.119,-3.1038,-3.0632,-2.9905,-2.8602,-2.7503,-2.6742,-2.6691,-2.6691,-2.6691,-2.6691,-2.6691,-2.6691,-2.6691,-2.6691,-2.6691,-2.6691,-2.6691,-2.6691,-2.6791,-2.721,-0.7703,-0.9874,-1.2082,-1.1967,-1.2799,-1.3536,-1.3046,0.0,0.0,0.0,0.0,-1.2192,-1.3498,-1.4259,-1.5619,-1.8388,-2.0084,-2.2226,-2.5541,-2.8115,-3.0513,-3.2677,-3.3376,-3.3532,-3.3166,-3.2788,-3.2272,-3.1582,-3.1482,-3.1482,-3.1482,-3.1482,-3.1482,-3.1482,-3.1482,-3.1482,-3.1482,-3.1482,-3.1482,-3.1482,-3.1482,-3.1482,-3.1482,-3.1482,-3.1482,-3.1482,-3.1482,-3.1482,-3.1582,-3.2272,-3.2586,-3.2749,-3.4087,-3.4576,-3.4688,-3.5362,-3.5622,-3.5622,-3.5622,-3.5622,-3.5622,-3.5622,-3.5622,-3.5622,-3.5622,-3.5622,-3.5622,-3.5622,-3.5622,-3.5622,-3.5622,-3.5064,-3.4303,-3.3592,-3.2831,-3.2087,-3.136,-3.119,-3.119,-3.119,-3.119,-3.119,-3.119,-3.119,-3.119,-3.119,-3.119,-3.119,-3.119,-3.119,-3.119,-3.119,-3.119,-3.0903,-3.0176,-2.9347,-2.8399,-2.7283,-2.7199,-2.7046,-2.6708,-2.6691,-2.6691,-2.6691,-2.6691,-2.6691,-2.6691,-2.6691,-2.6691,-2.6691,-2.6906,-2.7303,-0.7573,-1.0249,-1.2901,-1.2697,-1.3552,-1.4355,-1.4084,0.0,0.0,0.0,0.0,0.0,-1.3652,-1.5058,-1.6435,-1.7591,-2.0633,-2.4014,-2.7363,-2.8661,-2.9969,-3.1876,-3.2305,-3.2396,-3.2268,-3.2369,-3.2114,-3.1375,-3.1422,-3.1482,-3.1482,-3.1482,-3.1482,-3.1482,-3.1482,-3.1482,-3.1482,-3.1482,-3.1482,-3.1482,-3.1482,-3.1482,-3.1482,-3.1482,-3.1482,-3.1482,-3.1482,-3.1482,-3.1582,-3.2437,-3.2734,-3.2895,-3.4235,-3.4736,-3.483,-3.5407,-3.5622,-3.5622,-3.5622,-3.5622,-3.5622,-3.5622,-3.5622,-3.5622,-3.5622,-3.5622,-3.5622,-3.5622,-3.5622,-3.5622,-3.5622,-3.5064,-3.4303,-3.3592,-3.2831,-3.2087,-3.136,-3.119,-3.119,-3.119,-3.119,-3.119,-3.119,-3.119,-3.119,-3.119,-3.119,-3.119,-3.119,-3.119,-3.119,-3.119,-3.119,-3.0954,-3.0328,-3.0277,-2.9668,-2.8228,-2.7908,-2.7486,-2.6725,-2.6691,-2.6691,-2.6691,-2.6691,-2.6691,-2.6691,-2.6691,-2.6691,-2.6725,-2.7115,-2.747,-0.9278,-1.1895,-1.3772,-1.225,-1.3685,-1.5392,-1.5048,0.0,0.0,0.0,0.0,0.0,0.0,-1.6749,-1.787,-2.1272,-2.3737,-2.5911,-2.78,-2.8835,-2.9717,-3.0679,-3.1365,-3.1519,-3.0985,-3.1378,-3.1399,-3.0702,-3.121,-3.1482,-3.1482,-3.1482,-3.1482,-3.1482,-3.1482,-3.1482,-3.1482,-3.1482,-3.1482,-3.1482,-3.1482,-3.1482,-3.1482,-3.1482,-3.1482,-3.1482,-3.1482,-3.1482,-3.1582,-3.2933,-3.3443,-3.3598,-3.4911,-3.547,-3.547,-3.556,-3.5622,-3.5622,-3.5622,-3.5622,-3.5622,-3.5622,-3.5622,-3.5622,-3.5622,-3.5622,-3.5622,-3.5622,-3.5622,-3.5622,-3.5622,-3.5064,-3.4303,-3.3592,-3.2831,-3.2087,-3.136,-3.119,-3.119,-3.119,-3.119,-3.119,-3.119,-3.119,-3.119,-3.119,-3.119,-3.119,-3.119,-3.119,-3.119,-3.119,-3.119,-3.114,-3.1038,-3.1021,-3.0666,-2.9803,-2.8499,-2.7486,-2.6725,-2.6691,-2.6691,-2.6691,-2.6691,-2.6691,-2.6691,-2.6691,-2.6691,-2.6725,-2.7115,-2.7317,-0.8597,-1.1011,-1.3194,-1.3083,-1.5298,-1.7448,-1.7279,0.0,0.0,0.0,0.0,0.0,0.0,-1.8427,-2.0188,-2.3769,-2.5163,-2.6384,-2.7989,-2.8255,-2.8746,-2.9848,-2.9991,-3.0007,-3.0053,-3.0624,-3.0851,-3.0522,-3.115,-3.1482,-3.1482,-3.1482,-3.1482,-3.1482,-3.1482,-3.1482,-3.1482,-3.1482,-3.1482,-3.1482,-3.1482,-3.1482,-3.1482,-3.1482,-3.1482,-3.1482,-3.1482,-3.1739,-3.216,-3.3182,-3.3836,-3.4235,-3.5207,-3.5622,-3.5622,-3.5622,-3.5622,-3.5622,-3.5622,-3.5622,-3.5622,-3.5622,-3.5622,-3.5622,-3.5622,-3.5622,-3.5622,-3.5622,-3.5622,-3.5622,-3.5622,-3.4776,-3.3829,-3.3491,-3.2527,-3.1596,-3.1258,-3.119,-3.119,-3.119,-3.119,-3.119,-3.119,-3.119,-3.119,-3.119,-3.119,-3.119,-3.119,-3.119,-3.119,-3.119,-3.119,-3.119,-3.119,-3.119,-3.0717,-2.9567,-2.8433,-2.7486,-2.6725,-2.6691,-2.6691,-2.6691,-2.6691,-2.6691,-2.6691,-2.6691,-2.6691,-2.6691,-2.6906,-2.7083,-0.827,-1.0422,-1.2768,-1.4278,0.0,-1.8491,-1.9088,-1.8303,0.0,0.0,0.0,0.0,0.0,-2.0299,-2.2465,-2.5395,-2.5913,-2.651,-2.8144,-2.7844,-2.7839,-2.8931,-2.8783,-2.8742,-2.9086,-2.9819,-3.0283,-3.0283,-3.0911,-3.1302,-3.1467,-3.1482,-3.1482,-3.1482,-3.1482,-3.1482,-3.1482,-3.1482,-3.1482,-3.1482,-3.1482,-3.1482,-3.1482,-3.1482,-3.1482,-3.1482,-3.1482,-3.191,-3.2641,-3.3339,-3.3987,-3.4688,-3.5362,-3.5622,-3.5622,-3.5622,-3.5622,-3.5622,-3.5622,-3.5622,-3.5622,-3.5622,-3.5622,-3.5622,-3.5622,-3.5622,-3.5622,-3.5622,-3.5622,-3.5622,-3.5622,-3.4523,-3.3406,-3.3406,-3.2273,-3.119,-3.119,-3.119,-3.119,-3.119,-3.119,-3.119,-3.119,-3.119,-3.119,-3.119,-3.119,-3.119,-3.119,-3.119,-3.119,-3.119,-3.119,-3.119,-3.119,-3.119,-3.0632,-2.933,-2.8687,-2.7926,-2.6996,-2.6962,-2.6877,-2.6691,-2.6691,-2.6691,-2.6691,-2.6691,-2.6691,-2.6691,-2.6791,-2.6971,-1.0017,-1.1775,-1.351,-1.5457,-1.6131,0.0,-1.9362,-1.931,0.0,-2.0114,0.0,0.0,-2.1503,-2.2599,-2.406,-2.5862,-2.6277,-2.6851,-2.8279,-2.7966,-2.763,-2.772,-2.8255,-2.8368,-2.782,-2.8891,-2.9639,-2.9639,-3.0223,-3.0851,-3.1437,-3.1482,-3.1482,-3.1482,-3.1482,-3.1482,-3.1482,-3.1482,-3.1482,-3.1482,-3.1482,-3.1482,-3.1482,-3.1482,-3.1482,-3.1482,-3.1482,-3.191,-3.2641,-3.3339,-3.3987,-3.4688,-3.5362,-3.5622,-3.5622,-3.5622,-3.5622,-3.5622,-3.5622,-3.5622,-3.5622,-3.5622,-3.5622,-3.5622,-3.5622,-3.5622,-3.5622,-3.5622,-3.5622,-3.5622,-3.5622,-3.4523,-3.3406,-3.3406,-3.2273,-3.119,-3.119,-3.119,-3.119,-3.119,-3.119,-3.119,-3.119,-3.119,-3.119,-3.119,-3.119,-3.119,-3.119,-3.119,-3.119,-3.119,-3.119,-3.119,-3.119,-3.119,-3.0852,-3.0074,-2.9973,-2.9279,-2.7755,-2.7705,-2.7402,-2.6708,-2.6691,-2.6691,-2.6691,-2.6691,-2.6691,-2.6725,-2.7083,-2.7051,-0.9004,-1.0987,-1.3222,-1.528,-1.6303,0.0,0.0,-2.0889,-2.1826,-2.2269,-2.2701,-2.303,-2.3205,-2.3603,-2.4468,-2.6078,-2.6383,-2.6612,-2.7184,-2.7071,-2.693,-2.693,-2.7164,-2.7365,-2.759,-2.8427,-2.8966,-2.8966,-2.9564,-3.0043,-3.0298,-3.0313,-3.0492,-3.0881,-3.0896,-3.1106,-3.1482,-3.1482,-3.1482,-3.1482,-3.1482,-3.1482,-3.1482,-3.1482,-3.1482,-3.1482,-3.1482,-3.191,-3.2641,-3.3339,-3.3987,-3.4688,-3.5362,-3.5622,-3.5622,-3.5622,-3.5622,-3.5622,-3.5622,-3.5622,-3.5622,-3.5622,-3.5622,-3.5622,-3.5622,-3.5622,-3.5622,-3.5622,-3.5622,-3.5622,-3.5622,-3.4523,-3.3406,-3.3406,-3.2273,-3.119,-3.119,-3.119,-3.119,-3.119,-3.119,-3.119,-3.119,-3.119,-3.119,-3.119,-3.119,-3.119,-3.119,-3.119,-3.119,-3.119,-3.119,-3.119,-3.119,-3.119,-3.1072,-3.0801,-3.0362,-2.9634,-2.8586,-2.8078,-2.7654,-2.7402,-2.6928,-2.6691,-2.6691,-2.6691,-2.6691,-2.6691,-2.6841,-2.6841,-0.8872,-1.0992,-1.3489,-1.5061,0.0,0.0,-1.9968,-2.1769,-2.3144,-2.3432,-2.3505,-2.364,-2.4115,-2.4002,-2.4343,-2.5876,-2.6352,-2.6497,-2.6509,-2.651,-2.6404,-2.6176,-2.6176,-2.6336,-2.6864,-2.7512,-2.8024,-2.8231,-2.8889,-2.937,-2.9564,-2.9579,-2.9774,-3.0193,-3.0223,-3.0447,-3.0911,-3.1106,-3.121,-3.121,-3.1377,-3.1482,-3.1482,-3.1482,-3.1482,-3.1482,-3.1482,-3.191,-3.2641,-3.3339,-3.4137,-3.4941,-3.5407,-3.5622,-3.5622,-3.5622,-3.5622,-3.5622,-3.5622,-3.5622,-3.5622,-3.5622,-3.5622,-3.5622,-3.5622,-3.5622,-3.5622,-3.5622,-3.5622,-3.5571,-3.5318,-3.4336,-3.3406,-3.3406,-3.2273,-3.119,-3.119,-3.119,-3.119,-3.119,-3.119,-3.119,-3.119,-3.119,-3.119,-3.119,-3.119,-3.119,-3.119,-3.119,-3.119,-3.119,-3.119,-3.119,-3.119,-3.119,-3.119,-3.119,-3.0734,-3.0125,-2.9364,-2.8822,-2.8433,-2.8197,-2.7435,-2.7046,-2.7046,-2.681,-2.6691,-2.6691,-2.6691,-2.6691,-1.0148,-1.2262,-1.4605,0.0,0.0,0.0,-2.0856,-2.1786,-2.2572,-2.3522,-2.3381,-2.3369,-2.4222,-2.3782,-2.3825,-2.5332,-2.6168,-2.6564,-2.6529,-2.6457,-2.6229,-2.5453,-2.5398,-2.5398,-2.5398,-2.6068,-2.6769,-2.7443,-2.8178,-2.8876,-2.9535,-2.9564,-2.9564,-2.9564,-2.9564,-2.9564,-2.9579,-3.0193,-3.0492,-3.0507,-3.118,-3.1467,-3.1482,-3.1482,-3.1482,-3.1482,-3.1482,-3.1894,-3.2641,-3.3339,-3.4399,-3.5622,-3.5622,-3.5622,-3.5622,-3.5622,-3.5622,-3.5622,-3.5622,-3.5622,-3.5622,-3.5622,-3.5622,-3.5622,-3.5622,-3.5622,-3.5622,-3.5605,-3.5605,-3.5436,-3.4675,-3.3947,-3.3389,-3.3389,-3.2273,-3.119,-3.119,-3.119,-3.119,-3.119,-3.119,-3.119,-3.119,-3.119,-3.119,-3.119,-3.119,-3.119,-3.119,-3.119,-3.119,-3.119,-3.119,-3.119,-3.119,-3.119,-3.119,-3.119,-3.119,-3.0869,-3.0142,-3.0108,-2.9753,-2.9008,-2.823,-2.7789,-2.7789,-2.7063,-2.6708,-2.6691,-2.6691,-2.6691,-1.0525,-1.2845,0.0,-1.6714,0.0,0.0,0.0,-2.3308,0.0,0.0,-2.4369,-2.4104,-2.4483,-2.4368,-2.4656,-2.6096,-2.6032,-2.5798,-2.5753,-2.5287,-2.4851,-2.4624,-2.4624,-2.4851,-2.5342,-2.6068,-2.6582,-2.6769,-2.7499,-2.7964,-2.8158,-2.821,-2.8397,-2.8876,-2.8891,-2.9116,-2.9579,-2.9759,-2.9864,-2.9864,-3.0058,-3.0642,-3.1482,-3.1482,-3.1482,-3.1482,-3.1482,-3.164,-3.1894,-3.313,-3.4399,-3.5622,-3.5622,-3.5622,-3.5622,-3.5622,-3.5622,-3.5622,-3.5622,-3.5622,-3.5622,-3.5622,-3.5622,-3.5622,-3.5622,-3.5622,-3.5504,-3.4979,-3.4827,-3.4658,-3.3931,-3.3169,-3.2611,-3.2611,-3.1884,-3.119,-3.119,-3.119,-3.119,-3.119,-3.119,-3.1055,-3.0658,-3.0918,-3.1055,-3.0617,-3.0918,-3.119,-3.119,-3.119,-3.119,-3.119,-3.119,-3.119,-3.119,-3.119,-3.119,-3.119,-3.119,-3.1106,-3.0886,-3.0378,-3.0006,-2.9786,-2.9025,-2.8366,-2.7789,-2.7588,-2.7215,-2.6691,-2.6691,-2.6691,-1.2053,-1.4492,0.0,-1.8576,-2.0738,-2.2795,-2.3742,0.0,0.0,-2.5056,-2.4413,-2.3823,-2.4132,-2.4403,-2.488,-2.5653,-2.5843,-2.5668,-2.5065,-2.4567,-2.4176,-2.3884,-2.3826,-2.3989,-2.4439,-2.5439,-2.6068,-2.6068,-2.7034,-2.7625,-2.7625,-2.7625,-2.7769,-2.8173,-2.8188,-2.8382,-2.8771,-2.9056,-2.919,-2.919,-2.946,-2.9998,-3.0761,-3.0761,-3.1046,-3.1482,-3.1482,-3.1697,-3.2007,-3.2826,-3.3853,-3.4816,-3.4816,-3.4816,-3.4864,-3.5098,-3.5207,-3.5253,-3.5515,-3.5622,-3.5622,-3.5622,-3.5622,-3.5622,-3.5622,-3.5419,-3.5081,-3.4624,-3.4286,-3.388,-3.3152,-3.2611,-3.2313,-3.2313,-3.1732,-3.119,-3.119,-3.119,-3.119,-3.119,-3.119,-3.1095,-3.0699,-3.0975,-3.1072,-3.0699,-3.0975,-3.119,-3.119,-3.119,-3.119,-3.119,-3.119,-3.119,-3.119,-3.119,-3.119,-3.119,-3.119,-3.119,-3.119,-3.0768,-3.0548,-3.0548,-2.9803,-2.9042,-2.8281,-2.7977,-2.7435,-2.6691,-2.6691,-2.6691,-1.4101,-1.656,0.0,-2.0345,-2.1551,0.0,-2.443,-2.4394,-2.4227,-2.4923,-2.3804,-2.2909,-2.3493,-2.4104,-2.4515,-2.4601,-2.5543,-2.5835,-2.4509,-2.4234,-2.3943,-2.3198,-2.3078,-2.3078,-2.3078,-2.4496,-2.5398,-2.5398,-2.6759,-2.7625,-2.7625,-2.7625,-2.7625,-2.7625,-2.7625,-2.7625,-2.7625,-2.8188,-2.8502,-2.8517,-2.9116,-2.943,-2.949,-2.9549,-3.0238,-3.1302,-3.1362,-3.1804,-3.2509,-3.2571,-3.3002,-3.3582,-3.3582,-3.3582,-3.3684,-3.4284,-3.4528,-3.4576,-3.527,-3.5515,-3.5515,-3.5577,-3.5571,-3.552,-3.552,-3.4979,-3.4387,-3.4303,-3.3812,-3.3136,-3.2374,-3.2188,-3.2188,-3.2188,-3.1681,-3.119,-3.119,-3.119,-3.119,-3.119,-3.119,-3.119,-3.1151,-3.1151,-3.119,-3.119,-3.119,-3.119,-3.119,-3.119,-3.119,-3.119,-3.119,-3.119,-3.119,-3.119,-3.119,-3.119,-3.119,-3.119,-3.119,-3.119,-3.119,-3.119,-3.0548,-2.9803,-2.9011,-2.8281,-2.7503,-2.6691,-2.6691,-2.6691,-1.3933,-1.6291,0.0,0.0,-2.2228,-2.3637,-2.4576,-2.4191,-2.3663,-2.3842,-2.3258,-2.2875,-2.356,-2.3792,-2.421,-2.5128,-2.5015,-2.4723,-2.4328,-2.3767,-2.3305,-2.3138,-2.3078,-2.3078,-2.3078,-2.4496,-2.5398,-2.5398,-2.6759,-2.7625,-2.7625,-2.7625,-2.7625,-2.7625,-2.7625,-2.7625,-2.7625,-2.7724,-2.785,-2.785,-2.7934,-2.8293,-2.8831,-2.934,-2.9729,-3.0028,-3.0507,-3.1146,-3.1843,-3.2369,-3.3002,-3.3582,-3.3582,-3.3582,-3.3633,-3.3735,-3.3836,-3.3887,-3.4592,-3.4847,-3.4894,-3.5424,-3.5216,-3.4742,-3.4742,-3.4218,-3.3525,-3.2916,-3.2645,-3.2357,-3.1613,-3.1427,-3.1427,-3.1427,-3.1309,-3.119,-3.119,-3.119,-3.119,-3.119,-3.119,-3.1055,-3.0576,-3.0878,-3.119,-3.119,-3.119,-3.119,-3.119,-3.119,-3.119,-3.119,-3.119,-3.119,-3.119,-3.119,-3.119,-3.119,-3.119,-3.119,-3.119,-3.119,-3.119,-3.119,-3.1038,-3.0311,-2.9011,-2.8822,-2.8027,-2.6691,-2.6691,-2.6691,-1.4116,0.0,0.0,-2.1657,0.0,-2.375,-2.3943,-2.3745,-2.3259,-2.2381,-2.2225,-2.2352,-2.2677,-2.2974,-2.3301,-2.3594,-2.3576,-2.35,-2.3334,-2.2972,-2.2836,-2.304,-2.3078,-2.3078,-2.3078,-2.4496,-2.5398,-2.5398,-2.6759,-2.7625,-2.7625,-2.7625,-2.7625,-2.7625,-2.7625,-2.7625,-2.7625,-2.7625,-2.7625,-2.7625,-2.7625,-2.7754,-2.8143,-2.9131,-2.94,-2.9146,-2.9789,-3.0443,-3.1113,-3.1463,-3.2004,-3.261,-3.261,-3.261,-3.2579,-3.261,-3.2641,-3.2744,-3.342,-3.3453,-3.3321,-3.4263,-3.4141,-3.3539,-3.3539,-3.3021,-3.231,-3.1653,-3.1203,-3.0813,-3.0434,-3.0335,-3.0335,-3.0335,-3.0797,-3.119,-3.119,-3.119,-3.119,-3.119,-3.119,-3.1095,-3.0797,-3.1015,-3.119,-3.119,-3.119,-3.119,-3.119,-3.119,-3.119,-3.119,-3.119,-3.119,-3.119,-3.119,-3.119,-3.119,-3.119,-3.119,-3.119,-3.119,-3.119,-3.119,-3.119,-3.0463,-2.9011,-2.9011,-2.8197,-2.6691,-2.6691,-2.6691,-1.3893,0.0,-1.9529,-2.2225,-2.3169,0.0,-2.2886,-2.2911,-2.2613,-2.1099,-2.121,-2.1568,-2.1568,-2.1993,-2.2179,-2.1691,-2.2062,-2.2374,-2.2198,-2.2171,-2.2334,-2.2799,-2.2937,-2.2927,-2.2927,-2.4429,-2.5398,-2.5398,-2.6759,-2.7625,-2.7625,-2.7625,-2.7625,-2.7625,-2.7625,-2.7625,-2.7625,-2.7625,-2.7625,-2.7625,-2.7625,-2.7625,-2.7655,-2.8727,-2.8936,-2.8457,-2.9131,-2.9699,-3.0178,-3.0298,-3.0687,-3.1195,-3.1195,-3.1195,-3.1177,-3.1251,-3.125,-3.1341,-3.2016,-3.1884,-3.163,-3.28,-3.2708,-3.2163,-3.2163,-3.1654,-3.0931,-3.0438,-2.9884,-2.9406,-2.9406,-2.9406,-2.9406,-2.9406,-3.0166,-3.0878,-3.0878,-3.0878,-3.0878,-3.0878,-3.0878,-3.0918,-3.1015,-3.1055,-3.1095,-3.119,-3.119,-3.119,-3.119,-3.119,-3.119,-3.119,-3.119,-3.119,-3.119,-3.119,-3.119,-3.119,-3.119,-3.119,-3.119,-3.119,-3.119,-3.119,-3.119,-3.0463,-2.9011,-2.9011,-2.8197,-2.6691,-2.6691,-2.6691,0.0,0.0,-1.9226,0.0,-2.1549,-2.2128,0.0,-2.1383,-2.1103,-2.0837,-2.0845,-2.0944,-2.0944,-2.0997,-2.1173,-2.1536,-2.1681,-2.168,-2.163,-2.1594,-2.1631,-2.1707,-2.2133,-2.2422,-2.2422,-2.419,-2.5398,-2.5398,-2.6759,-2.7625,-2.7625,-2.7625,-2.7625,-2.7625,-2.7625,-2.7625,-2.7625,-2.7625,-2.7625,-2.7625,-2.7625,-2.7625,-2.7625,-2.7805,-2.785,-2.779,-2.8427,-2.8786,-2.8906,-2.9475,-2.9759,-2.9849,-2.9849,-2.9849,-2.9834,-2.9838,-2.9862,-2.9954,-3.0613,-3.0791,-3.088,-3.1598,-3.1339,-3.076,-3.076,-3.0261,-2.9624,-2.9595,-2.9486,-2.9406,-2.9406,-2.9406,-2.9406,-2.9406,-2.954,-2.9629,-2.9629,-2.9629,-2.9629,-2.9629,-2.9629,-2.9805,-3.0351,-3.0435,-3.0617,-3.1112,-3.119,-3.119,-3.119,-3.119,-3.119,-3.119,-3.119,-3.119,-3.119,-3.119,-3.119,-3.119,-3.119,-3.119,-3.119,-3.119,-3.119,-3.119,-3.119,-3.0463,-2.9011,-2.9011,-2.8197,-2.6691,-2.6691,-2.6691,-1.2767,-1.5283,-1.7699,0.0,-2.0623,-2.0938,-2.0489,-2.0585,-2.0601,-1.9941,-2.0039,-2.0245,-2.0245,-2.0245,-2.0335,-2.0527,-2.0566,-2.0731,-2.0995,-2.1029,-2.1142,-2.1455,-2.1707,-2.1845,-2.1845,-2.3364,-2.439,-2.439,-2.5683,-2.6632,-2.7006,-2.7021,-2.7186,-2.761,-2.7625,-2.7625,-2.7625,-2.7625,-2.7625,-2.7625,-2.7625,-2.7625,-2.7625,-2.7625,-2.7625,-2.764,-2.7889,-2.8248,-2.8622,-2.8906,-2.925,-2.9579,-2.9579,-2.9579,-2.9535,-2.916,-2.9026,-2.9079,-2.9364,-2.923,-2.9073,-3.0076,-2.9974,-2.9407,-2.9407,-2.9155,-2.8826,-2.8496,-2.84,-2.84,-2.84,-2.84,-2.84,-2.84,-2.84,-2.84,-2.84,-2.8904,-2.9406,-2.9406,-2.9673,-2.9995,-3.0251,-3.0576,-3.0878,-3.1151,-3.119,-3.119,-3.119,-3.119,-3.119,-3.119,-3.119,-3.119,-3.119,-3.119,-3.119,-3.119,-3.119,-3.119,-3.119,-3.119,-3.119,-3.119,-3.0784,-3.0057,-2.9011,-2.8552,-2.7774,-2.6691,-2.6691,-2.6691,0.0,0.0,-1.5692,-1.8195,-1.9202,-1.9531,-1.9247,-1.9669,-1.9898,-1.8963,-1.912,-1.9397,-1.9397,-1.9623,-1.9798,-1.9798,-1.9798,-1.9949,-2.0388,-2.0451,-2.0602,-2.1004,-2.1192,-2.1335,-2.1488,-2.2777,-2.364,-2.3794,-2.4951,-2.5762,-2.6109,-2.6284,-2.6508,-2.6837,-2.7016,-2.7156,-2.732,-2.7535,-2.7625,-2.7625,-2.7625,-2.7625,-2.7625,-2.7625,-2.7625,-2.7625,-2.7625,-2.7859,-2.8338,-2.8338,-2.8622,-2.9071,-2.9071,-2.9071,-2.9011,-2.8517,-2.8338,-2.8338,-2.8338,-2.8008,-2.775,-2.8721,-2.8686,-2.8271,-2.8271,-2.8271,-2.8189,-2.771,-2.771,-2.781,-2.781,-2.781,-2.781,-2.781,-2.771,-2.7625,-2.7625,-2.8304,-2.895,-2.895,-2.9451,-2.9892,-3.0021,-3.0559,-3.1015,-3.119,-3.119,-3.119,-3.119,-3.119,-3.119,-3.119,-3.119,-3.119,-3.119,-3.119,-3.119,-3.119,-3.119,-3.119,-3.119,-3.119,-3.119,-3.119,-3.0294,-2.955,-2.9011,-2.8197,-2.7435,-2.6691,-2.6691,-2.6691,0.0,-1.1713,0.0,-1.5102,-1.6633,-1.7792,-1.8015,-1.819,-1.8341,-1.827,-1.8267,-1.8292,-1.8292,-1.912,-1.9798,-1.9798,-1.9798,-1.9811,-1.9849,-1.9849,-1.9861,-1.9886,-2.0376,-2.0957,-2.155,-2.2782,-2.3844,-2.4433,-2.5158,-2.5364,-2.4834,-2.5346,-2.5423,-2.4878,-2.5405,-2.6019,-2.6632,-2.726,-2.7625,-2.7625,-2.7625,-2.7625,-2.7625,-2.7625,-2.7625,-2.7625,-2.7625,-2.764,-2.7619,-2.7619,-2.7685,-2.773,-2.773,-2.773,-2.773,-2.7634,-2.7619,-2.7619,-2.7619,-2.7655,-2.7625,-2.7655,-2.7705,-2.7675,-2.7675,-2.7675,-2.7625,-2.7625,-2.7993,-2.8463,-2.8463,-2.8463,-2.8463,-2.8463,-2.8008,-2.7625,-2.7625,-2.766,-2.771,-2.771,-2.8189,-2.8779,-2.9361,-2.9951,-3.0518,-3.1095,-3.119,-3.119,-3.119,-3.119,-3.119,-3.119,-3.119,-3.119,-3.119,-3.119,-3.119,-3.119,-3.119,-3.119,-3.119,-3.119,-3.119,-3.119,-2.977,-2.9062,-2.9011,-2.8197,-2.7435,-2.6691,-2.6691,-2.6691,0.0,0.0,0.0,-1.3867,-1.5135,-1.6081,-1.6647,-1.7531,-1.8114,-1.7764,-1.7953,-1.8204,-1.8204,-1.8807,-1.9309,-1.9309,-1.9585,-1.9798,-1.9798,-1.9798,-1.9798,-1.9798,-1.9987,-2.0204,-2.0399,-2.1297,-2.187,-2.2106,-2.2712,-2.3183,-2.34,-2.4024,-2.4465,-2.4664,-2.5301,-2.5719,-2.5959,-2.6617,-2.6946,-2.6946,-2.7365,-2.7625,-2.7625,-2.7625,-2.7625,-2.7625,-2.7625,-2.7625,-2.7625,-2.7625,-2.7625,-2.7625,-2.7625,-2.7625,-2.7625,-2.7625,-2.7625,-2.7625,-2.7625,-2.7625,-2.7625,-2.7625,-2.7625,-2.7625,-2.7625,-2.7625,-2.7625,-2.7625,-2.8042,-2.8511,-2.8511,-2.8511,-2.8415,-2.7993,-2.776,-2.7625,-2.7625,-2.7625,-2.771,-2.8091,-2.8638,-2.9271,-2.9848,-3.0166,-3.0377,-3.0601,-3.0293,-3.0166,-3.0559,-3.0601,-3.0781,-3.1151,-3.119,-3.119,-3.119,-3.119,-3.119,-3.119,-3.119,-3.119,-3.119,-3.0838,-3.0781,-3.119,-2.9381,-2.8607,-2.9011,-2.7706,-2.6962,-2.6691,-2.6691,-2.6691,-0.914,0.0,0.0,0.0,-1.3523,-1.4181,-1.5567,-1.6363,-1.6718,-1.6541,-1.6967,-1.7338,-1.7338,-1.7949,-1.853,-1.8719,-1.9196,-1.9547,-1.9547,-1.9698,-1.9798,-1.9798,-1.9798,-1.9901,-2.0105,-2.056,-2.0894,-2.1064,-2.1472,-2.1794,-2.2038,-2.289,-2.3656,-2.4312,-2.4951,-2.527,-2.527,-2.5929,-2.6378,-2.6602,-2.7036,-2.7365,-2.7625,-2.7625,-2.7625,-2.7625,-2.7625,-2.7625,-2.7625,-2.7625,-2.7625,-2.7625,-2.7625,-2.7625,-2.7625,-2.7625,-2.7625,-2.7625,-2.7625,-2.7625,-2.7625,-2.7625,-2.7625,-2.7625,-2.7625,-2.7625,-2.7625,-2.7625,-2.8174,-2.8732,-2.8559,-2.8654,-2.8685,-2.8304,-2.8027,-2.791,-2.791,-2.791,-2.7993,-2.8415,-2.9134,-2.9761,-2.9935,-3.0166,-3.0208,-3.0038,-2.9673,-2.954,-2.9951,-2.9995,-3.0208,-3.0838,-3.0878,-3.0975,-3.119,-3.119,-3.1095,-3.0918,-3.0878,-3.0797,-3.0601,-3.0208,-3.0293,-3.0878,-2.9052,-2.84,-2.9011,-2.7435,-2.6691,-2.6691,-2.6691,-2.6691,0.0,0.0,0.0,-1.1508,-1.1698,-1.2153,-1.477,-1.4624,-1.408,-1.4678,-1.5207,-1.5584,-1.5632,-1.6593,-1.7526,-1.8078,-1.8631,-1.8958,-1.8958,-1.9434,-1.9761,-1.9773,-1.9773,-2.0029,-2.0696,-2.0746,-2.1028,-2.1615,-2.1649,-2.1376,-2.0845,-2.1988,-2.2965,-2.3595,-2.4253,-2.4552,-2.4552,-2.5255,-2.5899,-2.6527,-2.6557,-2.6901,-2.7565,-2.7565,-2.7565,-2.7595,-2.7595,-2.761,-2.7625,-2.7625,-2.7625,-2.7625,-2.7625,-2.7625,-2.7625,-2.7625,-2.7625,-2.7625,-2.7625,-2.7625,-2.7625,-2.7625,-2.7625,-2.7625,-2.7625,-2.7625,-2.7625,-2.7625,-2.8496,-2.9271,-2.8685,-2.9012,-2.9406,-2.9361,-2.8919,-2.8511,-2.8511,-2.8511,-2.8511,-2.8511,-2.9496,-3.0123,-2.954,-2.9892,-3.0081,-2.9451,-2.9361,-2.9361,-2.9361,-2.9361,-2.9629,-3.0208,-3.0293,-3.0518,-3.1112,-3.119,-3.0918,-3.0293,-3.0251,-3.0038,-2.9406,-2.9361,-2.9673,-3.0293,-2.8836,-2.84,-2.9011,-2.7435,-2.6691,-2.6691,-2.6691,-2.6691,-0.8554,0.0,0.0,0.0,0.0,0.0,-1.1801,-1.2238,-1.2806,-1.4165,-1.4578,-1.4999,-1.6046,-1.6504,-1.681,-1.6961,-1.7802,-1.843,-1.843,-1.8555,-1.8794,-1.9196,-1.9246,-1.9434,-2.0016,-2.0105,-2.0144,-2.032,-2.032,-2.0484,-2.0795,-2.1988,-2.2965,-2.3595,-2.3789,-2.3879,-2.3879,-2.4552,-2.494,-2.5181,-2.5659,-2.5974,-2.6153,-2.6153,-2.6408,-2.6856,-2.6856,-2.7126,-2.7625,-2.7625,-2.7625,-2.7625,-2.7625,-2.7625,-2.7625,-2.7625,-2.7625,-2.7625,-2.7625,-2.7625,-2.7625,-2.7625,-2.7625,-2.7625,-2.7625,-2.7625,-2.766,-2.814,-2.8826,-2.9451,-2.9717,-2.9951,-2.9805,-2.8966,-2.8606,-2.8511,-2.8511,-2.8826,-2.9134,-2.9134,-2.9761,-3.0251,-3.0081,-2.9805,-2.9451,-2.8826,-2.8367,-2.8271,-2.8685,-2.8732,-2.9134,-3.0208,-3.0293,-3.0393,-3.0518,-3.0559,-3.0293,-2.9673,-2.9629,-2.9585,-2.9406,-2.8966,-2.9225,-3.0293,-2.841,-2.7977,-2.9011,-2.7435,-2.6691,-2.6691,-2.6691,-2.6691,-0.9136,-0.9612,0.0,-1.0285,0.0,0.0,-1.0973,-1.1018,-1.132,-1.2927,-1.3295,-1.3691,-1.4887,-1.5532,-1.5862,-1.5862,-1.6779,-1.7589,-1.7827,-1.8053,-1.8329,-1.8643,-1.8681,-1.8807,-1.9108,-1.9133,-1.9232,-1.9453,-1.972,-2.0384,-2.1547,-2.2314,-2.2965,-2.3595,-2.3595,-2.3595,-2.3595,-2.3999,-2.4343,-2.4582,-2.5016,-2.5345,-2.5615,-2.5615,-2.5809,-2.6183,-2.6183,-2.6557,-2.7156,-2.7156,-2.732,-2.7625,-2.7625,-2.7625,-2.7625,-2.7625,-2.7625,-2.7625,-2.7625,-2.7625,-2.7625,-2.7625,-2.7625,-2.7625,-2.7625,-2.7625,-2.771,-2.8334,-2.8904,-2.9585,-3.0435,-3.0293,-2.9805,-2.9361,-2.8873,-2.8511,-2.8511,-2.8779,-2.918,-2.9673,-3.0081,-3.0208,-2.9995,-2.9406,-2.8826,-2.8238,-2.781,-2.771,-2.8091,-2.814,-2.8496,-2.9451,-2.954,-2.9629,-2.9892,-2.9935,-2.9673,-2.9042,-2.8996,-2.8904,-2.867,-2.8319,-2.8545,-2.9453,-2.7971,-2.7469,-2.8027,-2.7131,-2.6691,-2.6691,-2.6691,-2.6691,-0.9908,-1.0245,0.0,-1.1642,-1.0875,0.0,-1.1228,-1.0453,-0.989,-1.1309,-1.1664,-1.2045,-1.2961,-1.4088,-1.4909,-1.4909,-1.5756,-1.6622,-1.72,-1.7702,-1.8041,-1.8103,-1.8116,-1.8141,-1.8191,-1.8204,-1.838,-1.8865,-1.9602,-2.0729,-2.2415,-2.2639,-2.2995,-2.3595,-2.3595,-2.3595,-2.3595,-2.3595,-2.3909,-2.4462,-2.4462,-2.4822,-2.539,-2.539,-2.5435,-2.5495,-2.5495,-2.5869,-2.6482,-2.6482,-2.6916,-2.7625,-2.7625,-2.7625,-2.7625,-2.7625,-2.7625,-2.7625,-2.7625,-2.7625,-2.7625,-2.7625,-2.7625,-2.7625,-2.7625,-2.7625,-2.776,-2.8415,-2.9088,-2.9848,-3.0918,-3.0335,-2.9629,-3.0081,-2.9316,-2.8511,-2.8511,-2.8511,-2.8826,-2.9978,-3.0208,-3.0038,-2.9406,-2.8873,-2.8286,-2.766,-2.7625,-2.7625,-2.7625,-2.7625,-2.781,-2.8431,-2.8511,-2.8748,-2.9271,-2.9316,-2.9042,-2.8415,-2.8415,-2.814,-2.7625,-2.766,-2.79,-2.8307,-2.7624,-2.7081,-2.6691,-2.6691,-2.6691,-2.6691,-2.6691,-2.6691,-1.1547,-1.2197,-1.2818,-1.1903,-1.1418,0.0,-0.966,-0.912,-0.915,-1.0079,-1.0543,-1.1183,-1.2543,-1.3606,-1.4287,-1.4287,-1.5164,-1.6057,-1.6609,-1.6785,-1.7024,-1.7488,-1.7551,-1.7714,-1.8166,-1.8204,-1.8251,-1.8333,-1.9341,-2.0312,-2.122,-2.2178,-2.3001,-2.358,-2.3595,-2.3595,-2.3595,-2.3595,-2.367,-2.3804,-2.3804,-2.3864,-2.3984,-2.3984,-2.4298,-2.4776,-2.4776,-2.5196,-2.5809,-2.5809,-2.6497,-2.7625,-2.7625,-2.7625,-2.7625,-2.7625,-2.7625,-2.7625,-2.7625,-2.7625,-2.7625,-2.7625,-2.7625,-2.7625,-2.7625,-2.7625,-2.781,-2.8904,-3.0038,-3.0878,-3.1151,-3.0658,-3.0038,-2.9673,-2.8996,-2.8511,-2.8511,-2.8511,-2.8685,-2.9451,-2.9585,-2.9361,-2.8779,-2.8559,-2.8286,-2.766,-2.7625,-2.7625,-2.7625,-2.7625,-2.781,-2.8431,-2.8511,-2.8559,-2.8654,-2.8701,-2.8415,-2.781,-2.776,-2.771,-2.761,-2.8042,-2.8311,-2.8307,-2.7904,-2.736,-2.6691,-2.6691,-2.6691,-2.6691,-2.6691,-2.6691,-1.2377,-1.2913,-1.3318,-1.2944,-1.2491,0.0,0.0,-0.9728,-0.953,-1.0616,-1.0241,-1.0231,-1.1859,-1.2626,-1.3071,-1.3264,-1.4449,-1.5379,-1.5655,-1.617,-1.6622,-1.6923,-1.6948,-1.7061,-1.7338,-1.7363,-1.7599,-1.8216,-1.903,-1.9907,-2.0854,-2.1467,-2.2209,-2.3116,-2.3131,-2.3295,-2.3595,-2.3595,-2.3595,-2.3595,-2.3595,-2.3595,-2.3595,-2.3595,-2.3789,-2.4118,-2.4118,-2.4492,-2.5121,-2.5121,-2.5704,-2.6632,-2.6961,-2.7325,-2.7625,-2.7625,-2.7625,-2.7625,-2.7625,-2.7625,-2.7625,-2.7625,-2.7625,-2.7625,-2.7625,-2.781,-2.8222,-2.9134,-3.0038,-3.074,-3.074,-3.0293,-2.9717,-2.9088,-2.8511,-2.8042,-2.8042,-2.8042,-2.814,-2.8448,-2.8496,-2.8496,-2.8511,-2.8238,-2.7959,-2.7675,-2.7625,-2.7625,-2.7625,-2.7625,-2.7725,-2.7993,-2.8042,-2.8042,-2.8042,-2.8042,-2.7894,-2.7625,-2.7625,-2.7625,-2.7625,-2.8189,-2.8432,-2.819,-2.7598,-2.708,-2.6691,-2.6691,-2.6691,-2.6691,-2.6691,-2.6691,-1.3157,-1.3474,-1.3661,-1.4013,-1.3521,-1.2722,0.0,0.0,0.0,-1.1039,-1.0109,-0.9579,-1.1078,-1.1554,-1.1838,-1.2268,-1.3606,-1.4525,-1.4412,-1.5302,-1.5986,-1.6195,-1.6296,-1.6358,-1.6358,-1.6258,-1.6672,-1.7873,-1.8248,-1.9056,-2.0495,-2.0635,-2.1328,-2.2652,-2.2724,-2.2981,-2.3595,-2.3595,-2.3595,-2.3595,-2.3595,-2.3595,-2.3595,-2.3595,-2.3595,-2.3595,-2.3595,-2.3924,-2.4388,-2.4388,-2.4822,-2.5495,-2.6288,-2.6916,-2.7395,-2.7565,-2.7625,-2.7625,-2.7625,-2.7625,-2.7625,-2.7625,-2.7625,-2.7625,-2.7625,-2.7993,-2.8606,-2.9088,-2.9673,-3.0123,-3.0123,-2.9673,-2.9088,-2.8606,-2.8042,-2.7625,-2.7625,-2.7625,-2.7625,-2.7625,-2.7625,-2.776,-2.8222,-2.7894,-2.7625,-2.7625,-2.7625,-2.7625,-2.7625,-2.7625,-2.7625,-2.7625,-2.7625,-2.7625,-2.7625,-2.7625,-2.7625,-2.7625,-2.7625,-2.766,-2.776,-2.8073,-2.8215,-2.8089,-2.7083,-2.6624,-2.6691,-2.6691,-2.6691,-2.6691,-2.6691,-2.6691,-1.4361,-1.4887,-1.5143,-1.4281,-1.4012,-1.3335,-1.109,0.0,-1.0054,-0.9452,0.0,-0.9719,-1.0343,0.0,0.0,-1.161,-1.2659,-1.3223,-1.2755,-1.336,-1.4134,-1.499,-1.5492,-1.5781,-1.5781,-1.5341,-1.5532,-1.6607,-1.631,-1.7041,-1.9182,-1.9772,-2.0834,-2.2637,-2.2724,-2.2981,-2.3595,-2.3595,-2.3595,-2.3595,-2.3595,-2.3595,-2.3595,-2.3595,-2.3595,-2.3595,-2.3595,-2.364,-2.3714,-2.3714,-2.4118,-2.4821,-2.6108,-2.6632,-2.6782,-2.74,-2.7625,-2.7625,-2.7625,-2.7625,-2.7625,-2.7625,-2.7625,-2.7625,-2.7625,-2.7993,-2.8511,-2.8606,-2.9042,-2.9496,-2.9496,-2.9042,-2.8606,-2.8511,-2.8042,-2.7625,-2.7625,-2.7625,-2.7625,-2.7625,-2.7625,-2.7625,-2.766,-2.7675,-2.7625,-2.7625,-2.7625,-2.7625,-2.7625,-2.7625,-2.7625,-2.7625,-2.7625,-2.7625,-2.7625,-2.7625,-2.7625,-2.7625,-2.7625,-2.786,-2.8383,-2.7769,-2.7637,-2.8112,-2.6792,-2.6297,-2.6691,-2.6691,-2.6691,-2.6691,-2.6691,-2.6691,-1.4014,-1.4365,-1.4473,-1.4167,-1.3853,-1.3253,-1.1954,-1.1158,-1.0695,-1.0583,0.0,0.0,0.0,0.0,0.0,0.0,-1.1977,-1.2077,-1.1482,-1.1578,-1.2237,-1.3736,-1.3716,-1.3942,-1.4811,-1.4597,-1.4832,-1.594,-1.5541,-1.6045,-1.7938,-1.8576,-1.9688,-2.1461,-2.1904,-2.2413,-2.3056,-2.3415,-2.3595,-2.3595,-2.3595,-2.3595,-2.3595,-2.3595,-2.3595,-2.3595,-2.3595,-2.3595,-2.3595,-2.3595,-2.3774,-2.4118,-2.5076,-2.5689,-2.6093,-2.6752,-2.7006,-2.7066,-2.749,-2.7625,-2.7625,-2.7625,-2.7625,-2.7625,-2.7625,-2.776,-2.8042,-2.8415,-2.8701,-2.8873,-2.8873,-2.8701,-2.8415,-2.8042,-2.776,-2.7625,-2.7625,-2.7625,-2.7625,-2.7625,-2.7625,-2.7625,-2.7625,-2.7625,-2.7625,-2.7625,-2.7625,-2.7625,-2.7625,-2.7625,-2.7625,-2.7625,-2.7625,-2.7625,-2.7625,-2.7625,-2.7625,-2.7625,-2.7531,-2.7639,-2.7891,-2.7115,-2.6945,-2.7525,-2.6211,-2.5908,-2.6691,-2.6436,-2.6436,-2.6691,-2.6691,-2.6691,-1.3647,-1.3815,-1.3772,-1.3674,-1.333,-1.2817,-1.2134,-1.1432,-1.1108,-1.1638,-1.132,0.0,0.0,0.0,-1.166,-1.1802,0.0,-1.1512,-1.0621,-1.0288,-1.0675,-1.2184,-1.2092,-1.2351,-1.3595,-1.33,-1.3631,-1.5007,-1.4474,-1.494,-1.6951,-1.757,-1.8701,-2.0433,-2.1093,-2.1829,-2.2709,-2.3116,-2.343,-2.3595,-2.3421,-2.3363,-2.3363,-2.3363,-2.3363,-2.3377,-2.3508,-2.3595,-2.3595,-2.3595,-2.3595,-2.3655,-2.4148,-2.4642,-2.5181,-2.6213,-2.6587,-2.6692,-2.7385,-2.7625,-2.7625,-2.7625,-2.7625,-2.7625,-2.7625,-2.7625,-2.766,-2.814,-2.8238,-2.8238,-2.8238,-2.8238,-2.814,-2.771,-2.7625,-2.7625,-2.7625,-2.7625,-2.7625,-2.7625,-2.7625,-2.7625,-2.7625,-2.7625,-2.7625,-2.7625,-2.7625,-2.7625,-2.7625,-2.7625,-2.7625,-2.7625,-2.7625,-2.7625,-2.7625,-2.7625,-2.7625,-2.7625,-2.7498,-2.7381,-2.7241,-2.6459,-2.623,-2.6626,-2.555,-2.547,-2.6505,-2.6156,-2.6227,-2.6691,-2.6691,-2.6691,-1.3647,-1.3815,-1.3605,-1.2775,-1.2542,-1.2163,-1.0686,-1.0645,-1.1084,-1.1661,-1.2119,-1.2739,-1.3799,-1.3581,0.0,0.0,0.0,0.0,0.0,-0.9644,-0.9634,-1.0224,-1.0915,-1.1538,-1.2128,-1.1228,-1.1442,-1.3422,-1.254,-1.3231,-1.6361,-1.7033,-1.8134,-1.9883,-2.0439,-2.1365,-2.2709,-2.2739,-2.3011,-2.3595,-2.3009,-2.274,-2.274,-2.274,-2.274,-2.274,-2.3334,-2.3595,-2.3595,-2.3595,-2.3595,-2.3595,-2.3625,-2.3655,-2.3894,-2.5869,-2.6587,-2.6692,-2.7385,-2.7625,-2.7625,-2.7625,-2.7625,-2.7625,-2.7625,-2.7625,-2.761,-2.7625,-2.7625,-2.7625,-2.7625,-2.7625,-2.7625,-2.761,-2.7625,-2.7625,-2.7625,-2.7625,-2.7625,-2.7625,-2.7625,-2.7625,-2.7625,-2.7625,-2.7625,-2.7625,-2.7625,-2.7625,-2.7625,-2.7625,-2.7625,-2.7625,-2.7625,-2.7625,-2.7625,-2.7625,-2.7625,-2.7625,-2.7531,-2.7241,-2.6636,-2.5906,-2.5512,-2.5459,-2.4803,-2.4934,-2.5997,-2.6013,-2.6227,-2.6691,-2.6691,-2.6691,-1.3152,-1.319,-1.305,-1.2458,-1.2077,-1.1697,-1.0871,-1.0811,-1.0949,-1.1145,-1.1819,-1.2594,-1.3372,-1.2975,0.0,0.0,0.0,0.0,0.0,-0.8879,-0.848,-0.849,-0.9502,-1.0179,-1.0231,-1.0252,-1.085,-1.2392,-1.266,-1.3677,-1.587,-1.6835,-1.7745,-1.8689,-1.9296,-1.9843,-2.0312,-2.1112,-2.1625,-2.1839,-2.1963,-2.2053,-2.2053,-2.2498,-2.2694,-2.274,-2.3334,-2.3595,-2.3595,-2.3595,-2.3595,-2.3595,-2.3595,-2.3595,-2.3744,-2.4866,-2.557,-2.6093,-2.7186,-2.7625,-2.7625,-2.7625,-2.7625,-2.7625,-2.7625,-2.7625,-2.7625,-2.7625,-2.7625,-2.7625,-2.7625,-2.7625,-2.7625,-2.7625,-2.7625,-2.7625,-2.7625,-2.7625,-2.7625,-2.7625,-2.7625,-2.7625,-2.7625,-2.7625,-2.7625,-2.7625,-2.7625,-2.7625,-2.7625,-2.7625,-2.7625,-2.7625,-2.7625,-2.7625,-2.7625,-2.7625,-2.738,-2.6946,-2.6826,-2.6336,-2.53,-2.4958,-2.4746,-2.4746,-2.4155,-2.4389,-2.5449,-2.5105,-2.5373,-2.6227,-2.6227,-2.6401,-1.2881,-1.2881,-1.2773,-1.2334,-1.2012,-1.1689,-1.124,-1.126,-1.142,-1.1656,-1.2302,-1.3008,-1.3617,-1.3259,-1.2737,0.0,0.0,0.0,0.0,-0.8383,-0.7951,-0.7572,-0.8345,-0.8922,-0.895,-0.9066,-0.9847,-1.1516,-1.194,-1.3103,-1.5319,-1.6437,-1.7353,-1.8092,-1.8719,-1.9148,-1.9387,-2.0142,-2.0664,-2.09,-2.1246,-2.139,-2.1376,-2.2067,-2.2346,-2.2392,-2.3216,-2.3595,-2.3595,-2.3595,-2.3595,-2.3595,-2.3595,-2.3595,-2.3684,-2.4328,-2.5196,-2.6078,-2.6931,-2.743,-2.7625,-2.7625,-2.7625,-2.7625,-2.7625,-2.7625,-2.7625,-2.7625,-2.7625,-2.7625,-2.7625,-2.7625,-2.7625,-2.7625,-2.7625,-2.7625,-2.7625,-2.7625,-2.7625,-2.7625,-2.7625,-2.7625,-2.7625,-2.7625,-2.7625,-2.7625,-2.7625,-2.7625,-2.7625,-2.7625,-2.7625,-2.7625,-2.7625,-2.752,-2.7245,-2.7215,-2.6946,-2.6288,-2.5925,-2.5409,-2.4642,-2.4286,-2.4116,-2.4116,-2.3752,-2.4032,-2.4894,-2.4592,-2.4934,-2.6013,-2.6013,-2.6262]}]]